[[{"header":{"parameterUnit":"m.s-1","parameterCategory":1,"la1":30.6,"la2":29.2853,"lo1":-89.7004,"lo2":-87.6739,"dy":0.0162,"dx":0.0183,"nx":112,"ny":82,"refTime":"2023-08-24T06:00:00:Z","depth":0,"parameterNumber":2,"parameterNumberName":"U-component_of_WINDS"},"data":[0.0,0.0,0.0,0.0,0.0,0.0,0.0,0.0,0.0,0.0,0.0,0.0,0.0,0.0,0.0,0.0,0.0,0.0,0.0,0.0,0.0,0.0,0.0,0.0,0.0,0.0,0.0,0.0,0.0,0.0,0.0,0.0,0.0,0.0,0.0,0.0,0.0,0.0,0.0,0.0,0.0,0.0,0.0,0.0,0.0,0.0,0.0,0.0,0.0,0.0,0.0,0.0,0.0,0.0,0.0,0.0,0.0,0.0,0.0,0.0,0.0,0.0,0.0,0.0,0.0,0.0,0.0,0.0,0.0,0.0,0.0,0.0,0.0,0.0,0.0,0.0,0.0,0.0,0.0,0.0,0.0,0.0,0.0,0.0,0.0,0.0,0.0,0.0,0.0,0.0,-1.0608,-1.2187,-1.3869,-1.4919,-1.4985,-1.5319,-1.496,-1.3674,0.0,0.0,0.0,0.0,0.0,0.0,0.0,0.0,0.0,0.0,0.0,0.0,0.0,0.0,0.0,0.0,0.0,0.0,0.0,0.0,0.0,0.0,0.0,0.0,0.0,0.0,0.0,0.0,0.0,0.0,0.0,0.0,0.0,0.0,0.0,0.0,0.0,0.0,0.0,0.0,0.0,0.0,0.0,0.0,0.0,0.0,0.0,0.0,0.0,0.0,0.0,0.0,0.0,0.0,0.0,0.0,0.0,0.0,0.0,0.0,0.0,0.0,0.0,0.0,0.0,0.0,0.0,0.0,0.0,0.0,0.0,0.0,0.0,0.0,0.0,0.0,0.0,0.0,0.0,0.0,0.0,0.0,0.0,0.0,0.0,0.0,0.0,0.0,0.0,0.0,0.0,0.0,0.0,0.0,0.0,0.0,0.0,0.0,0.0,0.0,0.0,0.0,0.0,0.0,-1.1251,-1.3248,-1.3729,-1.4067,-1.4473,-1.3795,-1.3257,-1.3041,0.0,0.0,0.0,0.0,0.0,0.0,0.0,0.0,0.0,0.0,0.0,0.0,0.0,0.0,0.0,0.0,0.0,0.0,0.0,0.0,0.0,0.0,0.0,0.0,0.0,0.0,0.0,0.0,0.0,0.0,0.0,0.0,0.0,0.0,0.0,0.0,0.0,0.0,0.0,0.0,0.0,0.0,0.0,0.0,0.0,0.0,0.0,0.0,0.0,0.0,0.0,0.0,0.0,0.0,0.0,0.0,0.0,0.0,0.0,0.0,0.0,0.0,0.0,0.0,0.0,0.0,0.0,0.0,0.0,0.0,0.0,0.0,0.0,0.0,0.0,0.0,0.0,0.0,0.0,0.0,0.0,0.0,0.0,0.0,0.0,0.0,0.0,0.0,0.0,0.0,0.0,0.0,0.0,0.0,0.0,0.0,0.0,0.0,0.0,0.0,0.0,0.0,0.0,-1.0863,-1.214,-1.3881,-1.3849,-1.3881,-1.4363,-1.3466,-1.303,-1.3335,-1.3249,0.0,0.0,0.0,0.0,0.0,0.0,0.0,0.0,0.0,0.0,0.0,0.0,0.0,0.0,0.0,0.0,0.0,0.0,0.0,0.0,0.0,0.0,0.0,0.0,0.0,0.0,0.0,0.0,0.0,0.0,0.0,0.0,0.0,0.0,0.0,0.0,0.0,0.0,0.0,0.0,0.0,0.0,0.0,0.0,0.0,0.0,0.0,0.0,0.0,0.0,0.0,0.0,0.0,0.0,0.0,0.0,0.0,0.0,0.0,0.0,0.0,0.0,0.0,0.0,0.0,0.0,0.0,0.0,0.0,0.0,0.0,0.0,0.0,0.0,0.0,0.0,0.0,0.0,0.0,0.0,0.0,0.0,0.0,0.0,0.0,0.0,0.0,0.0,0.0,0.0,0.0,0.0,0.0,0.0,0.0,0.0,0.0,0.0,0.0,0.0,0.0,0.0,-1.1727,-1.2473,-1.4079,-1.3903,-1.3838,-1.421,-1.3205,-1.279,-1.3314,-1.1981,0.0,0.0,0.0,0.0,0.0,0.0,0.0,0.0,0.0,0.0,0.0,0.0,0.0,0.0,0.0,0.0,0.0,0.0,0.0,0.0,0.0,0.0,0.0,0.0,0.0,0.0,0.0,0.0,0.0,0.0,0.0,0.0,0.0,0.0,0.0,0.0,0.0,0.0,0.0,0.0,0.0,0.0,0.0,0.0,0.0,0.0,0.0,0.0,0.0,0.0,0.0,0.0,0.0,0.0,0.0,0.0,0.0,0.0,0.0,0.0,0.0,0.0,0.0,0.0,0.0,0.0,0.0,0.0,0.0,0.0,0.0,0.0,0.0,0.0,0.0,0.0,0.0,0.0,0.0,0.0,0.0,0.0,0.0,0.0,0.0,0.0,0.0,0.0,0.0,0.0,0.0,0.0,0.0,0.0,0.0,0.0,0.0,0.0,0.0,0.0,0.0,0.0,-1.1313,-1.1621,-1.3543,-1.3718,-1.3707,-1.374,-1.242,-1.1798,-1.2287,-1.0983,0.0,0.0,0.0,0.0,0.0,0.0,0.0,0.0,0.0,0.0,0.0,0.0,0.0,0.0,0.0,0.0,0.0,0.0,0.0,0.0,0.0,0.0,0.0,0.0,0.0,0.0,0.0,0.0,0.0,0.0,0.0,0.0,0.0,0.0,0.0,0.0,0.0,0.0,0.0,0.0,0.0,0.0,0.0,0.0,0.0,0.0,0.0,0.0,0.0,0.0,0.0,0.0,0.0,0.0,0.0,0.0,0.0,0.0,0.0,0.0,0.0,0.0,0.0,0.0,0.0,0.0,0.0,0.0,0.0,0.0,0.0,0.0,0.0,0.0,0.0,0.0,0.0,0.0,0.0,0.0,0.0,0.0,0.0,0.0,0.0,0.0,0.0,0.0,0.0,0.0,0.0,0.0,0.0,0.0,0.0,0.0,0.0,0.0,0.0,0.0,0.0,0.0,-1.2068,-1.2518,0.0,-1.339,-1.3346,-1.3663,-1.2363,-1.17,-1.2178,0.0,0.0,0.0,0.0,0.0,0.0,0.0,0.0,0.0,0.0,0.0,0.0,0.0,0.0,0.0,0.0,0.0,0.0,0.0,0.0,0.0,0.0,0.0,0.0,0.0,0.0,0.0,0.0,0.0,0.0,0.0,0.0,0.0,0.0,0.0,0.0,0.0,0.0,0.0,0.0,0.0,0.0,0.0,0.0,0.0,0.0,0.0,0.0,0.0,0.0,0.0,0.0,0.0,0.0,0.0,0.0,0.0,0.0,0.0,0.0,0.0,0.0,0.0,0.0,0.0,0.0,0.0,0.0,0.0,0.0,0.0,0.0,0.0,0.0,0.0,0.0,0.0,0.0,0.0,0.0,0.0,0.0,0.0,0.0,0.0,0.0,0.0,0.0,0.0,0.0,0.0,0.0,0.0,0.0,0.0,0.0,0.0,0.0,0.0,0.0,0.0,0.0,-1.2353,-1.2392,-1.266,0.0,-1.303,-1.2932,-1.3008,-1.1656,-1.1079,-1.1719,0.0,0.0,0.0,0.0,0.0,0.0,0.0,0.0,0.0,0.0,0.0,0.0,0.0,0.0,0.0,0.0,0.0,0.0,0.0,0.0,0.0,0.0,0.0,0.0,0.0,0.0,0.0,0.0,0.0,0.0,0.0,0.0,0.0,0.0,0.0,0.0,0.0,0.0,0.0,0.0,0.0,0.0,0.0,0.0,0.0,0.0,0.0,0.0,0.0,0.0,0.0,0.0,0.0,0.0,0.0,0.0,0.0,0.0,0.0,0.0,0.0,0.0,0.0,0.0,0.0,0.0,0.0,0.0,0.0,0.0,0.0,0.0,0.0,0.0,0.0,0.0,0.0,0.0,0.0,0.0,0.0,0.0,0.0,0.0,0.0,0.0,0.0,0.0,0.0,0.0,0.0,0.0,0.0,0.0,0.0,0.0,0.0,0.0,0.0,0.0,0.0,0.0,-1.2687,-1.2034,-1.1678,-1.2156,-1.2616,-1.2508,-1.158,-1.0157,-0.9732,0.0,0.0,0.0,0.0,0.0,0.0,0.0,0.0,0.0,0.0,0.0,0.0,0.0,0.0,0.0,0.0,0.0,0.0,0.0,0.0,0.0,0.0,0.0,0.0,0.0,0.0,0.0,0.0,0.0,0.0,0.0,0.0,0.0,0.0,0.0,0.0,0.0,0.0,0.0,0.0,0.0,0.0,0.0,0.0,0.0,0.0,0.0,0.0,0.0,0.0,0.0,0.0,0.0,0.0,0.0,0.0,0.0,0.0,0.0,0.0,0.0,0.0,0.0,0.0,0.0,0.0,0.0,0.0,0.0,0.0,0.0,0.0,0.0,0.0,0.0,0.0,0.0,0.0,0.0,0.0,0.0,0.0,0.0,0.0,0.0,0.0,0.0,0.0,0.0,0.0,0.0,0.0,0.0,0.0,0.0,0.0,0.0,0.0,0.0,0.0,0.0,0.0,0.0,-1.2772,-1.2073,-1.1678,-1.2156,-1.2311,-1.2158,-1.1558,-1.0157,-0.9732,-1.0736,0.0,0.0,0.0,0.0,0.0,0.0,0.0,0.0,0.0,0.0,0.0,0.0,0.0,0.0,0.0,0.0,0.0,0.0,0.0,0.0,0.0,0.0,0.0,0.0,0.0,0.0,0.0,0.0,0.0,0.0,0.0,0.0,0.0,0.0,0.0,0.0,0.0,0.0,0.0,0.0,0.0,0.0,0.0,0.0,0.0,0.0,0.0,0.0,0.0,0.0,0.0,0.0,0.0,0.0,0.0,0.0,0.0,0.0,0.0,0.0,0.0,0.0,0.0,0.0,0.0,0.0,0.0,0.0,0.0,0.0,0.0,0.0,0.0,0.0,0.0,0.0,0.0,0.0,0.0,0.0,0.0,0.0,0.0,0.0,0.0,0.0,0.0,0.0,0.0,0.0,0.0,0.0,0.0,0.0,0.0,0.0,0.0,0.0,0.0,0.0,0.0,0.0,-1.2824,-1.2093,-1.1613,-1.1885,-1.1918,-1.1646,-1.0998,-0.9754,-0.9275,-0.9895,0.0,0.0,0.0,0.0,0.0,0.0,0.0,0.0,0.0,0.0,0.0,0.0,0.0,0.0,0.0,0.0,0.0,0.0,0.0,0.0,0.0,0.0,0.0,0.0,0.0,0.0,0.0,0.0,0.0,0.0,0.0,0.0,0.0,0.0,0.0,0.0,0.0,0.0,0.0,0.0,0.0,0.0,0.0,0.0,0.0,0.0,0.0,0.0,0.0,0.0,0.0,0.0,0.0,0.0,0.0,0.0,0.0,0.0,0.0,0.0,0.0,0.0,0.0,0.0,0.0,0.0,0.0,0.0,0.0,0.0,0.0,0.0,0.0,0.0,0.0,0.0,0.0,0.0,0.0,0.0,0.0,0.0,0.0,0.0,0.0,0.0,0.0,0.0,0.0,0.0,0.0,0.0,0.0,0.0,0.0,0.0,0.0,0.0,0.0,0.0,0.0,0.0,-1.2921,-1.2071,-1.1471,-1.1558,-1.1536,-1.1151,-1.0245,-0.9251,-0.8687,-0.8745,0.0,0.0,0.0,0.0,0.0,0.0,0.0,0.0,0.0,0.0,0.0,0.0,0.0,0.0,0.0,0.0,0.0,0.0,0.0,0.0,0.0,0.0,0.0,0.0,0.0,0.0,0.0,0.0,0.0,0.0,0.0,0.0,0.0,0.0,0.0,0.0,0.0,0.0,0.0,0.0,0.0,0.0,0.0,0.0,0.0,0.0,0.0,0.0,0.0,0.0,0.0,0.0,0.0,0.0,0.0,0.0,0.0,0.0,0.0,0.0,-1.9582,0.0,0.0,0.0,0.0,0.0,0.0,0.0,0.0,0.0,0.0,0.0,0.0,0.0,0.0,0.0,0.0,0.0,0.0,0.0,0.0,0.0,0.0,0.0,0.0,0.0,0.0,0.0,0.0,0.0,0.0,0.0,0.0,0.0,0.0,0.0,0.0,0.0,0.0,0.0,0.0,0.0,-1.3423,-1.2025,-1.1238,-1.1962,-1.1722,-1.1264,-1.071,-0.9737,-0.933,-0.9747,-0.9043,0.0,0.0,0.0,0.0,0.0,0.0,0.0,0.0,0.0,0.0,0.0,0.0,0.0,0.0,0.0,0.0,0.0,0.0,0.0,0.0,0.0,0.0,0.0,0.0,0.0,0.0,0.0,0.0,0.0,0.0,0.0,0.0,0.0,0.0,0.0,0.0,0.0,0.0,0.0,0.0,0.0,0.0,0.0,0.0,0.0,0.0,0.0,0.0,0.0,0.0,0.0,0.0,0.0,0.0,0.0,0.0,0.0,0.0,0.0,0.0,-2.0032,0.0,0.0,0.0,0.0,0.0,0.0,0.0,0.0,0.0,0.0,0.0,0.0,0.0,0.0,0.0,0.0,0.0,0.0,0.0,0.0,0.0,0.0,0.0,0.0,0.0,0.0,0.0,0.0,0.0,0.0,0.0,0.0,0.0,0.0,0.0,0.0,0.0,0.0,0.0,0.0,-1.3238,-1.2243,-1.1577,-1.1831,-1.1646,-1.1307,-1.0834,-0.9874,-0.933,-0.9371,-0.8887,0.0,0.0,0.0,0.0,0.0,0.0,0.0,0.0,0.0,0.0,0.0,0.0,0.0,0.0,0.0,0.0,0.0,0.0,0.0,0.0,0.0,0.0,0.0,0.0,0.0,0.0,0.0,0.0,0.0,0.0,0.0,0.0,0.0,0.0,0.0,0.0,0.0,0.0,0.0,0.0,0.0,0.0,0.0,0.0,0.0,0.0,0.0,0.0,0.0,0.0,0.0,0.0,0.0,-2.5238,-2.5764,-2.6711,-2.6711,-2.6293,-2.5383,-2.2496,-2.0429,-1.9162,-1.9658,0.0,0.0,0.0,0.0,0.0,0.0,0.0,0.0,0.0,0.0,0.0,0.0,0.0,0.0,0.0,0.0,0.0,0.0,0.0,0.0,0.0,0.0,0.0,0.0,-1.5656,-1.589,-1.4654,0.0,0.0,0.0,0.0,0.0,0.0,0.0,0.0,0.0,0.0,0.0,-1.3083,-1.2601,-1.214,-1.1787,-1.1602,-1.134,-1.0954,-1.0097,-0.9362,-0.8927,-0.8831,-0.8777,0.0,0.0,0.0,0.0,0.0,0.0,0.0,0.0,0.0,0.0,0.0,0.0,0.0,0.0,0.0,0.0,0.0,0.0,0.0,0.0,0.0,0.0,0.0,0.0,0.0,0.0,0.0,0.0,0.0,0.0,0.0,0.0,-2.4006,-2.3774,0.0,0.0,0.0,0.0,0.0,0.0,0.0,0.0,0.0,0.0,0.0,0.0,0.0,-2.662,-2.756,-2.7176,-2.7114,-2.7395,-2.7395,-2.7177,-2.6792,-2.6792,-2.6395,-2.5644,-2.5191,0.0,-2.2678,-2.2328,0.0,0.0,0.0,0.0,0.0,0.0,0.0,0.0,0.0,0.0,0.0,0.0,0.0,0.0,0.0,0.0,0.0,0.0,0.0,0.0,0.0,0.0,-1.7081,-1.75,-1.655,-1.5542,0.0,-1.5289,-1.5091,-1.5272,-1.5141,0.0,0.0,0.0,0.0,0.0,0.0,0.0,-1.3859,-1.3087,-1.2582,-1.2713,-1.1994,-1.1482,-1.1417,-1.0904,-1.0448,-1.0104,-0.969,-0.947,-0.947,-0.9526,0.0,0.0,0.0,0.0,0.0,0.0,0.0,0.0,0.0,0.0,0.0,0.0,0.0,0.0,0.0,0.0,0.0,0.0,0.0,0.0,0.0,0.0,0.0,0.0,0.0,0.0,0.0,0.0,0.0,-2.5061,-2.4791,-2.4663,-2.5502,-2.5777,0.0,0.0,0.0,0.0,0.0,0.0,0.0,0.0,0.0,-2.6994,-2.7663,-2.8307,-2.8906,-2.8576,-2.8659,-2.9147,-2.9147,-2.9194,-2.9273,-2.9273,-2.8849,-2.8105,-2.7758,-2.6757,-2.5259,-2.3811,-2.2542,-2.149,0.0,0.0,0.0,0.0,-1.9416,-1.9405,-1.9357,-1.9411,-1.9376,-1.8724,0.0,0.0,0.0,0.0,0.0,0.0,0.0,0.0,0.0,0.0,-1.7869,-1.7327,-1.7175,-1.6948,-1.6228,-1.6041,-1.5855,0.0,-1.5198,-1.5062,-1.4983,0.0,0.0,0.0,0.0,-1.4339,-1.4233,-1.3728,-1.3221,-1.2785,-1.2374,-1.1951,-1.1536,-1.1075,-1.0738,-1.058,-1.0252,-0.9988,-0.9879,-1.0241,-1.0565,0.0,0.0,0.0,0.0,0.0,0.0,0.0,0.0,0.0,0.0,0.0,0.0,0.0,0.0,0.0,0.0,0.0,0.0,0.0,0.0,0.0,0.0,0.0,0.0,0.0,0.0,0.0,0.0,-2.5742,-2.5758,-2.5065,-2.6522,-2.7056,0.0,0.0,0.0,0.0,0.0,0.0,-2.6299,-2.791,-2.8939,-2.918,-2.9563,-3.0039,-3.0608,-3.0305,-3.0563,-3.139,-3.1262,-3.146,-3.1944,-3.1795,-3.1331,-3.0564,-2.9911,-2.88,-2.73,-2.5147,-2.3431,-2.2191,-2.2345,-2.1841,-2.108,-2.1374,-2.1557,-2.1614,-2.1272,-2.1065,-2.0782,-1.9923,-1.9153,-1.8488,-1.8044,0.0,0.0,0.0,0.0,-1.803,-1.8157,-1.8606,-1.8714,-1.7447,-1.7809,-1.8051,-1.661,-1.6426,-1.6293,0.0,-1.5345,-1.5221,-1.5062,0.0,0.0,0.0,0.0,-1.4789,-1.4516,-1.4307,-1.3905,-1.3148,-1.2822,-1.2451,-1.1911,-1.1413,-1.108,-1.0941,-1.0738,-1.0512,-1.0243,-1.0654,-1.0894,-1.0878,0.0,0.0,0.0,0.0,0.0,0.0,0.0,0.0,0.0,0.0,0.0,0.0,0.0,0.0,0.0,0.0,0.0,0.0,0.0,0.0,0.0,0.0,0.0,0.0,0.0,0.0,0.0,0.0,0.0,-2.4174,-2.6368,0.0,0.0,0.0,0.0,-2.9059,-2.9145,-2.9523,-3.0368,-3.0506,-3.0903,-3.161,-3.1949,-3.278,-3.4141,-3.3757,-3.3882,-3.4556,-3.4121,-3.393,-3.3937,-3.3417,-3.2819,-3.2149,-3.1413,-3.0298,-2.8823,-2.6676,-2.4968,-2.3755,-2.4319,-2.3829,-2.2808,-2.3214,-2.3055,-2.2525,-2.1824,-2.156,-2.1411,-2.0542,-1.9585,-1.8678,-1.8079,-1.7902,0.0,0.0,-1.8337,-1.888,-1.9456,-1.9632,-1.953,-1.9087,-1.8618,-1.7944,-1.6588,-1.6315,-1.6306,0.0,-1.5988,-1.5814,-1.5935,0.0,-1.5304,-1.4789,-1.5129,-1.528,-1.4742,-1.4738,-1.4641,-1.4334,-1.3452,-1.2858,-1.2835,-1.2341,-1.1818,-1.1303,-1.1263,-1.1045,-1.0587,-1.0411,-1.0581,-1.1085,-1.0482,0.0,0.0,0.0,0.0,0.0,0.0,0.0,0.0,0.0,0.0,0.0,0.0,0.0,0.0,0.0,0.0,0.0,0.0,0.0,0.0,0.0,0.0,0.0,0.0,0.0,0.0,0.0,0.0,-2.9387,-3.0454,0.0,-3.0216,-2.9964,-2.9954,-3.0213,-3.1126,-3.2023,-3.2835,-3.3783,-3.4421,-3.468,-3.4813,-3.4981,-3.5165,-3.5032,-3.4894,-3.4793,-3.4617,-3.4545,-3.4521,-3.4034,-3.3196,-3.2072,-3.1466,-3.0393,-2.9082,-2.8798,-2.7308,-2.5237,-2.5453,-2.4961,-2.4182,-2.4775,-2.4564,-2.3963,-2.3821,-2.3071,-2.191,-2.025,-1.9782,-1.9676,-1.89,-1.8941,-1.9296,-1.9505,-1.9718,-1.9935,-2.0166,-1.9971,-1.9569,-1.9041,-1.8297,-1.7594,-1.712,-1.685,-1.6693,-1.6693,-1.6219,-1.577,-1.5691,-1.5691,-1.5588,-1.5266,-1.5373,-1.5487,-1.5419,-1.532,-1.5102,-1.4709,-1.4325,-1.3784,-1.2965,-1.2716,-1.2383,-1.1854,-1.1802,-1.168,-1.1375,-1.1427,-1.143,-1.1351,-1.0953,-1.0868,0.0,0.0,0.0,0.0,0.0,0.0,0.0,0.0,0.0,0.0,0.0,0.0,0.0,0.0,0.0,0.0,0.0,0.0,0.0,0.0,0.0,0.0,0.0,0.0,0.0,0.0,-3.1376,-3.217,-3.3312,-3.3728,-3.2978,-3.2492,-3.2317,-3.2559,-3.3749,-3.4783,-3.5597,-3.6542,-3.6956,-3.6715,-3.6697,-3.6431,-3.5854,-3.5832,-3.5661,-3.5305,-3.5144,-3.5052,-3.5045,-3.4407,-3.3582,-3.2676,-3.1914,-3.0907,-2.984,-3.0338,-2.9153,-2.7083,-2.732,-2.6766,-2.589,-2.6329,-2.6156,-2.5633,-2.5157,-2.4001,-2.2469,-2.0885,-2.0605,-2.072,-1.9929,-1.9915,-2.0168,-2.0392,-2.0539,-2.062,-2.062,-2.0452,-2.0121,-1.951,-1.8898,-1.8355,-1.8049,-1.7795,-1.7614,-1.7492,-1.6651,-1.5983,-1.6018,-1.6066,-1.6011,-1.5898,-1.5863,-1.5849,-1.5816,-1.5681,-1.5472,-1.5174,-1.4984,-1.4458,-1.3466,-1.3213,-1.2847,-1.2238,-1.2204,-1.2113,-1.1902,-1.2127,-1.2118,-1.1828,-1.1124,-1.1085,-1.173,0.0,0.0,0.0,0.0,0.0,0.0,0.0,0.0,0.0,0.0,0.0,0.0,0.0,0.0,0.0,0.0,0.0,0.0,0.0,0.0,0.0,0.0,0.0,-2.92,-3.2684,-3.4402,-3.2143,-3.4632,-3.5633,-3.3382,-3.4458,-3.5632,-3.6374,-3.715,-3.7892,-3.8629,-3.8646,-3.8323,-3.7599,-3.7564,-3.7146,-3.6353,-3.6335,-3.6318,-3.6301,-3.5854,-3.5616,-3.5594,-3.461,-3.4134,-3.4061,-3.2857,-3.188,-3.1176,-3.1207,-3.0361,-2.9177,-2.9911,-2.9273,-2.794,-2.7953,-2.7832,-2.7447,-2.5639,-2.4243,-2.3171,-2.252,-2.2131,-2.1737,-2.1122,-2.0733,-2.0464,-2.0464,-2.0681,-2.0923,-2.0923,-2.1141,-2.1223,-2.0654,-2.0481,-2.0236,-1.9326,-1.9125,-1.9021,-1.8688,-1.7419,-1.6545,-1.7022,-1.6837,-1.6618,-1.6583,-1.6583,0.0,-1.5886,-1.5792,-1.5792,-1.5792,-1.5336,-1.483,-1.4361,-1.3843,-1.3238,-1.2513,-1.246,-1.2358,-1.2178,-1.2393,-1.2505,-1.2505,-1.0979,-1.0403,-1.0867,0.0,0.0,0.0,0.0,0.0,0.0,0.0,0.0,0.0,0.0,0.0,0.0,0.0,0.0,0.0,0.0,0.0,0.0,0.0,0.0,0.0,0.0,-3.3623,-3.3513,-3.4931,-3.6501,-3.7819,-3.8546,-3.8911,-3.8842,-3.8126,-3.8109,-3.9202,-3.9158,-3.9439,-4.0239,-3.9698,-3.9301,-3.9094,-3.8577,-3.7944,-3.7185,-3.7163,-3.687,-3.6301,-3.6156,-3.6114,-3.6092,-3.5481,-3.4883,-3.4342,-3.3282,-3.212,-3.0978,-3.1133,-3.0361,-2.9177,-2.9911,-2.9604,-2.8784,-2.8768,-2.8453,-2.7756,-2.5961,-2.5142,-2.4625,-2.3258,-2.3083,-2.3199,-2.2102,-2.2062,-2.2271,-2.1838,-2.163,-2.1545,-2.1545,-2.1141,-2.0721,-2.0522,-2.0206,-1.9854,-1.9602,-1.9539,-1.9517,-1.9427,-1.8807,-1.809,-1.7307,-1.7101,-1.6806,-1.6113,-1.603,0.0,-1.5816,-1.5792,-1.5792,-1.5792,-1.5672,-1.536,-1.4854,-1.4674,-1.4361,-1.3802,-1.3634,-1.3549,-1.349,-1.3042,-1.2703,-1.2505,-1.2265,-1.2191,0.0,0.0,0.0,0.0,0.0,0.0,0.0,0.0,0.0,0.0,0.0,0.0,0.0,0.0,0.0,0.0,0.0,0.0,0.0,0.0,0.0,0.0,-3.5504,-3.7239,-3.8208,-3.8361,-3.914,-4.1198,-4.1284,-4.1254,-4.1524,-4.0679,-4.0397,-4.111,-4.0714,-4.0654,-4.1123,-4.0539,-4.0043,-3.9715,-3.9267,-3.8698,-3.7978,-3.765,-3.7271,-3.6801,-3.6456,-3.6301,-3.628,-3.5815,-3.5357,-3.4928,-3.4117,-3.3012,-3.1808,-3.2232,-3.1451,0.0,0.0,0.0,0.0,0.0,-2.8695,-2.7914,-2.6616,-2.616,-2.592,-2.4353,-2.4205,-2.4426,-2.342,-2.3146,-2.3157,-2.2799,-2.2426,-2.2137,-2.2137,-2.1685,-2.1199,-2.1199,-2.0974,-2.074,-2.074,-2.0649,-2.058,-2.058,-2.03,0.0,-1.856,-1.8012,-1.7564,-1.7002,-1.6783,-1.6596,-1.641,-1.6229,-1.6054,-1.5816,-1.5792,-1.5576,-1.5061,-1.5013,0.0,0.0,0.0,-1.4127,-1.4145,-1.3559,0.0,0.0,0.0,-1.3128,-1.2889,-1.3128,0.0,0.0,-1.3554,-1.3532,0.0,0.0,0.0,0.0,0.0,0.0,0.0,0.0,0.0,0.0,0.0,0.0,0.0,0.0,0.0,0.0,-3.8359,-4.0285,-4.2767,-4.2393,-4.2169,-4.294,-4.2955,-4.2749,-4.2318,-4.2218,-4.2218,-4.2259,-4.1842,-4.1561,-4.1494,0.0,0.0,0.0,0.0,-3.9474,-3.8715,-3.8082,-3.7741,-3.7655,-3.6861,-3.6464,-3.6443,-3.5954,-3.5722,-3.57,-3.5144,-3.4244,-3.3233,-3.3828,-3.2933,-3.1107,-3.0441,-2.9753,-2.9098,-2.9098,-2.8719,-2.811,-2.7446,0.0,0.0,-2.5665,-2.545,-2.5559,-2.4922,-2.4219,-2.3619,-2.3591,-2.3127,-2.2646,-2.2646,-2.244,-2.2208,-2.2208,-2.2208,-2.2208,-2.2208,-2.202,-2.1841,-2.1841,-2.164,-2.1148,-2.0257,-1.924,-1.8536,-1.8426,-1.8113,-1.7727,-1.7225,-1.6904,-1.6528,-1.5985,0.0,0.0,-1.526,-1.5223,-1.5018,-1.4554,-1.449,-1.4426,-1.4317,-1.4016,-1.3817,-1.3696,-1.374,-1.3521,-1.2977,-1.3477,-1.3663,-1.3608,-1.3663,-1.3696,0.0,0.0,0.0,0.0,0.0,0.0,0.0,0.0,0.0,0.0,0.0,0.0,0.0,0.0,0.0,-3.9156,-4.0974,-4.29,-4.5268,-4.5455,-4.4993,-4.407,-4.3338,-4.2863,-4.2769,-4.2418,-4.2358,-4.2749,-4.2338,-4.1906,-4.1516,-4.1423,-4.1168,-4.067,-4.067,-4.0308,-3.9491,-3.9444,-3.9126,-3.8542,0.0,0.0,-3.7495,-3.6801,-3.6499,-3.6461,-3.5924,-3.5198,-3.4346,-3.4062,-3.2764,-3.0903,-3.0402,-2.9753,-2.9098,-2.9098,-2.9019,-2.8798,-2.8142,-2.7905,-2.7762,-2.6957,-2.674,-2.6696,-2.6243,-2.5642,0.0,-2.4771,-2.3874,-2.2994,-2.2994,-2.2586,-2.2208,-2.2208,-2.2208,-2.2208,-2.2208,-2.2161,-2.2114,-2.2114,-2.1926,-2.1505,-2.0831,-1.9762,-1.8728,-1.7968,-1.7792,-1.7556,-1.702,-1.7282,-1.7267,-1.6735,-1.6684,-1.6646,-1.6532,-1.6519,-1.6363,-1.5929,-1.5663,-1.5164,-1.4426,-1.4674,-1.4474,-1.3707,-1.4079,-1.4035,-1.3554,-1.3652,-1.3477,-1.3074,-1.3499,-1.3696,0.0,0.0,0.0,0.0,0.0,0.0,0.0,0.0,0.0,0.0,0.0,-3.6306,0.0,0.0,-3.9886,-4.1839,-4.3896,-4.5512,-4.6279,-4.6728,-4.6664,-4.5883,-4.5059,-4.4382,-4.3944,-4.3706,-4.3669,-4.3798,-4.3082,-4.2884,-4.3429,-4.2353,-4.1798,-4.2001,-4.1395,-4.0851,-4.0452,-4.0157,-3.9815,-3.9433,-3.8338,-3.8011,-3.8359,-3.7206,-3.6893,-3.7206,-3.6578,-3.5912,-3.5258,-3.4723,-3.3665,-3.2317,-3.1487,-3.0312,-2.9098,-2.9098,-2.9098,-2.9004,-2.8331,-2.8316,-2.8419,-2.7431,-2.7336,-2.7504,-2.6967,-2.6417,-2.5964,-2.5788,-2.5174,-2.4545,-2.4545,-2.4181,-2.3809,-2.3809,-2.365,-2.3498,-2.3498,-2.3416,-2.3244,-2.2918,-2.2634,-2.2247,-2.1657,-2.0703,-1.9696,-1.8817,-1.8489,-1.8273,-1.8022,-1.8329,-1.8241,-1.7384,-1.7294,-1.7192,-1.6922,-1.6897,-1.6812,-1.6616,-1.6154,-1.5682,-1.5211,-1.5015,-1.4676,-1.4204,-1.4333,-1.4287,-1.4057,-1.4057,-1.3903,-1.3663,-1.3925,-1.3914,0.0,0.0,0.0,0.0,0.0,0.0,0.0,0.0,-3.6592,-3.7053,-3.7802,-3.8831,-4.0424,-4.1375,-4.237,-4.3779,-4.5955,-4.7181,-4.6382,-4.7057,-4.7509,-4.7254,-4.6462,-4.5616,-4.4773,-4.4732,-4.4697,-4.4541,-4.3722,-4.3743,-4.4888,-4.3162,-4.2359,-4.2849,-4.1868,-4.1283,-4.1209,-4.064,-4.0349,-4.0331,-3.882,-3.851,-3.9225,-3.7533,-3.7167,-3.7829,-3.7056,-3.6485,-3.6037,-3.5481,-3.4695,-3.3745,-3.2677,-3.1099,-2.9403,-2.919,-2.9098,-2.9019,-2.8489,-2.864,-2.8925,-2.7857,-2.7857,-2.8189,-2.7668,-2.7171,-2.6794,-2.6794,-2.6463,-2.6107,-2.6107,-2.581,-2.5516,-2.5516,-2.52,-2.4917,-2.4917,-2.4726,-2.4425,-2.3856,-2.3548,-2.3223,-2.2729,-2.1913,-2.1043,-2.007,-1.9574,-1.9258,-1.922,-1.9465,-1.9186,-1.8043,-1.7926,-1.7692,-1.7138,-1.7044,-1.7002,-1.7002,-1.6479,-1.6141,-1.6098,-1.5434,-1.4983,-1.488,-1.4674,-1.4535,-1.4466,-1.443,-1.4396,-1.4396,-1.4396,-1.4199,-2.8876,-2.9602,0.0,-3.4115,-3.4564,-3.536,0.0,0.0,-4.0114,-4.0758,-4.1542,-4.203,-4.1845,-4.2492,-4.3226,-4.3884,-4.5472,-4.6345,-4.5547,-4.6754,-4.7424,-4.6684,-4.5734,-4.482,-4.4009,-4.3917,-4.3917,-4.39,-4.3791,-4.3621,-4.3378,-4.3105,-4.2675,-4.2048,-4.1913,-4.1622,-4.1192,-4.123,-4.1241,-4.1223,-3.9812,-3.9543,-4.0249,-3.8003,-3.7371,-3.8018,-3.7163,-3.6751,-3.6652,-3.6058,-3.4989,-3.3669,-3.305,-3.1917,-3.0481,-2.9477,-2.9098,-2.9098,-2.9019,-2.9035,-2.9082,-2.8925,-2.8925,-2.8972,-2.8909,-2.8413,-2.7924,-2.7924,-2.7223,-2.6437,-2.6437,-2.6175,-2.5925,-2.5925,-2.5625,-2.5328,-2.5328,-2.5077,-2.4824,-2.4674,-2.4503,-2.4316,-2.4244,-2.3518,-2.2446,-2.0978,-2.0525,-2.0165,-1.9687,-2.0061,-1.993,-1.88,-1.8679,-1.8436,-1.7842,-1.7509,-1.7344,-1.7344,-1.6989,-1.6693,-1.6457,-1.6355,-1.6051,-1.5501,-1.5288,-1.5017,-1.4685,-1.4489,-1.4396,-1.4396,-1.4396,-1.4374,-2.9913,0.0,0.0,0.0,-3.7058,-3.9315,-4.197,-4.3028,-4.3658,-4.4278,-4.4687,-4.4944,-4.5067,-4.4939,-4.4853,0.0,-4.6333,-4.6925,-4.5504,-4.6271,-4.6513,-4.5194,-4.4257,-4.3934,-4.4515,-4.4638,-4.4621,-4.4506,-4.4142,-4.4221,-4.4922,-4.3884,-4.336,-4.3535,-4.2812,-4.2221,-4.1796,-4.1839,-4.1744,-4.1498,-3.9999,-3.9726,-4.0414,-3.8078,-3.7183,-3.7444,-3.7071,-3.6928,-3.6908,-3.6635,-3.5888,-3.4765,-3.3844,-3.2822,-3.1675,-3.0125,-2.9579,-2.9512,-2.9198,-2.9098,-2.9098,-2.9098,-2.9098,-2.9098,-2.9098,-2.8893,-2.8672,-2.8672,-2.836,-2.8011,-2.8011,-2.7744,-2.7449,-2.7449,-2.715,-2.6847,-2.6847,-2.6756,-2.6529,-2.6156,-2.583,-2.5492,-2.5097,-2.4432,-2.3737,-2.3092,-2.2047,-2.1088,-2.0484,-2.076,-2.0586,-1.9451,-1.9002,-1.8554,-1.7957,-1.7767,-1.7686,-1.7686,-1.7378,-1.7136,-1.7018,-1.6701,-1.6389,-1.6139,-1.5844,-1.549,-1.5051,-1.4903,-1.4674,-1.4396,-1.4396,-1.4396,-3.1632,0.0,0.0,-3.7058,-4.0058,-4.3085,-4.3951,-4.5259,-4.6357,-4.6578,-4.6605,-4.657,-4.6388,-4.6042,-4.5615,-4.5098,-4.6365,-4.6866,-4.5273,-4.5294,-4.5026,-4.3819,-4.276,-4.2656,-4.3984,-4.4419,-4.4552,-4.4404,-4.4149,-4.4493,-4.5616,-4.4323,-4.3802,-4.4322,-4.3451,-4.2772,-4.238,-4.2145,-4.1854,-4.1431,-3.9876,-3.9497,-4.0116,-3.8184,-3.72,-3.7007,-3.7007,-3.7007,-3.7007,-3.7007,-3.6369,-3.5362,-3.4688,-3.3649,-3.2425,-3.137,-3.0589,-2.994,-2.9572,-2.938,-2.9289,-2.9289,-2.9289,-2.9266,-2.9236,-2.9356,-2.9444,-2.9185,-2.924,-2.9351,-2.9146,-2.8873,-2.8669,-2.8669,-2.8367,-2.8061,-2.8061,-2.7987,-2.7777,-2.7346,-2.6998,-2.6677,-2.6168,-2.5722,-2.5348,-2.5065,-2.3735,-2.2456,-2.1536,-2.1254,-2.0775,-1.9809,-1.9165,-1.8554,-1.7957,-1.7902,-1.7902,-1.7902,-1.7686,-1.7529,-1.7529,-1.7136,-1.685,-1.6761,-1.6454,-1.6042,-1.5567,-1.5434,-1.5085,-1.4581,-1.4581,-1.4512,0.0,0.0,-3.8527,-4.0981,-4.3566,-4.571,-4.6586,-4.7432,-4.7808,-4.7038,-4.6904,-4.6301,-4.4362,-4.4664,-4.4868,-4.3739,-4.4753,-4.5364,-4.4552,-4.3565,-4.289,-4.2835,-4.1441,-4.0791,0.0,-4.2426,-4.2872,-4.2872,-4.3578,-4.4023,-4.4079,-4.4008,-4.3812,-4.346,-4.3388,-4.3195,-4.2791,-4.2012,-4.1463,-4.1112,-3.9502,-3.8949,-3.9301,-3.8441,-3.7672,-3.7007,-3.7007,-3.7007,-3.7007,-3.7007,-3.6111,-3.4793,-3.5494,-3.437,-3.2512,-3.344,-3.23,-3.0293,-3.0272,-3.0054,-2.9772,-2.9772,-2.9772,-2.9728,-2.956,-2.995,-3.0257,-2.9357,-2.9627,-3.0014,-2.9288,-2.9075,-2.9075,-2.9075,-2.8764,-2.8487,-2.8487,-2.8183,-2.7898,-2.7883,-2.7843,-2.7843,-2.7828,-2.7813,-2.7469,-2.6485,-2.5575,-2.4457,-2.2933,-2.1441,-2.0315,-1.9768,-1.9165,-1.8554,-1.7957,-1.7902,-1.7902,-1.7902,-1.7882,-1.7882,-1.7882,-1.7862,-1.7706,-1.7372,-1.711,-1.674,-1.6269,-1.6064,-1.5657,-1.5085,-1.5085,-1.4834,-3.6511,0.0,-4.1871,-4.3885,-4.5823,-4.7644,-4.9086,-4.9183,-4.8721,-4.7875,-4.5932,-4.4002,-4.2741,-4.1831,-4.1462,-4.2025,-4.3916,-4.5178,-4.4726,-4.4701,-4.4106,-4.2459,-4.1642,0.0,0.0,0.0,0.0,-4.276,-4.3039,-4.3448,-4.3968,-4.4005,-4.3939,-4.3793,-4.3793,-4.3352,-4.2409,-4.2118,-4.1541,-4.0616,-3.9313,-3.8482,-3.8082,-3.76,-3.7235,-3.7007,-3.7007,-3.7007,-3.7007,-3.7007,-3.6373,-3.546,-3.5704,-3.4704,-3.3178,-3.3505,-3.3012,-3.2085,-3.1553,-3.0967,-3.0501,-3.0762,-3.086,-3.0915,-3.1089,-3.0881,-3.0501,-3.0185,-3.0156,-3.0141,-2.988,-3.0164,-3.0488,-3.0488,-3.0391,-3.0302,-3.0302,-2.9844,-2.9443,-2.9443,-2.8812,-2.8295,-2.8295,-2.8085,-2.7588,-2.6671,-2.4971,-2.322,-2.1726,-2.0926,-2.0139,-1.9206,-1.8907,-1.8554,-1.7957,-1.7902,-1.7902,-1.7902,-1.7902,-1.7902,-1.7902,-1.7902,-1.7862,-1.7727,-1.7563,-1.7227,-1.6761,-1.6561,-1.6207,-1.5714,-1.5601,-1.549,-3.9412,-4.2398,-4.5301,-4.6703,-4.8738,-5.0442,-5.0654,-5.0029,-4.8817,-4.674,-4.4355,-4.2008,-3.9923,-3.8911,-3.8777,-3.9998,-4.1734,-4.3323,-4.4334,-4.4222,-4.3766,-4.2991,-4.1958,-4.1194,0.0,0.0,0.0,-4.2742,-4.3076,-4.3448,-4.3968,-4.4005,-4.4005,-4.4005,-4.4005,-4.3487,-4.2412,-4.2152,-4.1289,-3.9826,-3.8923,-3.8241,-3.7773,-3.7431,-3.7261,-3.7206,-3.7145,-3.7066,-3.7007,-3.7007,-3.6531,-3.5827,-3.6127,-3.5302,-3.3985,-3.4565,-3.4296,-3.3496,-3.2303,-3.189,-3.1817,-3.1524,-3.1813,-3.2238,-3.215,-3.1958,-3.169,-3.1246,-3.1134,-3.1006,-3.0655,-3.0875,-3.1198,-3.1198,-3.1198,-3.1198,-3.1198,-3.067,-3.0204,-3.0204,-2.9407,-2.8716,-2.8716,-2.8391,-2.7856,-2.7081,-2.5283,-2.3412,-2.178,-2.1088,-2.0306,-1.914,-1.8954,-1.8666,-1.8057,-1.7942,-1.7902,-1.7902,-1.7902,-1.7902,-1.7902,-1.7902,-1.7902,-1.7902,-1.7821,-1.7604,-1.7248,-1.7123,-1.6786,-1.625,-1.6173,-1.6008,-4.2786,-4.5958,-4.8748,-4.9505,-5.2011,-5.3658,-5.1203,-4.9788,-4.7875,-4.3797,-4.2104,-4.0115,0.0,0.0,-3.6834,-3.7834,-3.8588,-4.0225,-4.3587,-4.2552,-4.2233,0.0,0.0,0.0,0.0,0.0,0.0,-4.2831,0.0,-4.3949,-4.402,-4.402,-4.402,-4.402,-4.402,-4.363,-4.2813,-4.2035,-4.0717,-3.8888,-3.838,-3.8198,-3.8307,-3.7981,-3.7756,-3.7614,-3.743,-3.7203,-3.7048,-3.7009,-3.6568,-3.5952,-3.6708,-3.6076,-3.4916,-3.641,-3.6023,-3.4493,-3.2664,-3.2852,-3.3668,-3.2173,-3.2703,-3.3761,-3.2771,-3.3165,-3.3688,-3.2551,-3.2497,-3.2544,-3.1602,-3.1385,-3.1401,-3.1345,-3.132,-3.1279,-3.1223,-3.067,-3.0204,-3.0204,-2.9611,-2.9098,-2.9098,-2.8764,-2.8357,-2.7751,-2.652,-2.4961,-2.3094,-2.1902,-2.0751,-1.9578,-1.9287,-1.8927,-1.8319,-1.8111,-1.8011,-1.7957,-1.7957,-1.7929,-1.7902,-1.7902,-1.7902,-1.7902,-1.7902,-1.7842,-1.7699,-1.7699,-1.7378,-1.6765,-1.6731,-1.642,-4.6348,-4.9501,-5.2149,-5.2297,-5.2037,-5.1393,-5.0038,-4.6651,-4.3319,-4.1535,-3.7969,-3.4834,0.0,0.0,0.0,-3.7614,-3.9807,0.0,-4.5736,-4.6138,0.0,-4.6064,0.0,-4.4499,-4.3816,-4.376,0.0,0.0,-4.3427,-4.3495,-4.4188,-4.4222,-4.4222,-4.4222,-4.4222,-4.3797,-4.2972,-4.1572,-4.0626,-4.0142,-3.9117,-3.864,-3.8666,-3.8326,-3.8145,-3.8112,-3.786,-3.7721,-3.765,-3.7337,-3.7097,-3.6919,-3.6978,-3.6391,-3.5583,-3.5969,-3.5864,-3.5371,-3.4351,-3.4556,-3.5174,-3.454,-3.4996,-3.5714,-3.5143,-3.4682,-3.4273,-3.3967,-3.3807,-3.368,-3.3429,-3.3737,-3.3907,-3.3092,-3.2804,-3.2458,-3.1678,-3.0815,-3.0204,-3.0204,-2.9611,-2.9098,-2.9098,-2.9006,-2.8896,-2.8746,-2.7324,-2.5596,-2.3708,-2.2201,-2.0977,-2.0235,-2.0109,-1.982,-1.9218,-1.9578,-1.9461,-1.8623,-1.8568,-1.8364,-1.7916,-1.7902,-1.7902,-1.7902,-1.7902,-1.7882,-1.7842,-1.774,-1.7618,-1.744,-1.7344,-1.7214,-4.9453,-5.2034,-5.3844,-5.2986,-5.2063,-5.0741,-4.8354,-4.477,-4.104,-3.79,-3.4973,0.0,0.0,0.0,0.0,0.0,0.0,0.0,-4.4234,-4.5977,-4.681,0.0,-4.6437,0.0,-4.4789,-4.4599,-4.4498,0.0,-4.3818,-4.3707,-4.4266,-4.43,-4.43,-4.43,-4.43,-4.3922,-4.3091,-4.1436,-4.0627,-4.068,-3.9574,-3.9082,-3.9137,-3.8803,-3.8621,-3.8557,-3.8307,-3.8097,-3.7876,-3.7667,-3.7718,-3.7943,-3.7831,-3.772,-3.7596,-3.7242,-3.7061,-3.6877,-3.6102,-3.6274,-3.6615,-3.5407,-3.5804,-3.66,-3.6032,-3.5631,-3.5352,-3.5228,-3.4955,-3.4695,-3.4566,-3.4806,-3.4961,-3.4346,-3.3869,-3.3376,-3.2718,-3.1498,-3.0384,-2.9816,-2.9367,-2.9098,-2.9098,-2.9098,-2.9098,-2.9098,-2.8032,-2.6714,-2.5382,-2.3354,-2.168,-2.0756,-2.0848,-2.07,-2.0089,-2.0567,-2.0471,-1.9484,-1.9251,-1.8858,-1.8183,-1.7989,-1.7902,-1.7902,-1.7902,-1.7902,-1.7902,-1.7821,-1.776,-1.7699,-1.7625,-1.755,-5.1906,-5.3718,-5.4479,-5.2752,-5.197,-5.0546,-4.6422,-4.3169,-3.95,-3.4192,0.0,-3.1564,-2.8763,-2.8874,-3.0239,-3.2902,0.0,-3.7283,-4.1656,-4.4241,-4.5987,-4.6752,-4.682,-4.6377,-4.5246,-4.4856,-4.4726,-4.4751,-4.4467,-4.431,-4.4329,-4.4329,-4.4329,-4.4329,-4.4329,-4.4021,-4.3386,-4.1776,-4.0961,-4.0947,-4.0137,-3.9757,-3.9746,-3.9464,-3.9314,-3.93,-3.8977,-3.8672,-3.8405,-3.8355,-3.8599,-3.9046,-3.9027,-3.9419,-3.9917,-3.922,-3.8766,-3.8452,-3.7848,-3.7821,-3.7699,-3.5655,-3.5988,-3.7007,-3.6197,-3.6247,-3.6506,-3.6284,-3.5955,-3.5654,-3.5521,-3.5509,-3.5453,-3.5323,-3.4701,-3.4041,-3.3673,-3.2177,-3.0561,-2.9416,-2.9167,-2.9144,-2.9144,-2.9121,-2.9098,-2.9098,-2.8537,-2.7889,-2.732,-2.4973,-2.2871,-2.1525,-2.1835,-2.1825,-2.1065,-2.147,-2.1357,-2.0421,-2.0004,-1.9444,-1.8625,-1.8254,-1.8049,-1.8049,-1.8023,-1.7983,-1.7983,-1.7922,-1.7842,-1.772,-1.772,-1.7666,-5.2879,-5.4255,-5.4733,-5.3685,-5.1293,-4.8258,-4.4633,-3.9656,0.0,0.0,0.0,-2.9133,-2.9988,-3.0206,0.0,-3.461,0.0,0.0,0.0,0.0,-4.6337,0.0,0.0,0.0,0.0,0.0,0.0,0.0,-4.4973,-4.4801,-4.4468,-4.4473,-4.4473,-4.4473,-4.4473,-4.4398,-4.428,-4.3323,-4.2479,-4.1798,-4.1622,-4.1203,-4.0591,-4.0521,-4.087,-4.1405,-4.0491,0.0,-4.1,-4.0604,-4.0402,-4.0274,-4.0167,-4.0074,-3.9971,-3.9846,-3.9362,-3.8825,-3.9342,-3.8715,-3.7571,-3.6842,-3.718,-3.7777,-3.7025,-3.6862,-3.6891,-3.6851,-3.6794,-3.6873,-3.7443,-3.7579,-3.736,-3.6467,-3.5521,-3.4404,-3.2886,-3.1445,-3.0287,-2.9782,-2.9544,-2.9425,-2.9425,-2.9259,-2.9098,-2.9098,-2.8537,-2.8047,-2.7936,-2.6493,-2.4932,-2.355,-2.4021,-2.3935,-2.2716,-2.3234,-2.2913,-2.1217,-2.0947,-2.0302,-1.912,-1.8955,-1.8893,-1.8893,-1.8572,-1.8397,-1.8397,-1.8069,-1.7882,-1.7862,-1.7862,-1.7862,-5.3847,-5.4807,-5.4775,-5.3412,-4.9484,-4.5165,-4.2156,0.0,0.0,0.0,-2.9635,-2.8882,-2.9236,0.0,0.0,0.0,0.0,0.0,0.0,0.0,0.0,0.0,0.0,0.0,0.0,0.0,0.0,0.0,-4.5213,-4.5015,-4.4681,-4.4565,-4.4501,-4.4501,-4.4501,-4.4501,-4.4501,-4.3707,-4.3088,-4.2675,-4.2211,-4.1798,-4.1423,-4.1423,-4.1629,-4.1972,-4.1461,-4.1409,-4.1688,-4.1456,-4.1449,-4.1574,-4.1525,-4.168,-4.1868,-4.1449,-4.0996,-4.049,-4.0055,-3.9517,-3.8959,-3.831,-3.7904,-3.7619,-3.7249,-3.7085,-3.7007,-3.7007,-3.7007,-3.7077,-3.7426,-3.7812,-3.7877,-3.6966,-3.5727,-3.4229,-3.2344,-3.1379,-3.0771,-3.0398,-3.0246,-3.0182,-3.0128,-2.9995,-2.9815,-2.9556,-2.8912,-2.8259,-2.7664,-2.6988,-2.604,-2.4618,-2.4796,-2.4587,-2.3573,-2.3783,-2.3451,-2.2164,-2.145,-2.0647,-1.9606,-1.9321,-1.9349,-1.9661,-1.9137,-1.9023,-1.9328,-1.88,-1.8528,-1.8509,-1.8313,-1.8214,-5.3483,-5.4394,-5.4191,-5.2213,-4.7453,-4.2546,-3.9811,-3.5389,0.0,0.0,-2.8873,-2.8991,-2.8257,0.0,0.0,0.0,0.0,0.0,0.0,0.0,0.0,0.0,0.0,0.0,0.0,0.0,0.0,0.0,-4.5371,-4.5161,-4.4896,-4.4681,-4.456,-4.456,-4.4524,-4.4501,-4.4501,-4.3876,-4.3388,-4.3013,-4.268,-4.2342,-4.2004,-4.2192,-4.2361,-4.253,-4.2342,-4.2299,-4.2296,-4.2296,-4.2504,-4.2847,-4.2847,-4.3188,-4.3621,-4.2991,-4.2558,-4.211,-4.1009,-4.0613,-4.0506,-4.0,-3.8834,-3.7602,-3.7581,-3.7342,-3.7101,-3.72,-3.713,-3.7077,-3.7411,-3.7795,-3.7918,-3.7183,-3.5859,-3.4237,-3.2336,-3.1962,-3.179,-3.1075,-3.1043,-3.1053,-3.0811,-3.071,-3.0506,-3.0112,-2.9417,-2.861,-2.7694,-2.7311,-2.6648,-2.5457,-2.5267,-2.4859,-2.3967,-2.403,-2.3696,-2.2663,-2.1887,-2.1052,-2.0102,-1.974,-1.9856,-2.0504,-1.9734,-1.9719,-2.0485,-1.9705,-1.94,-1.9527,-1.9075,-1.8834,-5.0175,-5.1777,-5.2324,-4.9843,-4.5838,-4.164,-3.8281,0.0,0.0,-2.9687,-2.8862,-2.8283,-2.8215,-2.7544,-2.7576,0.0,0.0,-3.1107,0.0,0.0,0.0,0.0,0.0,0.0,0.0,0.0,0.0,0.0,-4.5594,-4.5381,-4.5161,-4.4896,-4.477,-4.477,-4.4613,-4.4501,-4.4501,-4.4426,-4.3618,-4.2136,-4.3581,-4.3468,-4.2023,-4.2825,-4.3576,-4.4219,-4.3501,-4.3581,0.0,-4.4229,-4.4138,-4.3949,-4.3949,-4.3865,-4.3695,-4.3621,-4.3104,-4.2551,-4.3144,-4.2405,-4.132,-4.1968,-4.0577,-3.8627,-3.8454,-3.7881,-3.7362,-3.7853,-3.7514,-3.7323,-3.8725,-3.8602,-3.7918,-3.7183,-3.632,-3.519,-3.3354,-3.3488,-3.3444,-3.176,-3.182,-3.1938,-3.1185,-3.0908,-3.0727,-3.0563,-2.9908,-2.935,-2.9127,-2.7987,-2.7014,-2.65,-2.6122,-2.5361,-2.4014,-2.4507,-2.4068,-2.2106,-2.2393,-2.2041,-2.0674,-2.0477,-2.0736,-2.1452,-2.0388,-2.0461,-2.1732,-2.0621,-2.0372,-2.0895,-2.0253,-1.9957,-4.7887,-4.986,-5.0641,-4.861,-4.408,-3.947,-3.7068,0.0,-2.9082,-2.8203,-2.7734,-2.7476,-2.7429,-2.6734,-2.6711,-2.8345,-2.7768,0.0,0.0,0.0,0.0,0.0,0.0,0.0,0.0,0.0,0.0,0.0,-4.5794,-4.5718,-4.563,-4.5246,-4.5041,-4.5041,-4.4969,-4.4838,-4.4675,-4.4694,-4.4282,-4.3506,-4.4182,-4.39,-4.2806,-4.3651,-4.3933,-4.3782,-4.3951,-4.4214,0.0,-4.4501,-4.444,-4.4335,-4.4335,-4.4277,-4.4114,-4.3629,-4.3569,-4.3606,-4.292,-4.2813,-4.2857,-4.2173,-4.1549,-4.0808,-3.9637,-3.8648,-3.7967,-3.8168,-3.781,-3.75,-3.8121,-3.7874,-3.7356,-3.7077,-3.6391,-3.5475,-3.4312,-3.3909,-3.3576,-3.2838,-3.2521,-3.2257,-3.1927,-3.1748,-3.1545,-3.1261,-3.0537,-2.976,-2.8984,-2.8015,-2.7143,-2.6548,-2.5997,-2.5384,-2.4641,-2.4052,-2.3388,-2.255,-2.193,-2.1533,-2.1422,-2.1373,-2.1839,-2.2901,-2.2066,-2.2062,-2.2925,-2.2022,-2.1705,-2.1925,-2.1341,-2.105,-4.4524,-4.6731,-4.7804,-4.6107,-4.1713,-3.7318,0.0,0.0,-2.8045,-2.7186,-2.6992,-2.6914,-2.6599,-2.6089,-2.6064,-2.7212,-2.6404,-2.6619,0.0,0.0,0.0,0.0,0.0,0.0,0.0,0.0,0.0,-4.5905,-4.5911,-4.5795,-4.5556,-4.5224,-4.5016,-4.494,-4.489,-4.4633,-4.4178,-4.4171,-4.3995,-4.3624,-4.3806,-4.3624,-4.3127,-4.3892,-4.3922,-4.3433,-4.4261,-4.4355,0.0,-4.4377,-4.4419,-4.4199,-4.4402,-4.435,-4.412,-4.3782,-4.3857,-4.4013,-4.3074,-4.339,-4.4027,-4.2837,-4.2586,-4.2451,-4.0922,-3.9645,-3.8791,-3.8964,-3.8571,-3.8043,-3.7826,-3.7469,-3.7147,-3.7147,-3.6645,-3.5952,-3.5197,-3.4776,-3.4337,-3.3617,-3.3266,-3.2932,-3.2476,-3.2319,-3.2144,-3.184,-3.092,-2.9952,-2.9065,-2.8098,-2.725,-2.6607,-2.5976,-2.5352,-2.4788,-2.3921,-2.3112,-2.2471,-2.1795,-2.1553,-2.1869,-2.2074,-2.2702,-2.3809,-2.3167,-2.3189,-2.3951,-2.3222,-2.2947,-2.3092,-2.2511,-2.2149,-3.9499,-4.1824,-4.3347,-4.1596,-3.8589,-3.5347,0.0,0.0,-2.8043,-2.7184,-2.7009,-2.6735,-2.5876,-2.572,-2.5702,-2.572,-2.5716,0.0,0.0,0.0,0.0,0.0,0.0,0.0,0.0,0.0,0.0,-4.5911,-4.5911,0.0,-4.4742,-4.4717,-4.4582,-4.4314,-4.4113,-4.3599,-4.2728,-4.2728,-4.2315,-4.153,-4.219,-4.2548,-4.2635,-4.3297,-4.3594,-4.3651,-4.4523,-4.3954,0.0,-4.4071,-4.4189,-4.3466,-4.4199,-4.4008,-4.3407,-4.4214,-4.3989,-4.3426,-4.4214,-4.4482,-4.4482,-4.4482,-4.3938,-4.3144,-4.2248,-4.095,-3.9903,-4.051,-3.9994,-3.9109,-3.838,-3.7843,-3.7505,-3.7505,-3.7243,-3.6779,-3.595,-3.6408,-3.6287,-3.395,-3.4144,-3.4179,-3.2651,-3.2406,-3.2354,-3.2214,-3.0886,-2.9892,-2.981,-2.8437,-2.7355,-2.6937,-2.6241,-2.5335,-2.4212,-2.4394,-2.3648,-2.1455,-2.2297,-2.2548,-2.1818,-2.2501,-2.3196,-2.3888,-2.3243,-2.3519,-2.4786,-2.4116,-2.403,-2.4467,-2.3785,-2.3167,-3.4926,-3.6813,-3.8037,-3.693,-3.4909,-3.2684,-3.0691,-2.8702,-2.7034,-2.6217,-2.6031,-2.5979,-2.5734,-2.5698,-2.5895,-2.6482,-2.6581,0.0,0.0,0.0,0.0,0.0,0.0,0.0,0.0,0.0,0.0,-4.5975,-4.5975,-4.562,-4.4805,-4.4766,-4.443,-4.3711,-4.3626,-4.3392,-4.2989,-4.2959,-4.2755,-4.2315,-4.2537,-4.268,-4.2757,-4.354,-4.3567,-4.3138,-4.4454,-4.4064,-4.2547,-4.3538,-4.3459,-4.2735,-4.2963,-4.3253,-4.3473,-4.3076,-4.3484,-4.4199,-4.3823,-4.3688,-4.3688,-4.3688,-4.3501,-4.3144,-4.2267,-4.1678,-4.1171,-4.0547,-3.9725,-3.8915,-3.8396,-3.8145,-3.7995,-3.7825,-3.7685,-3.747,-3.6941,-3.6583,-3.6122,-3.5251,-3.4424,-3.3722,-3.3231,-3.2739,-3.2195,-3.1617,-3.1109,-3.0408,-2.9325,-2.8765,-2.8209,-2.7526,-2.725,-2.6714,-2.5749,-2.4763,-2.4133,-2.3967,-2.3769,-2.3767,-2.4045,-2.4011,-2.4319,-2.4976,-2.4551,-2.4523,-2.4926,-2.4642,-2.4483,-2.4498,-2.4281,-2.4035,0.0,-3.2782,-3.3634,-3.2811,-3.174,-3.039,-2.8398,-2.7332,-2.6565,-2.5736,-2.5586,-2.5606,-2.5658,-2.5671,-2.5871,-2.6415,-2.6515,0.0,0.0,0.0,0.0,0.0,0.0,0.0,0.0,0.0,-4.6118,-4.6046,-4.6041,-4.5536,-4.4365,-4.4307,-4.3747,-4.2502,-4.2773,-4.2728,-4.2273,-4.2267,-4.2188,-4.2009,-4.2002,-4.2167,-4.2502,-4.2983,-4.2919,-4.2524,-4.3809,-4.3379,0.0,-4.325,-4.3137,-4.211,-4.2704,-4.2819,-4.2617,-4.2303,-4.2681,-4.3215,-4.2577,-4.2355,-4.2299,-4.1999,-4.168,-4.1436,-4.1529,-4.176,-4.1721,-4.0346,-3.9793,-3.9449,-3.891,-3.8606,-3.8452,-3.8275,-3.8145,-3.798,-3.7739,-3.7291,-3.6808,-3.6363,-3.5438,-3.4551,-3.393,-3.3402,-3.2663,-3.1502,-3.1063,-3.0397,-2.907,-2.8649,-2.8263,-2.7754,-2.7455,-2.7193,-2.6903,-2.5572,-2.482,-2.4974,-2.4645,-2.4647,-2.5078,-2.4958,-2.5065,-2.5486,-2.5288,-2.5127,-2.5005,-2.4862,-2.4742,-2.462,-2.4539,-2.4457,0.0,-2.9606,0.0,0.0,-2.9013,-2.8388,-2.601,-2.6094,0.0,-2.5647,-2.5537,-2.5611,-2.5677,-2.5687,-2.5763,-2.5941,0.0,0.0,0.0,0.0,0.0,0.0,0.0,0.0,0.0,0.0,-4.6152,-4.6014,-4.6004,-4.5251,-4.3506,-4.3413,-4.2636,-4.0946,-4.1626,-4.1655,-4.0907,-4.0893,-4.0907,-4.0907,-4.0846,-4.1232,-4.202,-4.1943,-4.1914,0.0,-4.276,-4.217,-4.0788,-4.3099,-4.3009,-4.1579,-4.3013,-4.2584,-4.1233,-4.1921,-4.1685,-4.1012,-4.0891,-4.0754,-4.0516,-3.9764,-3.8969,-3.8601,-4.0171,-4.1154,-4.1441,-4.0078,-4.014,-4.0444,-3.9695,-3.9183,-3.8865,-3.8888,-3.8628,-3.8373,-3.8396,-3.8362,-3.8104,-3.7335,-3.6983,-3.6333,-3.4777,-3.4303,-3.3541,-3.1813,-3.0929,-3.0072,-2.9107,-2.8305,-2.7798,-2.7745,-2.7101,-2.6964,-2.7631,-2.6685,-2.5689,-2.4872,-2.5173,-2.533,-2.5263,-2.5473,-2.5596,-2.5596,-2.5559,-2.5387,-2.5084,-2.4946,-2.4882,-2.4842,-2.4645,-2.4539,-2.5981,0.0,-2.6434,-2.6275,-2.6201,-2.601,0.0,-2.5428,-2.5529,-2.5382,0.0,0.0,-2.6452,-2.6065,0.0,0.0,0.0,0.0,0.0,0.0,0.0,0.0,0.0,0.0,0.0,0.0,-4.591,-4.523,-4.5133,-4.4377,-4.2661,-4.2523,-4.2015,-4.0927,-4.0499,-4.0475,-4.0898,-4.0903,-4.0907,-4.0907,-4.0888,-4.1325,-4.214,-4.2144,-4.2133,-4.2167,-4.2937,-4.2306,-4.0835,-4.1965,-4.1809,-4.0843,-4.1212,-4.1508,-4.1709,-4.1778,-4.1675,-4.1446,-4.1312,-4.0383,-3.9224,-3.8926,-3.8591,-3.8387,-3.8884,-3.9093,-3.9358,-4.0253,-4.0196,-3.9808,-3.9621,-3.9483,-3.9511,-3.9928,-3.9496,-3.9075,-3.9381,-3.8954,-3.8428,-3.8068,-3.7473,-3.6713,-3.5718,-3.4996,-3.3989,-3.2363,-3.1908,-3.1237,-2.985,-2.9281,-2.876,-2.8077,-2.767,-2.7508,-2.7683,-2.69,-2.6536,-2.6874,-2.6928,-2.6954,-2.6938,-2.6656,-2.6488,-2.6488,-2.6141,-2.5908,-2.5852,-2.5815,-2.5612,-2.525,-2.5211,-2.4974,-2.5025,-2.5106,-2.5113,-2.4749,-2.4921,-2.51,-2.4692,0.0,0.0,0.0,0.0,0.0,0.0,0.0,0.0,0.0,0.0,0.0,0.0,0.0,0.0,0.0,0.0,0.0,0.0,-4.4832,-4.5231,-4.437,-4.4279,-4.3675,-4.2378,-4.2269,-4.1662,-4.0396,-3.9929,-3.9917,-4.0344,-4.0344,-4.0344,-4.0344,-4.0713,-4.114,-4.1607,-4.1607,-4.1607,-4.1626,-4.2022,-4.1671,-4.0915,-4.1716,-4.1519,-4.072,-4.1094,-4.1273,-4.1287,-4.1147,-4.083,-4.0383,-3.9879,-3.8576,-3.7149,-3.707,-3.6977,-3.6975,-3.7442,-3.7783,-3.8252,-3.9349,-3.9333,-3.9007,-3.9007,-3.8725,-3.8626,-3.9269,-3.91,-3.8968,-3.9561,-3.9384,-3.9041,-3.8919,-3.8449,-3.7694,-3.6533,-3.5841,-3.4798,-3.2732,-3.2418,-3.1793,-3.0122,-2.9738,-2.9304,-2.8427,-2.821,-2.8102,-2.8075,-2.7673,-2.7472,-2.7582,-2.7572,-2.7526,-2.7496,-2.7053,-2.6791,-2.6758,-2.6315,-2.6192,-2.6367,-2.6192,-2.5979,-2.5723,-2.5687,-2.5519,-2.4797,-2.4846,-2.4801,-2.4184,-2.4626,-2.4985,-2.4258,0.0,0.0,0.0,0.0,0.0,0.0,0.0,0.0,0.0,0.0,0.0,0.0,0.0,0.0,0.0,0.0,0.0,-4.3322,-4.4161,-4.4358,-4.3471,-4.3415,-4.3027,-4.2151,-4.1989,-4.1225,-3.9741,-3.9449,-3.9297,-3.9303,-3.9438,-3.9565,-3.9701,-4.0388,-4.0713,-4.0713,-4.0713,-4.0635,-4.0519,-4.0519,0.0,-4.0771,-4.151,-4.1412,-4.0876,-4.1579,-4.1357,-4.0636,-4.0516,-3.9844,-3.884,-3.7766,-3.6449,-3.5252,-3.5244,-3.523,-3.5342,-3.6102,-3.68,-3.7428,-3.7894,-3.8188,-3.8334,-3.8167,-3.7629,-3.7336,-3.8281,-3.83,-3.8394,-3.9383,-3.9495,-3.9401,-3.9401,-3.9213,-3.8617,-3.7262,-3.6625,-3.5592,-3.3431,-3.2982,-3.2287,-3.062,-3.0265,-2.9838,-2.8949,-2.87,-2.8591,-2.8529,-2.8516,-2.8285,-2.7774,-2.7704,-2.763,-2.7526,-2.7133,-2.6891,-2.6825,-2.6487,-2.647,-2.6808,-2.6453,-2.6245,-2.6192,-2.6122,-2.6134,-2.4546,-2.417,-2.3908,-2.4503,-2.4886,-2.5093,-2.5013,0.0,0.0,0.0,0.0,0.0,0.0,0.0,0.0,0.0,0.0,0.0,0.0,0.0,0.0,0.0,0.0,-4.3127,-4.1642,-4.2951,-4.3522,-4.2653,-4.2523,-4.2125,-4.1248,-4.0505,-3.9989,-3.9716,-3.827,-3.7505,-3.7497,-3.8221,-3.8965,-3.9701,-3.9831,-3.9873,-3.9873,-3.9873,-3.9489,-3.8775,0.0,-3.9198,-3.9893,-4.0033,-4.0393,-4.0908,-4.1024,-4.098,-4.0854,-4.0824,-3.983,-3.8268,-3.6582,-3.5761,-3.5443,-3.5457,-3.5334,-3.5261,-3.5491,-3.5585,-3.5749,-3.6561,-3.768,-3.8433,-3.7591,-3.7235,-3.7486,-3.9026,-3.8331,-3.7711,-3.9251,-3.9014,-3.8507,-3.8507,-3.8483,-3.8364,-3.8102,-3.6897,-3.5843,-3.5439,-3.4731,-3.3863,-3.2899,-3.1941,-3.1008,-3.0137,-2.9222,-2.8664,-2.8591,-2.8578,-2.8516,-2.8376,-2.8156,-2.7883,-2.7602,-2.7526,-2.7465,-2.7371,-2.7263,-2.7233,-2.7297,-2.7169,-2.6941,-2.6607,-2.6607,-2.6737,-2.4198,-2.4219,-2.4197,-2.442,-2.445,-2.4536,-2.5031,-2.5144,0.0,0.0,0.0,0.0,0.0,0.0,0.0,0.0,0.0,0.0,0.0,0.0,0.0,0.0,0.0,-4.1972,-4.119,-4.2223,-4.2599,-4.1769,-4.1224,-4.0769,-4.0364,-3.9538,-3.8842,-3.8353,-3.7572,-3.6947,-3.6517,-3.6873,-3.748,-3.83,-3.8766,-3.9006,-3.9006,-3.9003,-3.878,-3.839,-3.84,-3.8642,-3.9046,-3.9002,-3.9211,-3.9539,-3.9557,-3.9548,-3.9489,-3.9023,-3.8363,-3.7504,-3.6206,-3.5713,-3.5655,-3.5659,-3.5604,-3.5546,-3.5593,-3.5897,-3.6192,-3.6093,-3.6435,-3.6818,-3.6814,-3.6454,-3.6378,-3.7593,-3.7288,-3.704,-3.8262,-3.8565,-3.8614,-3.8614,-3.8926,-3.8886,-3.7961,-3.7096,-3.6235,-3.5334,-3.4824,-3.4269,-3.3462,-3.2494,-3.1539,-3.0668,-2.9744,-2.9158,-2.9093,-2.9093,-2.8929,-2.8511,-2.8371,-2.8219,-2.8037,-2.7886,-2.7771,-2.773,-2.7542,-2.7438,-2.7392,-2.7378,-2.725,-2.704,-2.7433,-2.7708,-2.3592,-2.3877,-2.4027,-2.4155,-2.4128,-2.4271,-2.506,-2.541,0.0,0.0,0.0,0.0,0.0,0.0,0.0,0.0,0.0,0.0,0.0,0.0,0.0,0.0,-4.0221,-4.0627,-4.1068,-4.1283,-4.123,-4.0836,-4.0001,-3.9496,-3.9507,-3.8668,-3.7793,-3.6915,-3.6896,-3.6506,-3.5685,-3.5814,-3.6305,-3.7126,-3.7786,-3.8095,-3.8095,-3.81,-3.7996,-3.7819,-3.7815,-3.7954,-3.8194,-3.8146,-3.8249,-3.8415,-3.8424,-3.8416,-3.8319,-3.744,-3.7106,-3.6977,-3.6122,-3.5803,-3.5795,-3.5795,-3.5795,-3.5795,-3.5795,-3.6261,-3.6641,-3.5926,-3.5548,-3.5475,-3.6082,-3.5722,-3.5453,-3.646,-3.6559,-3.6706,-3.7702,-3.8294,-3.8685,-3.8876,-3.9166,-3.9049,-3.7937,-3.7303,-3.6516,-3.5222,-3.4854,-3.4495,-3.3892,-3.3053,-3.2175,-3.128,-3.0453,-2.9852,-2.9559,-2.9502,-2.9283,-2.8772,-2.8652,-2.8572,-2.8428,-2.817,-2.7996,-2.7954,-2.7657,-2.7513,-2.7454,-2.7407,-2.736,-2.7348,-2.8074,-2.8489,-2.2584,-2.2364,-2.2271,-2.3749,-2.45,-2.504,-2.5543,-2.6381,0.0,-2.8166,0.0,0.0,0.0,0.0,0.0,0.0,0.0,0.0,0.0,0.0,0.0,-4.0684,-3.9444,-3.919,-4.0929,-3.9688,-3.9084,-3.9844,-3.9084,-3.86,-3.8581,-3.7762,-3.6885,-3.6031,-3.5992,-3.5582,-3.4706,-3.5507,-3.6347,-3.7185,-3.7185,-3.7198,-3.7198,-3.7197,-3.6788,-3.6087,-3.6085,-3.6544,-3.7281,-3.7299,-3.7764,-3.8488,-3.8488,-3.8484,-3.839,-3.7517,-3.7147,-3.698,-3.6167,-3.585,-3.5795,-3.5795,-3.5795,-3.5795,-3.5795,-3.5834,-3.5872,-3.581,-3.5782,-3.5713,-3.5534,-3.5336,-3.5603,-3.7214,-3.7041,-3.6934,-3.8556,-3.8306,-3.803,-3.8843,-3.8375,-3.8055,-3.8692,-3.7545,-3.6476,-3.6294,-3.5579,-3.5034,-3.4996,-3.4268,-3.3391,-3.2377,-3.1562,-3.0672,-2.9673,-2.954,-2.9482,-2.9424,-2.913,-2.8827,-2.8516,-2.8232,-2.8088,-2.8088,-2.776,-2.7587,-2.7587,-2.7469,-2.7392,-2.7411,-2.809,-2.8765,-2.1608,-2.1743,-2.188,-2.2908,-2.3508,0.0,0.0,-2.5966,-2.7064,-2.7427,-2.8809,0.0,0.0,0.0,0.0,0.0,0.0,0.0,0.0,0.0,-3.8553,-3.8935,-3.8495,-3.8451,-3.917,-3.8641,-3.8398,-3.8729,-3.8,-3.7327,-3.6798,-3.6005,-3.5421,-3.509,-3.509,-3.5187,-3.5402,-3.5733,-3.6063,-3.6384,-3.6378,-3.6345,-3.6346,-3.6357,-3.6184,-3.5891,-3.5898,-3.6112,-3.6444,-3.6417,-3.6587,-3.6877,-3.687,-3.6882,-3.6841,-3.6512,-3.6387,-3.632,-3.6008,-3.5869,-3.5857,-3.5857,-3.5838,-3.5795,-3.5795,-3.5795,-3.5795,-3.5795,-3.5795,-3.5778,-3.5689,-3.5618,-3.5726,-3.6377,-3.625,-3.6315,-3.7494,-3.7919,-3.817,-3.8498,-3.8638,-3.8472,-3.7719,-3.6949,-3.6261,-3.572,-3.5332,-3.5106,-3.5106,-3.391,-3.2909,-3.2441,-3.1579,-3.0857,-3.0442,-3.0356,-3.0318,-3.0318,-2.9651,-2.9195,-2.9071,-2.8796,-2.867,-2.867,-2.8329,-2.8143,-2.8106,-2.8051,-2.8258,-2.8724,-2.9226,-2.9872,-2.0631,-2.0852,-2.1071,0.0,0.0,0.0,-2.4385,-2.6084,-2.7549,-2.7877,-2.9522,0.0,0.0,0.0,0.0,0.0,0.0,0.0,0.0,-3.7071,-3.7154,-3.7736,-3.7209,-3.7134,-3.7989,-3.7576,-3.7259,-3.7284,-3.6561,-3.5747,-3.4869,-3.4346,-3.3952,-3.3695,-3.3975,-3.4299,-3.463,-3.5199,-3.548,-3.548,-3.5772,-3.5908,-3.5892,-3.5897,-3.5908,-3.591,-3.5901,-3.5928,-3.5966,-3.5917,-3.5918,-3.5937,-3.5932,-3.5938,-3.5924,-3.5924,-3.5921,-3.5896,-3.5896,-3.5903,-3.5899,-3.5906,-3.5862,-3.584,-3.5822,-3.5838,-3.5834,-3.5823,-3.5838,-3.5834,-3.5818,-3.5801,-3.5948,-3.6492,-3.6599,-3.6779,-3.7657,-3.8103,-3.8331,-3.8331,-3.8476,-3.8239,-3.7079,-3.6749,-3.6334,-3.5493,-3.5318,-3.5278,-3.5278,-3.4075,-3.2926,-3.2222,-3.1731,-3.1362,-3.107,-3.1024,-3.0969,-3.0932,-3.0049,-2.9503,-2.9433,-2.9152,-2.8996,-2.8996,-2.867,-2.8478,-2.8428,-2.8402,-2.8665,-2.9179,-2.992,-3.055,-1.9678,-1.9561,0.0,0.0,0.0,0.0,-2.4775,-2.6995,-2.9135,-3.002,0.0,-3.0631,-2.9776,0.0,0.0,0.0,0.0,0.0,-3.6149,-3.5587,-3.5742,-3.7539,-3.553,-3.5037,-3.7694,-3.6395,-3.5405,-3.5467,-3.467,-3.382,-3.2938,-3.2885,-3.2513,-3.173,-3.2593,-3.2703,-3.1926,-3.3689,-3.4583,-3.4583,-3.546,-3.5889,-3.5908,-3.5908,-3.5908,-3.5908,-3.5908,-3.5892,-3.5901,-3.5901,-3.5936,-3.5991,-3.5991,-3.5991,-3.5991,-3.5991,-3.5955,-3.5898,-3.5898,-3.5897,-3.5891,-3.5892,-3.5903,-3.5898,-3.5902,-3.5892,-3.5906,-3.5892,-3.5905,-3.5875,-3.5811,-3.5799,-3.6246,-3.7959,-3.8387,-3.862,-3.9489,-3.9004,-3.8387,-3.8387,-3.7683,-3.7092,-3.7093,-3.7089,-3.6769,-3.5849,-3.5708,-3.5708,-3.5689,-3.4986,-3.3756,-3.1821,-3.2262,-3.2354,-3.1479,-3.1403,-3.1344,-3.1206,-3.0316,-2.9706,-2.9512,-2.9169,-2.8986,-2.8986,-2.8676,-2.8516,-2.8516,-2.844,-2.842,-2.8474,-2.9911,-3.061,-1.9746,-1.946,0.0,0.0,0.0,0.0,0.0,-2.5579,0.0,0.0,0.0,-3.0328,-3.0248,0.0,0.0,-3.01,-3.1279,-3.2496,-3.3482,-3.3378,-3.3406,-3.3951,-3.3386,-3.3255,-3.4044,-3.3704,-3.3433,-3.3459,-3.3318,-3.2833,-3.1962,-3.1994,-3.1948,-3.1711,-3.1965,-3.2275,-3.2609,-3.3132,-3.3407,-3.3407,-3.3762,-3.4613,-3.5908,-3.5908,-3.5908,-3.5908,-3.5908,-3.5897,-3.5907,-3.5907,-3.5908,-3.5934,-3.5934,-3.5962,-3.5991,-3.5991,-3.5992,-3.5974,-3.5974,-3.5937,-3.5898,-3.5896,-3.5892,-3.5906,-3.5901,-3.5899,-3.5899,-3.5895,-3.5893,-3.5892,-3.5885,-3.5864,-3.5984,-3.6452,-3.6576,-3.6809,-3.7683,-3.7664,-3.7489,-3.7489,-3.7275,-3.6902,-3.6291,-3.6181,-3.609,-3.5809,-3.5737,-3.5495,-3.4933,-3.4525,-3.3843,-3.2703,-3.3166,-3.3206,-3.2376,-3.2278,-3.1985,-3.1371,-3.0506,-2.9875,-2.9579,-2.9433,-2.9353,-2.9353,-2.9209,-2.9126,-2.9126,-2.9119,-2.9687,-3.0775,-3.0367,-3.1052,-1.8713,0.0,0.0,0.0,0.0,0.0,0.0,0.0,0.0,0.0,0.0,0.0,-3.0266,-3.0016,0.0,-2.9991,-3.0731,-3.1513,-3.2241,-3.2033,-3.1947,-3.236,-3.2148,-3.2108,-3.2431,-3.2495,-3.2397,-3.2074,-3.213,-3.1782,-3.0908,-3.0949,-3.0983,-3.0983,-3.1065,-3.1338,-3.1825,-3.2216,-3.2417,-3.2436,-3.2836,-3.361,-3.4707,-3.4789,-3.4824,-3.4824,-3.4824,-3.5211,-3.583,-3.5483,-3.5566,-3.587,-3.5519,-3.5403,-3.5405,-3.5073,-3.4977,-3.4977,-3.4977,-3.5157,-3.5398,-3.5404,-3.5641,-3.5898,-3.5937,-3.5937,-3.5937,-3.5917,-3.5897,-3.5896,-3.5894,-3.5894,-3.5964,-3.6255,-3.6312,-3.6468,-3.6994,-3.7127,-3.7046,-3.6696,-3.6612,-3.645,-3.5924,-3.584,-3.5833,-3.5833,-3.5804,-3.5489,-3.4656,-3.475,-3.443,-3.3231,-3.3721,-3.3927,-3.3416,-3.2731,-3.2378,-3.2495,-3.1365,-3.0737,-3.083,-3.0091,-2.9857,-3.0214,-2.9831,-2.9758,-3.0,-2.969,-2.9983,-3.0846,-3.0406,-3.0962,-1.7273,0.0,0.0,0.0,0.0,0.0,0.0,0.0,0.0,0.0,0.0,0.0,-2.9947,-3.015,-3.0309,-3.033,-3.1002,-3.1592,-3.1802,-3.1203,-3.1082,-3.2013,-3.1463,-3.1302,-3.1982,-3.2039,-3.1707,-3.092,-3.0871,-3.0522,-2.9726,-2.9688,-2.9688,-2.9688,-2.9937,-3.0035,-2.9958,-3.1006,-3.1499,-3.1441,-3.2171,-3.2568,-3.267,-3.3014,-3.3169,-3.3169,-3.3169,-3.4116,-3.5584,-3.4714,-3.4921,-3.5677,-3.4802,-3.4474,-3.4386,-3.3668,-3.3456,-3.3514,-3.3514,-3.3982,-3.4611,-3.4663,-3.5139,-3.5708,-3.5827,-3.587,-3.5872,-3.5897,-3.5898,-3.5878,-3.58,-3.578,-3.5955,-3.6618,-3.6889,-3.6965,-3.6886,-3.698,-3.6842,-3.6043,-3.5902,-3.5876,-3.5798,-3.5779,-3.5779,-3.5778,-3.5856,-3.5603,-3.4825,-3.5402,-3.5287,-3.3709,-3.4191,-3.4574,-3.4438,-3.3014,-3.2672,-3.3921,-3.2509,-3.1929,-3.2591,-3.1102,-3.0612,-3.1405,-3.0571,-3.0389,-3.0921,-3.0121,-2.9692,-2.9682,-3.027,-3.0675,0.0,-1.8231,0.0,0.0,0.0,0.0,0.0,0.0,0.0,0.0,0.0,0.0,0.0,-2.9238,-2.8899,-2.9063,-2.9245,-2.946,-2.9792,-2.9675,-2.9669,-2.9939,-2.9818,-2.9597,-2.9296,-2.9267,-2.899,-2.8351,-2.8302,-2.8207,-2.8036,-2.8017,-2.8017,-2.8017,-2.8681,-2.8723,-2.8091,-2.9547,-2.9969,-2.9341,-2.9631,-3.0092,-3.075,-3.2262,-3.2952,-3.2952,-3.2952,-3.3566,-3.4489,-3.361,-3.3805,-3.4554,-3.3739,-3.3497,-3.3559,-3.3448,-3.3807,-3.4333,-3.4333,-3.4469,-3.4606,-3.4616,-3.4306,-3.4055,-3.4705,-3.4902,-3.5041,-3.5706,-3.5903,-3.575,-3.5051,-3.4878,-3.4761,-3.4296,-3.5192,-3.597,-3.5286,-3.5696,-3.6126,-3.5931,-3.5891,-3.5675,-3.4991,-3.4873,-3.4872,-3.4887,-3.5468,-3.5836,-3.5642,-3.5776,-3.5754,-3.5376,-3.5502,-3.5318,-3.4627,-3.4228,-3.3573,-3.2539,-3.2075,-3.1907,-3.2072,-3.2103,-3.2206,-3.2397,-3.15,-3.1078,-3.1208,-3.0297,-3.0516,-3.1741,-3.1222,-3.2006,0.0,0.0,0.0,0.0,0.0,0.0,0.0,0.0,0.0,0.0,0.0,0.0,0.0,-2.7566,-2.7324,-2.7447,-2.7471,-2.7548,-2.7831,-2.7885,-2.7959,-2.8093,-2.8133,-2.8033,-2.7708,-2.768,-2.7593,-2.7363,-2.736,-2.7392,-2.7486,-2.7494,-2.7494,-2.7494,-2.7904,-2.7922,-2.7494,-2.8339,-2.854,-2.8123,-2.8191,-2.8455,-2.8919,-3.0797,-3.1877,-3.2204,-3.1819,-3.2358,-3.3461,-3.2589,-3.2771,-3.3553,-3.2715,-3.2435,-3.2488,-3.2105,-3.2248,-3.2638,-3.2638,-3.2947,-3.3358,-3.3351,-3.3329,-3.3375,-3.3754,-3.3903,-3.4013,-3.4396,-3.4529,-3.4455,-3.4008,-3.3872,-3.3677,-3.2822,-3.3689,-3.4581,-3.4113,-3.4388,-3.4701,-3.4701,-3.4702,-3.4567,-3.4099,-3.4021,-3.4178,-3.4589,-3.5039,-3.5488,-3.5898,-3.5957,-3.5937,-3.5893,-3.5559,-3.5299,-3.5224,-3.4069,-3.3498,-3.3803,-3.2645,-3.2308,-3.3114,-3.3031,-3.2968,-3.2897,-3.1622,-3.1104,-3.1386,-3.0517,-3.0468,-3.1181,-3.0734,-3.1221,0.0,0.0,0.0,0.0,0.0,0.0,0.0,0.0,0.0,0.0,0.0,0.0,0.0,-2.6008,-2.6057,-2.6057,-2.6057,-2.6105,-2.6299,-2.6385,-2.6475,-2.6665,-2.6725,-2.6727,-2.6608,-2.6589,-2.6619,-2.6684,-2.6683,-2.6768,-2.6941,-2.6957,-2.6957,-2.6957,-2.7116,-2.7123,-2.7013,-2.7297,-2.7388,-2.7285,-2.7437,-2.7418,-2.735,-2.919,-3.0393,-3.0993,-3.0469,-3.1108,-3.2469,-3.1587,-3.1775,-3.2571,-3.1686,-3.1401,-3.1367,-3.0653,-3.0525,-3.0717,-3.0717,-3.1241,-3.1953,-3.1944,-3.2302,-3.2722,-3.2822,-3.2902,-3.2942,-3.2977,-3.301,-3.3025,-3.2885,-3.2866,-3.2633,-3.1763,-3.2249,-3.2939,-3.3095,-3.3243,-3.3348,-3.3348,-3.3222,-3.3134,-3.3143,-3.3134,-3.3397,-3.4144,-3.4384,-3.4742,-3.5462,-3.556,-3.553,-3.5467,-3.4862,-3.4805,-3.5629,-3.3717,-3.3305,-3.5267,-3.3406,-3.2771,-3.4029,-3.3297,-3.2872,-3.2899,-3.1558,-3.1081,-3.1578,-3.0769,-3.0329,-3.0238,-3.0238,-3.0304,0.0,0.0,0.0,0.0,0.0,0.0,0.0,0.0,0.0,0.0,0.0,0.0,0.0,-2.5831,-2.5843,-2.5843,-2.5843,-2.5899,-2.6033,-2.6057,-2.6093,-2.6182,-2.6205,-2.5978,-2.5406,-2.5353,-2.5134,-2.4644,-2.466,-2.4687,-2.474,-2.4774,-2.481,-2.481,-2.5554,-2.5668,-2.5076,-2.6502,-2.6959,-2.6387,-2.7134,-2.7096,-2.6425,-2.8135,-2.8966,-2.9118,-2.9698,-3.0503,-3.1347,-3.0465,-3.0708,-3.1527,-3.0706,-3.0426,-3.0477,-3.0425,-3.0881,-3.1534,-3.1534,-3.1641,-3.1748,-3.1733,-3.1303,-3.0907,-3.166,-3.1892,-3.2046,-3.2717,-3.291,-3.2775,-3.2074,-3.1901,-3.1674,-3.0801,-3.069,-3.1027,-3.1844,-3.2608,-3.3136,-3.3136,-3.2535,-3.2038,-3.2087,-3.2094,-3.2183,-3.2402,-3.3099,-3.3612,-3.3729,-3.3748,-3.3734,-3.3727,-3.365,-3.3927,-3.4795,-3.454,-3.4169,-3.3741,-3.3359,-3.2907,-3.2435,-3.1535,-3.1391,-3.2133,-3.1938,-3.1818,-3.1848,-3.1038,-3.0967,-3.1545,-3.1545,-3.192,-1.6242,0.0,0.0,0.0,0.0,0.0,0.0,0.0,0.0,0.0,0.0,0.0,0.0,-2.4191,-2.4297,-2.4297,-2.442,-2.4534,-2.4587,-2.4629,-2.4676,-2.471,-2.4739,-2.4633,-2.4335,-2.4328,-2.4249,-2.4106,-2.4126,-2.4155,-2.4247,-2.4273,-2.4282,-2.4282,-2.4662,-2.4725,-2.4414,-2.5138,-2.5376,-2.5088,-2.5957,-2.592,-2.5144,-2.6818,-2.7988,-2.8741,-2.9556,-3.0124,-3.0446,-3.0067,-3.0157,-3.0516,-3.0175,-3.0056,-3.008,-3.0115,-3.04,-3.0804,-3.0804,-3.0842,-3.0916,-3.0912,-3.0664,-3.0417,-3.0757,-3.0854,-3.0925,-3.1199,-3.1295,-3.1251,-3.0899,-3.0803,-3.0708,-3.0318,-3.0222,-3.0343,-3.0765,-3.1273,-3.1632,-3.1632,-3.1337,-3.1081,-3.1101,-3.113,-3.1293,-3.1854,-3.2263,-3.2688,-3.3177,-3.3236,-3.3239,-3.3225,-3.3225,-3.3398,-3.3819,-3.3453,-3.3464,-3.4092,-3.2722,-3.2183,-3.2791,-3.1523,-3.0994,-3.1382,-3.131,-3.1256,-3.123,-3.0877,-3.0873,-3.1174,-3.1174,-3.1343,0.0,0.0,0.0,0.0,0.0,0.0,0.0,0.0,0.0,0.0,0.0,0.0,0.0,-2.2578,-2.2935,-2.2947,-2.3121,-2.3283,-2.3383,-2.3448,-2.3505,-2.3562,-2.3629,-2.3645,-2.3645,-2.3645,-2.3711,-2.3863,-2.3884,-2.3947,-2.4032,-2.4061,-2.4071,-2.4071,-2.4071,-2.4099,-2.4146,-2.4174,-2.4201,-2.4201,-2.4857,-2.4838,-2.4256,-2.5726,-2.6935,-2.7934,-2.8779,-2.9154,-2.9173,-2.9425,-2.9404,-2.9233,-2.9441,-2.9509,-2.9517,-2.9561,-2.9758,-3.0034,-3.003,-3.0116,-3.02,-3.0196,-3.0196,-3.0187,-3.014,-3.0111,-3.0106,-2.9996,-3.0014,-3.0046,-3.0046,-2.9893,-2.9734,-2.9692,-2.9521,-2.949,-2.9992,-3.0254,-3.04,-3.0406,-3.0406,-3.0416,-3.0433,-3.0458,-3.0675,-3.1365,-3.1461,-3.1691,-3.2359,-3.2441,-3.2441,-3.2449,-3.2449,-3.2551,-3.2824,-3.2283,-3.2522,-3.388,-3.2125,-3.1549,-3.2615,-3.1485,-3.0827,-3.0813,-3.0723,-3.0691,-3.0755,-3.0717,-3.0705,-3.0737,-3.0733,-3.0699,0.0,0.0,0.0,0.0,0.0,0.0,0.0,0.0,0.0,0.0,0.0,0.0,0.0,0.0,-2.2462,-2.2529,-2.2542,-2.2691,-2.3065,-2.3114,-2.3217,-2.3464,-2.3517,-2.3517,-2.3517,-2.3517,-2.3499,-2.3539,-2.3585,-2.3618,-2.3629,-2.3689,-2.3732,-2.3732,-2.3732,-2.3821,-2.4016,-2.4146,-2.4201,-2.4201,-2.4256,-2.4238,-2.4219,-2.5153,-2.5597,-2.5727,-2.673,-2.7148,-2.7213,-2.8107,-2.8028,-2.7416,-2.8169,-2.8489,-2.8498,-2.863,-2.9146,-2.9815,-2.9899,-2.9913,-2.9913,-2.9921,-2.9921,-2.9913,-2.9913,-2.9913,-2.9905,-2.9916,-2.9916,-2.9905,-2.9905,-2.9336,-2.8744,-2.8598,-2.7951,-2.7848,-2.9703,-3.0117,-3.0121,-3.0123,-3.0111,-3.0168,-3.029,-3.0314,-3.0378,-3.0545,-3.0559,-3.0583,-3.0622,-3.0641,-3.0631,-3.0638,-3.0638,-3.0961,-3.1809,-3.1833,-3.1852,-3.1938,-3.1821,-3.141,-3.0673,-3.063,-3.0618,-3.0618,-3.0607,-3.0702,-3.0896,-3.0769,-3.0739,-3.0788,-3.0782,-3.0764,0.0,0.0,0.0,0.0,0.0,0.0,0.0,0.0,0.0,0.0,0.0,0.0,0.0,0.0,-2.215,-2.2178,-2.2313,-2.2489,-2.2625,-2.2656,-2.2695,-2.2781,-2.2943,-2.3047,-2.3047,-2.3247,-2.336,-2.336,-2.3464,-2.3539,-2.3539,-2.3562,-2.3567,-2.3567,-2.3567,-2.36,-2.3678,-2.3728,-2.3753,-2.3753,-2.3753,-2.3753,-2.3753,-2.4071,-2.4227,-2.4237,-2.4681,-2.561,-2.6832,-2.7177,-2.714,-2.6916,-2.7196,-2.7614,-2.807,-2.8127,-2.8659,-2.9357,-2.9368,-2.9388,-2.9388,-2.9388,-2.9388,-2.9388,-2.9388,-2.9426,-2.9446,-2.9446,-2.9475,-2.9392,-2.8886,-2.853,-2.8296,-2.826,-2.84,-2.8605,-2.8782,-2.9365,-2.982,-2.9678,-2.9886,-3.0064,-2.9943,-3.0071,-3.0194,-3.0247,-3.0235,-3.0241,-3.0241,-3.0286,-3.0304,-3.0316,-3.0316,-3.0454,-3.0807,-3.0837,-3.111,-3.1756,-3.1276,-3.1334,-3.2141,-3.1154,-3.0832,-3.1367,-3.0827,-3.0593,-3.0713,-3.0667,-3.0642,-3.0689,-3.1255,-3.1528,0.0,0.0,0.0,0.0,0.0,0.0,0.0,0.0,0.0,0.0,0.0,0.0,0.0,0.0,0.0,-2.1711,-2.175,-2.1849,-2.2227,-2.2055,-2.2027,-2.2361,-2.256,-2.2669,-2.2669,-2.2867,-2.3035,-2.3126,-2.3211,-2.3283,-2.336,-2.3407,-2.3441,-2.3505,-2.3505,-2.3505,-2.3505,-2.3505,-2.3505,-2.3505,-2.3505,-2.3505,-2.3505,-2.3505,-2.3505,-2.3487,-2.3587,-2.4417,-2.5725,-2.6051,-2.6035,-2.5814,-2.609,-2.6532,-2.7001,-2.7042,-2.7754,-2.8665,-2.8679,-2.8875,-2.9097,-2.9097,-2.9097,-2.9097,-2.9097,-2.9137,-2.9177,-2.9177,-2.9209,-2.9111,-2.8575,-2.7978,-2.7465,-2.7159,-2.7487,-2.7704,-2.7161,-2.8174,-2.9129,-2.9016,-2.9249,-2.95,-2.9577,-2.9741,-2.9864,-2.9864,-2.9869,-2.9859,-2.9859,-2.991,-2.9926,-2.9926,-2.9942,-2.9977,-3.0035,-3.0056,-3.0348,-3.102,-3.0521,-3.0719,-3.1878,-3.0862,-3.0527,-3.108,-3.0533,-3.0296,-3.0399,-3.0506,-3.0575,-3.0616,-3.1492,-3.2088,0.0,0.0,0.0,0.0,0.0,0.0,0.0,0.0,0.0,0.0,0.0,0.0,0.0,0.0,0.0,-2.1093,-2.0783,-2.0734,-2.1773,-2.1312,-2.1238,-2.2221,-2.2364,-2.2381,-2.2381,-2.2395,-2.2506,-2.2764,-2.2777,-2.2871,-2.3065,-2.3205,-2.3336,-2.3453,-2.3464,-2.3464,-2.3464,-2.3464,-2.3482,-2.3482,-2.3482,-2.3482,-2.3482,-2.3494,-2.3494,-2.3494,-2.3494,-2.3571,-2.3775,-2.4754,-2.4689,-2.4059,-2.4835,-2.5155,-2.5202,-2.5326,-2.6395,-2.7783,-2.7854,-2.8402,-2.9064,-2.9064,-2.9064,-2.9064,-2.9064,-2.9064,-2.9082,-2.9082,-2.9082,-2.9075,-2.9019,-2.7699,-2.6169,-2.5306,-2.506,-2.5021,-2.5003,-2.6586,-2.8023,-2.8127,-2.8165,-2.8436,-2.923,-2.9352,-2.937,-2.9389,-2.9352,-2.9361,-2.9389,-2.938,-2.938,-2.9399,-2.9466,-2.9504,-2.9504,-2.9561,-2.9579,-2.9579,-2.9598,-2.9598,-2.9617,-2.9616,-2.9643,-2.9727,-2.9706,-2.9796,-2.9999,-3.0323,-3.0517,-3.0617,-3.1485,-3.2367,-1.5358,0.0,0.0,0.0,0.0,0.0,0.0,0.0,0.0,0.0,0.0,0.0,0.0,0.0,0.0,0.0,-1.9652,-1.963,-1.9923,-2.025,-2.0574,-2.0842,-2.1481,-2.1882,-2.1882,-2.2108,-2.2289,0.0,-2.2453,-2.2533,-2.2586,-2.2625,-2.2665,-2.2704,-2.2755,-2.2781,-2.2781,-2.2879,-2.2922,-2.2922,-2.2922,-2.2922,-2.2935,-2.3114,-2.3217,-2.3217,-2.3424,-2.351,-2.3567,-2.3856,-2.3842,-2.3652,-2.3878,-2.4338,-2.4841,-2.4887,-2.5889,-2.7234,-2.7241,-2.7794,-2.8453,-2.8453,-2.8453,-2.8453,-2.8453,-2.8474,-2.8525,-2.8525,-2.8563,-2.8335,-2.7169,-2.6494,-2.5924,-2.5141,-2.5395,-2.5631,-2.5054,-2.5389,-2.5976,-2.6629,-2.7498,-2.8152,-2.8228,-2.8361,-2.8657,-2.9233,-2.837,-2.8063,-2.918,-2.8857,-2.8746,-2.9343,-2.9409,-2.9418,-2.9418,-2.9428,-2.9456,-2.9456,-2.9495,-2.9804,-3.0433,-2.9964,-2.9953,-3.0565,-3.0008,-2.9731,-2.978,-3.0023,-3.0239,-3.0481,-3.1403,-3.2283,0.0,0.0,0.0,0.0,0.0,0.0,-1.4031,-1.3925,-1.3724,0.0,0.0,0.0,0.0,0.0,0.0,0.0,-1.758,-1.8354,-1.902,-1.9172,-1.9449,-2.0103,-2.0659,-2.1138,-2.1509,-2.1705,-2.1866,-2.1984,-2.2068,-2.2164,-2.23,-2.233,-2.2341,-2.2409,-2.2449,-2.2321,-2.2009,-2.2378,-2.2422,-2.2125,-2.2422,-2.2577,-2.2577,-2.2751,-2.2816,-2.2816,-2.298,-2.3042,-2.3042,-2.3042,-2.3218,-2.3505,-2.3505,-2.3732,-2.4027,-2.4027,-2.4997,-2.6322,-2.6322,-2.7152,-2.8196,-2.8196,-2.8196,-2.8196,-2.8196,-2.8136,-2.8063,-2.8063,-2.7993,-2.7607,-2.6383,-2.5787,-2.5345,-2.4622,-2.4554,-2.4543,-2.4081,-2.4005,-2.4361,-2.5456,-2.6268,-2.69,-2.735,-2.7609,-2.7901,-2.8281,-2.7665,-2.7493,-2.8393,-2.7846,-2.7793,-2.8935,-2.8783,-2.8749,-2.9089,-2.9118,-2.9158,-2.9158,-2.9191,-2.9445,-2.9938,-2.9545,-2.9558,-3.0015,-2.959,-2.9446,-2.957,-3.0103,-3.0662,-3.1197,-3.1405,-3.1781,0.0,0.0,0.0,0.0,0.0,0.0,-1.2246,-1.233,-1.2278,-1.0266,0.0,0.0,0.0,0.0,0.0,0.0,0.0,-1.7022,-1.8529,-1.8141,-1.8211,-1.9585,-1.9872,-2.0286,-2.1053,-2.1197,-2.134,-2.1602,-2.1649,-2.1781,-2.2079,-2.2093,-2.215,-2.2272,-2.2286,-2.1976,-2.1322,-2.199,-2.1973,-2.1352,-2.199,-2.23,-2.23,-2.2341,-2.2354,-2.2354,-2.2381,-2.2409,-2.2409,-2.2409,-2.2781,-2.3383,-2.3383,-2.3235,-2.3028,-2.3028,-2.3946,-2.5216,-2.5304,-2.6488,-2.7956,-2.7956,-2.8027,-2.8063,-2.7899,-2.7699,-2.7516,-2.7502,-2.7276,-2.6871,-2.6143,-2.5422,-2.4683,-2.3864,-2.3175,-2.273,-2.2786,-2.2803,-2.318,-2.4522,-2.4777,-2.5195,-2.6477,-2.6892,-2.7025,-2.6952,-2.6977,-2.7054,-2.7139,-2.6453,-2.6555,-2.809,-2.7664,-2.7568,-2.8263,-2.8427,-2.8464,-2.8464,-2.8591,-2.8646,-2.8622,-2.8694,-2.8718,-2.8694,-2.8791,-2.901,-2.941,-3.0321,-3.1204,-3.1995,-3.1273,-3.0939,0.0,0.0,0.0,0.0,0.0,0.0,-1.425,-1.4251,-1.4155,0.0,0.0,0.0,0.0,0.0,0.0,0.0,0.0,-1.6155,-1.6959,-1.7438,-1.7818,-1.8116,-1.9147,-1.9908,-2.0067,-2.0575,-2.099,-2.1198,-2.1309,-2.1402,-2.1479,-2.1479,-2.1494,-2.1508,-2.1569,-2.1517,-2.1369,-2.1625,-2.167,-2.1538,-2.1687,-2.1753,-2.1768,-2.1984,-2.2082,-2.2096,-2.2317,-2.2409,-2.2409,-2.2409,-2.2489,-2.2608,-2.2608,-2.2569,-2.2546,-2.2546,-2.3185,-2.4119,-2.4706,-2.5623,-2.6509,-2.6509,-2.6911,-2.7174,-2.5982,-2.599,-2.6402,-2.6359,-2.6203,-2.5922,-2.5229,-2.4937,-2.4505,-2.3225,-2.2803,-2.2855,-2.3384,-2.3083,-2.2959,-2.3784,-2.4069,-2.4445,-2.5292,-2.5491,-2.5743,-2.6346,-2.5378,-2.4853,-2.5606,-2.5006,-2.4908,-2.5928,-2.5901,-2.5865,-2.6025,-2.6249,-2.6397,-2.6397,-2.7242,-2.7659,-2.7435,-2.8044,-2.829,-2.8079,-2.8303,-2.8766,-2.9476,-2.9787,-3.0025,-3.0204,-3.0052,-2.9966,0.0,0.0,0.0,-1.5827,0.0,0.0,0.0,-1.3381,-1.2941,-1.2132,-1.1987,0.0,0.0,0.0,0.0,0.0,0.0,0.0,-1.5608,-1.6297,-1.6952,-1.7348,-1.8136,-1.8821,-1.926,-1.9909,-2.0495,-2.0926,-2.1006,-2.1087,-2.1183,-2.1198,-2.123,-2.1293,-2.134,-2.1193,-2.0836,-2.124,-2.1271,-2.096,-2.1287,-2.145,-2.145,-2.1586,-2.1661,-2.166,-2.1792,-2.1849,-2.1849,-2.1849,-2.1849,-2.1893,-2.2258,-2.2313,-2.2206,-2.2206,-2.2722,-2.3493,-2.3881,-2.4645,-2.5461,-2.5461,-2.5704,-2.593,-2.5515,-2.5791,-2.613,-2.5562,-2.5363,-2.5061,-2.402,-2.375,-2.3479,-2.2413,-2.2413,-2.2651,-2.2651,-2.2969,-2.3251,-2.3251,-2.3352,-2.375,-2.4697,-2.4959,-2.5135,-2.5417,-2.4912,-2.4551,-2.4646,-2.3951,-2.3929,-2.5164,-2.494,-2.4883,-2.5323,-2.5478,-2.5556,-2.5595,-2.6134,-2.6392,-2.6255,-2.7028,-2.7591,-2.7837,-2.7978,-2.8271,-2.8705,-2.8767,-2.92,-2.9932,-2.9425,-2.92,0.0,0.0,0.0,0.0,0.0,-1.487,0.0,0.0,0.0,-1.0818,0.0,0.0,0.0,0.0,0.0,0.0,0.0,0.0,0.0,-1.502,0.0,-1.6848,-1.7069,-1.7491,-1.8451,-1.9171,-1.986,-2.0516,-2.0597,-2.0696,-2.086,-2.0877,-2.0926,-2.1039,-2.1039,-2.0767,-2.0239,-2.0767,-2.0767,-2.0239,-2.0767,-2.1039,-2.1023,-2.1119,-2.1167,-2.1167,-2.1167,-2.1167,-2.1167,-2.1071,-2.1039,-2.1103,-2.189,-2.2051,-2.1868,-2.1868,-2.2278,-2.2872,-2.3023,-2.3656,-2.439,-2.439,-2.4305,-2.4305,-2.5006,-2.531,-2.5295,-2.4558,-2.4356,-2.4094,-2.2949,-2.2654,-2.249,-2.1785,-2.2015,-2.231,-2.1899,-2.2572,-2.3129,-2.2735,-2.2539,-2.2878,-2.4264,-2.4552,-2.4518,-2.4313,-2.4504,-2.4413,-2.369,-2.3023,-2.3123,-2.4438,-2.4008,-2.39,-2.4607,-2.4714,-2.4768,-2.4822,-2.5015,-2.5116,-2.5063,-2.5799,-2.6498,-2.7148,-2.7368,-2.7496,-2.7553,-2.777,-2.8523,-2.9752,-2.9075,-2.8681,0.0,0.0,0.0,0.0,-1.6347,0.0,0.0,0.0,-1.5149,-1.3938,0.0,0.0,0.0,0.0,0.0,0.0,0.0,0.0,-1.3544,-1.3822,-1.4642,-1.6287,-1.6099,-1.6263,-1.7451,-1.8333,-1.9082,-1.9692,-1.9899,-2.0022,-2.0039,-2.0039,-2.0039,-2.0056,-2.0056,-2.001,-1.9949,-2.001,-2.001,-1.9949,-2.001,-2.0056,-2.0074,-2.0497,-2.068,-2.068,-2.068,-2.068,-2.0647,-2.0229,-2.0056,-2.016,-2.1071,-2.1418,-2.1387,-2.1387,-2.1466,-2.1707,-2.2344,-2.2735,-2.2945,-2.2945,-2.25,-2.2088,-2.283,-2.2538,-2.2083,-2.2622,-2.272,-2.2638,-2.2557,-2.2525,-2.2361,-2.1753,-2.167,-2.1883,-2.244,-2.1924,-2.1488,-2.2067,-2.1418,-2.1485,-2.3687,-2.3548,-2.3131,-2.31,-2.3131,-2.2894,-2.2231,-2.2063,-2.2092,-2.2346,-2.2279,-2.2262,-2.2377,-2.2582,-2.2716,-2.2746,-2.3636,-2.4076,-2.3894,-2.4445,-2.4766,-2.4866,-2.5805,-2.6301,-2.6316,-2.7318,-2.7933,-2.818,-2.8724,-2.8621,0.0,0.0,0.0,0.0,0.0,0.0,-1.5665,0.0,-1.5089,0.0,0.0,0.0,0.0,0.0,0.0,0.0,-1.3292,0.0,0.0,0.0,-1.3448,0.0,0.0,0.0,-1.6773,-1.7533,-1.8221,-1.8903,-1.9361,-1.966,-1.9785,-1.9755,-1.9776,-1.9899,-1.9899,-1.9899,-1.9899,-1.9899,-1.9899,-1.9899,-1.9899,-1.9899,-1.9917,-2.0091,-2.0177,-2.0177,-2.0177,-2.0177,-2.0193,-1.9987,-1.9899,-1.9952,-2.0331,-2.0531,-2.0629,-2.0812,-2.0812,-2.0778,-2.1326,-2.1404,-2.1255,-2.1255,-2.1739,-2.2323,-2.2211,-2.2753,-2.3245,-2.2352,-2.2194,-2.211,-2.1361,-2.1172,-2.1093,-2.0842,-2.1096,-2.1382,-2.1271,-2.1583,-2.1831,-2.172,-2.1382,-2.1451,-2.2432,-2.2506,-2.2541,-2.2813,-2.267,-2.2312,-2.1638,-2.1386,-2.1276,-2.1308,-2.1308,-2.1401,-2.163,-2.1763,-2.1922,-2.215,-2.2423,-2.2811,-2.3391,-2.3405,-2.3742,-2.4429,-2.4888,-2.534,-2.5814,-2.6293,-2.6764,-2.721,-2.7801,-2.792,-1.701,0.0,0.0,0.0,0.0,0.0,0.0,0.0,0.0,0.0,0.0,0.0,0.0,0.0,0.0,0.0,0.0,-1.2885,0.0,0.0,0.0,0.0,0.0,0.0,0.0,-1.6585,-1.7241,-1.8103,-1.863,-1.9038,-1.9347,-1.9332,-1.9358,-1.9522,-1.9522,-1.9522,-1.9522,-1.9522,-1.9522,-1.9522,-1.9522,-1.9522,-1.9522,-1.9651,-1.9704,-1.9704,-1.9704,-1.9704,-1.9704,-1.9576,-1.9522,-1.9522,-1.9522,-1.9591,-1.9764,-2.0243,-2.0278,-2.0158,-2.0447,-2.0395,-2.0172,-2.0139,-2.1029,-2.2028,-2.1508,-2.2491,-2.3424,-2.1786,-2.1691,-2.1785,-2.0459,-2.0277,-2.0384,-2.0202,-2.0593,-2.0844,-2.0316,-2.0996,-2.1568,-2.1024,-2.0914,-2.0947,-2.1054,-2.1403,-2.1775,-2.2118,-2.1956,-2.1631,-2.1135,-2.0877,-2.0745,-2.0745,-2.0745,-2.086,-2.1166,-2.1166,-2.1276,-2.1613,-2.1446,-2.1707,-2.253,-2.2309,-2.2571,-2.3449,-2.3681,-2.4046,-2.4629,-2.4846,-2.533,-2.6083,-2.6959,-2.7304,0.0,0.0,0.0,-1.6222,0.0,0.0,0.0,0.0,-1.583,0.0,0.0,0.0,0.0,0.0,0.0,0.0,0.0,0.0,0.0,0.0,0.0,0.0,0.0,0.0,0.0,-1.5434,-1.6066,-1.726,-1.7548,-1.7918,-1.8509,-1.8537,-1.8537,-1.8542,-1.8542,-1.8542,-1.8542,-1.8542,-1.8542,-1.8542,-1.8542,-1.8542,-1.8562,-1.9016,-1.9225,-1.9225,-1.9225,-1.9225,-1.9188,-1.8741,-1.8542,-1.8542,-1.8542,-1.8634,-1.8831,-1.963,-1.9917,-1.9917,-1.9919,-2.0017,-2.0083,-1.9949,-2.0048,-2.0179,-2.0163,-2.0533,-2.0822,-2.0296,-2.0968,-2.1519,-2.0248,-2.0436,-2.0837,-2.0235,-2.017,-2.0239,-2.0208,-1.9975,-1.9771,-1.9756,-1.9446,-1.9298,-1.9702,-2.0202,-2.0562,-2.0579,-2.0562,-2.0562,-2.0531,-2.0564,-2.0614,-2.0614,-2.0614,-2.0614,-2.063,-2.0564,-2.0564,-2.0647,-2.0812,-2.0942,-2.0974,-2.1023,-2.1071,-2.1119,-2.181,-2.218,-2.2212,-2.2938,-2.3698,-2.4513,-2.6356,-2.7018,-1.6253,-1.6013,-1.579,-1.579,0.0,0.0,0.0,0.0,0.0,0.0,0.0,0.0,0.0,0.0,0.0,0.0,0.0,0.0,0.0,0.0,0.0,0.0,0.0,0.0,0.0,0.0,-1.53,-1.5805,-1.6734,-1.7468,-1.788,-1.8157,-1.8361,-1.8498,-1.8498,-1.8498,-1.8498,-1.8498,-1.8498,-1.8498,-1.8498,-1.8498,-1.8517,-1.8644,-1.8741,-1.8741,-1.8741,-1.8741,-1.8721,-1.8576,-1.8498,-1.854,-1.8947,-1.8675,-1.822,-1.9118,-1.9582,-1.9778,-1.9778,-1.9534,-1.9221,-1.9188,-1.9686,-2.0299,-2.0247,-2.0676,-2.1048,-2.0407,-2.0361,-2.0294,-1.9403,-1.9363,-1.9499,-1.9298,-1.9258,-1.9262,-1.9262,-1.9184,-1.9124,-1.9209,-1.9449,-1.9556,-1.9342,-1.9827,-2.026,-2.0357,-2.0176,-2.0054,-2.0091,-1.9929,-1.98,-1.98,-1.98,-1.9892,-2.0124,-2.0347,-2.0514,-2.0531,-2.0347,-2.0381,-2.0697,-2.0513,-2.0564,-2.0942,-2.1182,-2.1583,-2.2098,-2.2339,-2.2854,-2.3597,-2.3971,-2.4786,-1.5836,-1.5625,-1.5412,-1.5412,-1.5255,0.0,-1.5367,0.0,-1.5153,0.0,0.0,0.0,0.0,0.0,0.0,0.0,0.0,0.0,0.0,-1.2258,0.0,0.0,0.0,0.0,0.0,0.0,-1.4415,-1.4726,-1.5758,-1.6602,-1.7041,-1.7589,-1.7882,-1.7888,-1.8055,-1.8075,-1.7962,-1.8016,-1.8049,-1.8049,-1.8049,-1.8049,-1.8049,-1.8049,-1.8049,-1.8049,-1.8049,-1.8049,-1.8043,-1.8248,-1.8324,-1.8378,-1.8959,-1.8754,-1.8256,-1.9047,-1.936,-1.9376,-1.9376,-1.9142,-1.885,-1.902,-1.9571,-2.0145,-2.0068,-2.068,-2.1175,-2.0297,-2.0335,-2.0393,-1.9293,-1.9219,-1.9296,-1.8874,-1.8784,-1.8803,-1.8803,-1.8674,-1.8577,-1.8649,-1.9027,-1.9157,-1.8618,-1.9041,-1.9557,-1.9827,-1.9699,-1.957,-1.9612,-1.9475,-1.9358,-1.9358,-1.9358,-1.942,-1.9594,-1.9894,-2.007,-2.007,-1.9859,-1.9791,-1.9949,-1.9889,-2.0065,-2.0494,-2.0284,-2.052,-2.1286,-2.0921,-2.1134,-2.1834,-2.1622,-2.2443]},{"header":{"parameterUnit":"m.s-1","parameterCategory":1,"la1":30.6,"la2":29.2853,"lo1":-89.7004,"lo2":-87.6739,"dy":0.0162,"dx":0.0183,"nx":112,"ny":82,"refTime":"2023-08-24T06:00:00:Z","depth":0,"parameterNumber":3,"parameterNumberName":"V-component_of_WINDS"},"data":[0.0,0.0,0.0,0.0,0.0,0.0,0.0,0.0,0.0,0.0,0.0,0.0,0.0,0.0,0.0,0.0,0.0,0.0,0.0,0.0,0.0,0.0,0.0,0.0,0.0,0.0,0.0,0.0,0.0,0.0,0.0,0.0,0.0,0.0,0.0,0.0,0.0,0.0,0.0,0.0,0.0,0.0,0.0,0.0,0.0,0.0,0.0,0.0,0.0,0.0,0.0,0.0,0.0,0.0,0.0,0.0,0.0,0.0,0.0,0.0,0.0,0.0,0.0,0.0,0.0,0.0,0.0,0.0,0.0,0.0,0.0,0.0,0.0,0.0,0.0,0.0,0.0,0.0,0.0,0.0,0.0,0.0,0.0,0.0,0.0,0.0,0.0,0.0,0.0,0.0,-1.6026,-1.8283,-2.0659,-2.2118,-2.2216,-2.1676,-2.0973,-2.0178,0.0,0.0,0.0,0.0,0.0,0.0,0.0,0.0,0.0,0.0,0.0,0.0,0.0,0.0,0.0,0.0,0.0,0.0,0.0,0.0,0.0,0.0,0.0,0.0,0.0,0.0,0.0,0.0,0.0,0.0,0.0,0.0,0.0,0.0,0.0,0.0,0.0,0.0,0.0,0.0,0.0,0.0,0.0,0.0,0.0,0.0,0.0,0.0,0.0,0.0,0.0,0.0,0.0,0.0,0.0,0.0,0.0,0.0,0.0,0.0,0.0,0.0,0.0,0.0,0.0,0.0,0.0,0.0,0.0,0.0,0.0,0.0,0.0,0.0,0.0,0.0,0.0,0.0,0.0,0.0,0.0,0.0,0.0,0.0,0.0,0.0,0.0,0.0,0.0,0.0,0.0,0.0,0.0,0.0,0.0,0.0,0.0,0.0,0.0,0.0,0.0,0.0,0.0,0.0,-1.6959,-1.9688,-2.0353,-2.0855,-2.1406,-2.0308,-1.9517,-1.938,0.0,0.0,0.0,0.0,0.0,0.0,0.0,0.0,0.0,0.0,0.0,0.0,0.0,0.0,0.0,0.0,0.0,0.0,0.0,0.0,0.0,0.0,0.0,0.0,0.0,0.0,0.0,0.0,0.0,0.0,0.0,0.0,0.0,0.0,0.0,0.0,0.0,0.0,0.0,0.0,0.0,0.0,0.0,0.0,0.0,0.0,0.0,0.0,0.0,0.0,0.0,0.0,0.0,0.0,0.0,0.0,0.0,0.0,0.0,0.0,0.0,0.0,0.0,0.0,0.0,0.0,0.0,0.0,0.0,0.0,0.0,0.0,0.0,0.0,0.0,0.0,0.0,0.0,0.0,0.0,0.0,0.0,0.0,0.0,0.0,0.0,0.0,0.0,0.0,0.0,0.0,0.0,0.0,0.0,0.0,0.0,0.0,0.0,0.0,0.0,0.0,0.0,0.0,-1.6373,-1.8126,-2.058,-2.0532,-2.058,-2.1245,-2.0012,-1.9364,-1.9771,-1.9143,0.0,0.0,0.0,0.0,0.0,0.0,0.0,0.0,0.0,0.0,0.0,0.0,0.0,0.0,0.0,0.0,0.0,0.0,0.0,0.0,0.0,0.0,0.0,0.0,0.0,0.0,0.0,0.0,0.0,0.0,0.0,0.0,0.0,0.0,0.0,0.0,0.0,0.0,0.0,0.0,0.0,0.0,0.0,0.0,0.0,0.0,0.0,0.0,0.0,0.0,0.0,0.0,0.0,0.0,0.0,0.0,0.0,0.0,0.0,0.0,0.0,0.0,0.0,0.0,0.0,0.0,0.0,0.0,0.0,0.0,0.0,0.0,0.0,0.0,0.0,0.0,0.0,0.0,0.0,0.0,0.0,0.0,0.0,0.0,0.0,0.0,0.0,0.0,0.0,0.0,0.0,0.0,0.0,0.0,0.0,0.0,0.0,0.0,0.0,0.0,0.0,0.0,-1.751,-1.8491,-2.0824,-2.0613,-2.0515,-2.1018,-1.9623,-1.9007,-1.9738,-1.7763,0.0,0.0,0.0,0.0,0.0,0.0,0.0,0.0,0.0,0.0,0.0,0.0,0.0,0.0,0.0,0.0,0.0,0.0,0.0,0.0,0.0,0.0,0.0,0.0,0.0,0.0,0.0,0.0,0.0,0.0,0.0,0.0,0.0,0.0,0.0,0.0,0.0,0.0,0.0,0.0,0.0,0.0,0.0,0.0,0.0,0.0,0.0,0.0,0.0,0.0,0.0,0.0,0.0,0.0,0.0,0.0,0.0,0.0,0.0,0.0,0.0,0.0,0.0,0.0,0.0,0.0,0.0,0.0,0.0,0.0,0.0,0.0,0.0,0.0,0.0,0.0,0.0,0.0,0.0,0.0,0.0,0.0,0.0,0.0,0.0,0.0,0.0,0.0,0.0,0.0,0.0,0.0,0.0,0.0,0.0,0.0,0.0,0.0,0.0,0.0,0.0,0.0,-1.7011,-1.7228,-2.0078,-2.0337,-2.0321,-2.037,-1.8456,-1.7533,-1.8216,-1.6245,0.0,0.0,0.0,0.0,0.0,0.0,0.0,0.0,0.0,0.0,0.0,0.0,0.0,0.0,0.0,0.0,0.0,0.0,0.0,0.0,0.0,0.0,0.0,0.0,0.0,0.0,0.0,0.0,0.0,0.0,0.0,0.0,0.0,0.0,0.0,0.0,0.0,0.0,0.0,0.0,0.0,0.0,0.0,0.0,0.0,0.0,0.0,0.0,0.0,0.0,0.0,0.0,0.0,0.0,0.0,0.0,0.0,0.0,0.0,0.0,0.0,0.0,0.0,0.0,0.0,0.0,0.0,0.0,0.0,0.0,0.0,0.0,0.0,0.0,0.0,0.0,0.0,0.0,0.0,0.0,0.0,0.0,0.0,0.0,0.0,0.0,0.0,0.0,0.0,0.0,0.0,0.0,0.0,0.0,0.0,0.0,0.0,0.0,0.0,0.0,0.0,0.0,-1.8104,-1.8602,0.0,-1.9899,-1.9787,-2.0256,-1.8329,-1.7387,-1.8054,0.0,0.0,0.0,0.0,0.0,0.0,0.0,0.0,0.0,0.0,0.0,0.0,0.0,0.0,0.0,0.0,0.0,0.0,0.0,0.0,0.0,0.0,0.0,0.0,0.0,0.0,0.0,0.0,0.0,0.0,0.0,0.0,0.0,0.0,0.0,0.0,0.0,0.0,0.0,0.0,0.0,0.0,0.0,0.0,0.0,0.0,0.0,0.0,0.0,0.0,0.0,0.0,0.0,0.0,0.0,0.0,0.0,0.0,0.0,0.0,0.0,0.0,0.0,0.0,0.0,0.0,0.0,0.0,0.0,0.0,0.0,0.0,0.0,0.0,0.0,0.0,0.0,0.0,0.0,0.0,0.0,0.0,0.0,0.0,0.0,0.0,0.0,0.0,0.0,0.0,0.0,0.0,0.0,0.0,0.0,0.0,0.0,0.0,0.0,0.0,0.0,0.0,-1.8619,-1.8546,-1.8813,0.0,-1.9364,-1.9218,-1.9285,-1.7322,-1.6463,-1.7374,0.0,0.0,0.0,0.0,0.0,0.0,0.0,0.0,0.0,0.0,0.0,0.0,0.0,0.0,0.0,0.0,0.0,0.0,0.0,0.0,0.0,0.0,0.0,0.0,0.0,0.0,0.0,0.0,0.0,0.0,0.0,0.0,0.0,0.0,0.0,0.0,0.0,0.0,0.0,0.0,0.0,0.0,0.0,0.0,0.0,0.0,0.0,0.0,0.0,0.0,0.0,0.0,0.0,0.0,0.0,0.0,0.0,0.0,0.0,0.0,0.0,0.0,0.0,0.0,0.0,0.0,0.0,0.0,0.0,0.0,0.0,0.0,0.0,0.0,0.0,0.0,0.0,0.0,0.0,0.0,0.0,0.0,0.0,0.0,0.0,0.0,0.0,0.0,0.0,0.0,0.0,0.0,0.0,0.0,0.0,0.0,0.0,0.0,0.0,0.0,0.0,0.0,-1.9123,-1.801,-1.7354,-1.8022,-1.8748,-1.8632,-1.7209,-1.5129,-1.4497,0.0,0.0,0.0,0.0,0.0,0.0,0.0,0.0,0.0,0.0,0.0,0.0,0.0,0.0,0.0,0.0,0.0,0.0,0.0,0.0,0.0,0.0,0.0,0.0,0.0,0.0,0.0,0.0,0.0,0.0,0.0,0.0,0.0,0.0,0.0,0.0,0.0,0.0,0.0,0.0,0.0,0.0,0.0,0.0,0.0,0.0,0.0,0.0,0.0,0.0,0.0,0.0,0.0,0.0,0.0,0.0,0.0,0.0,0.0,0.0,0.0,0.0,0.0,0.0,0.0,0.0,0.0,0.0,0.0,0.0,0.0,0.0,0.0,0.0,0.0,0.0,0.0,0.0,0.0,0.0,0.0,0.0,0.0,0.0,0.0,0.0,0.0,0.0,0.0,0.0,0.0,0.0,0.0,0.0,0.0,0.0,0.0,0.0,0.0,0.0,0.0,0.0,0.0,-1.9114,-1.7983,-1.7354,-1.8022,-1.8294,-1.8067,-1.7176,-1.5129,-1.4497,-1.5917,0.0,0.0,0.0,0.0,0.0,0.0,0.0,0.0,0.0,0.0,0.0,0.0,0.0,0.0,0.0,0.0,0.0,0.0,0.0,0.0,0.0,0.0,0.0,0.0,0.0,0.0,0.0,0.0,0.0,0.0,0.0,0.0,0.0,0.0,0.0,0.0,0.0,0.0,0.0,0.0,0.0,0.0,0.0,0.0,0.0,0.0,0.0,0.0,0.0,0.0,0.0,0.0,0.0,0.0,0.0,0.0,0.0,0.0,0.0,0.0,0.0,0.0,0.0,0.0,0.0,0.0,0.0,0.0,0.0,0.0,0.0,0.0,0.0,0.0,0.0,0.0,0.0,0.0,0.0,0.0,0.0,0.0,0.0,0.0,0.0,0.0,0.0,0.0,0.0,0.0,0.0,0.0,0.0,0.0,0.0,0.0,0.0,0.0,0.0,0.0,0.0,0.0,-1.9102,-1.797,-1.7257,-1.7662,-1.7711,-1.7306,-1.6305,-1.4529,-1.3816,-1.467,0.0,0.0,0.0,0.0,0.0,0.0,0.0,0.0,0.0,0.0,0.0,0.0,0.0,0.0,0.0,0.0,0.0,0.0,0.0,0.0,0.0,0.0,0.0,0.0,0.0,0.0,0.0,0.0,0.0,0.0,0.0,0.0,0.0,0.0,0.0,0.0,0.0,0.0,0.0,0.0,0.0,0.0,0.0,0.0,0.0,0.0,0.0,0.0,0.0,0.0,0.0,0.0,0.0,0.0,0.0,0.0,0.0,0.0,0.0,0.0,0.0,0.0,0.0,0.0,0.0,0.0,0.0,0.0,0.0,0.0,0.0,0.0,0.0,0.0,0.0,0.0,0.0,0.0,0.0,0.0,0.0,0.0,0.0,0.0,0.0,0.0,0.0,0.0,0.0,0.0,0.0,0.0,0.0,0.0,0.0,0.0,0.0,0.0,0.0,0.0,0.0,0.0,-1.9202,-1.7938,-1.7047,-1.7176,-1.7144,-1.6532,-1.5117,-1.3715,-1.294,-1.2996,0.0,0.0,0.0,0.0,0.0,0.0,0.0,0.0,0.0,0.0,0.0,0.0,0.0,0.0,0.0,0.0,0.0,0.0,0.0,0.0,0.0,0.0,0.0,0.0,0.0,0.0,0.0,0.0,0.0,0.0,0.0,0.0,0.0,0.0,0.0,0.0,0.0,0.0,0.0,0.0,0.0,0.0,0.0,0.0,0.0,0.0,0.0,0.0,0.0,0.0,0.0,0.0,0.0,0.0,0.0,0.0,0.0,0.0,0.0,0.0,-1.5541,0.0,0.0,0.0,0.0,0.0,0.0,0.0,0.0,0.0,0.0,0.0,0.0,0.0,0.0,0.0,0.0,0.0,0.0,0.0,0.0,0.0,0.0,0.0,0.0,0.0,0.0,0.0,0.0,0.0,0.0,0.0,0.0,0.0,0.0,0.0,0.0,0.0,0.0,0.0,0.0,0.0,-1.99,-1.7828,-1.6662,-1.7776,-1.7419,-1.6739,-1.584,-1.447,-1.3897,-1.4417,-1.3407,0.0,0.0,0.0,0.0,0.0,0.0,0.0,0.0,0.0,0.0,0.0,0.0,0.0,0.0,0.0,0.0,0.0,0.0,0.0,0.0,0.0,0.0,0.0,0.0,0.0,0.0,0.0,0.0,0.0,0.0,0.0,0.0,0.0,0.0,0.0,0.0,0.0,0.0,0.0,0.0,0.0,0.0,0.0,0.0,0.0,0.0,0.0,0.0,0.0,0.0,0.0,0.0,0.0,0.0,0.0,0.0,0.0,0.0,0.0,0.0,-1.5792,0.0,0.0,0.0,0.0,0.0,0.0,0.0,0.0,0.0,0.0,0.0,0.0,0.0,0.0,0.0,0.0,0.0,0.0,0.0,0.0,0.0,0.0,0.0,0.0,0.0,0.0,0.0,0.0,0.0,0.0,0.0,0.0,0.0,0.0,0.0,0.0,0.0,0.0,0.0,0.0,-1.9672,-1.8151,-1.7164,-1.7581,-1.7306,-1.6804,-1.6063,-1.4708,-1.3897,-1.3893,-1.3206,0.0,0.0,0.0,0.0,0.0,0.0,0.0,0.0,0.0,0.0,0.0,0.0,0.0,0.0,0.0,0.0,0.0,0.0,0.0,0.0,0.0,0.0,0.0,0.0,0.0,0.0,0.0,0.0,0.0,0.0,0.0,0.0,0.0,0.0,0.0,0.0,0.0,0.0,0.0,0.0,0.0,0.0,0.0,0.0,0.0,0.0,0.0,0.0,0.0,0.0,0.0,0.0,0.0,-1.8889,-1.9326,-2.0082,-2.0082,-1.9858,-1.9345,-1.73,-1.5854,-1.4971,-1.5255,0.0,0.0,0.0,0.0,0.0,0.0,0.0,0.0,0.0,0.0,0.0,0.0,0.0,0.0,0.0,0.0,0.0,0.0,0.0,0.0,0.0,0.0,0.0,0.0,-1.817,-1.9148,-1.8715,0.0,0.0,0.0,0.0,0.0,0.0,0.0,0.0,0.0,0.0,0.0,-1.9351,-1.8593,-1.7914,-1.7517,-1.7241,-1.6852,-1.6241,-1.5005,-1.3946,-1.3203,-1.3032,-1.2951,0.0,0.0,0.0,0.0,0.0,0.0,0.0,0.0,0.0,0.0,0.0,0.0,0.0,0.0,0.0,0.0,0.0,0.0,0.0,0.0,0.0,0.0,0.0,0.0,0.0,0.0,0.0,0.0,0.0,0.0,0.0,0.0,-0.9185,-0.9666,0.0,0.0,0.0,0.0,0.0,0.0,0.0,0.0,0.0,0.0,0.0,0.0,0.0,-1.7745,-1.9208,-1.9881,-2.0293,-2.0504,-2.0504,-2.034,-2.0006,-2.0006,-1.9755,-1.9324,-1.8983,0.0,-1.748,-1.694,0.0,0.0,0.0,0.0,0.0,0.0,0.0,0.0,0.0,0.0,0.0,0.0,0.0,0.0,0.0,0.0,0.0,0.0,0.0,0.0,0.0,0.0,-1.796,-1.9224,-1.8502,-1.7958,0.0,-2.0198,-2.0395,-2.0406,-2.0649,0.0,0.0,0.0,0.0,0.0,0.0,0.0,-1.9885,-1.8733,-1.818,-1.8848,-1.7824,-1.7063,-1.6966,-1.6204,-1.5381,-1.4598,-1.3935,-1.3588,-1.3588,-1.3668,0.0,0.0,0.0,0.0,0.0,0.0,0.0,0.0,0.0,0.0,0.0,0.0,0.0,0.0,0.0,0.0,0.0,0.0,0.0,0.0,0.0,0.0,0.0,0.0,0.0,0.0,0.0,0.0,0.0,-0.9152,-0.9207,-0.9436,-1.0498,-1.1443,0.0,0.0,0.0,0.0,0.0,0.0,0.0,0.0,0.0,-1.5234,-1.6417,-1.7688,-1.8997,-1.9594,-2.0395,-2.1421,-2.1421,-2.1455,-2.1513,-2.1513,-2.1298,-2.0892,-2.054,-1.989,-1.8991,-1.7861,-1.6948,-1.6268,0.0,0.0,0.0,0.0,-1.6148,-1.6283,-1.7088,-1.7174,-1.7067,-1.7807,0.0,0.0,0.0,0.0,0.0,0.0,0.0,0.0,0.0,0.0,-1.8666,-1.8826,-1.9201,-1.9583,-1.9907,-2.0531,-2.0945,0.0,-2.0728,-2.0827,-2.086,0.0,0.0,0.0,0.0,-2.0431,-1.9908,-1.938,-1.8925,-1.8515,-1.792,-1.7429,-1.7144,-1.6419,-1.5845,-1.5503,-1.471,-1.4298,-1.4374,-1.4693,-1.5229,0.0,0.0,0.0,0.0,0.0,0.0,0.0,0.0,0.0,0.0,0.0,0.0,0.0,0.0,0.0,0.0,0.0,0.0,0.0,0.0,0.0,0.0,0.0,0.0,0.0,0.0,0.0,0.0,-0.9337,-0.9407,-0.9309,-1.0581,-1.1589,0.0,0.0,0.0,0.0,0.0,0.0,-1.4354,-1.5233,-1.5713,-1.572,-1.6683,-1.7694,-1.8757,-1.9353,-2.0421,-2.1878,-2.2094,-2.2388,-2.2786,-2.2994,-2.2868,-2.2461,-2.1832,-2.1069,-2.0109,-1.865,-1.7457,-1.6571,-1.6724,-1.6646,-1.6544,-1.7116,-1.7263,-1.7347,-1.8369,-1.8191,-1.771,-1.87,-1.8658,-1.8248,-1.8442,0.0,0.0,0.0,0.0,-1.8917,-1.9092,-1.9393,-1.9506,-1.8874,-1.9866,-2.072,-1.9972,-2.0375,-2.0855,0.0,-2.0596,-2.0712,-2.0827,0.0,0.0,0.0,0.0,-2.0639,-1.9751,-1.9783,-1.9494,-1.8475,-1.8059,-1.77,-1.729,-1.6567,-1.6084,-1.5919,-1.5299,-1.4909,-1.4834,-1.5286,-1.5667,-1.5939,0.0,0.0,0.0,0.0,0.0,0.0,0.0,0.0,0.0,0.0,0.0,0.0,0.0,0.0,0.0,0.0,0.0,0.0,0.0,0.0,0.0,0.0,0.0,0.0,0.0,0.0,0.0,0.0,0.0,-0.9614,-1.1261,0.0,0.0,0.0,0.0,-1.5737,-1.5783,-1.5905,-1.6147,-1.6221,-1.6431,-1.6807,-1.7938,-1.8926,-1.9811,-2.0534,-2.1223,-2.1803,-2.2584,-2.294,-2.2999,-2.3781,-2.3844,-2.3304,-2.2823,-2.2063,-2.1037,-1.9605,-1.8433,-1.7577,-1.816,-1.845,-1.8511,-1.8096,-1.8298,-1.8734,-1.8353,-1.8212,-1.8327,-1.9324,-1.9499,-1.9215,-1.868,-1.8498,0.0,0.0,-1.8947,-1.9508,-2.0147,-2.033,-2.0401,-2.0603,-2.0318,-1.9928,-1.9813,-1.9836,-1.9869,0.0,-2.01,-2.0287,-2.0168,0.0,-2.0309,-1.967,-2.0123,-2.0278,-1.9608,-1.9513,-1.9562,-1.9594,-1.8473,-1.7697,-1.7666,-1.6986,-1.6304,-1.5664,-1.5573,-1.5272,-1.4639,-1.4765,-1.5147,-1.5795,-1.5287,0.0,0.0,0.0,0.0,0.0,0.0,0.0,0.0,0.0,0.0,0.0,0.0,0.0,0.0,0.0,0.0,0.0,0.0,0.0,0.0,0.0,0.0,0.0,0.0,0.0,0.0,0.0,0.0,-1.1024,-1.2731,0.0,-1.381,-1.5103,-1.6011,-1.6149,-1.6637,-1.7072,-1.7458,-1.7963,-1.8302,-1.844,-1.8853,-1.944,-2.0303,-2.0532,-2.107,-2.1794,-2.2107,-2.222,-2.2258,-2.3065,-2.2975,-2.2197,-2.2548,-2.2132,-2.1178,-2.0971,-1.9932,-1.8462,-1.8663,-1.8639,-1.8472,-1.8627,-1.8679,-1.8722,-1.9247,-1.9145,-1.8796,-1.9008,-1.9271,-1.9463,-1.9024,-1.9148,-1.9593,-2.0154,-2.0464,-2.0689,-2.0928,-2.0681,-2.0309,-1.9977,-1.9578,-1.9243,-1.9224,-1.9384,-1.9545,-1.9545,-1.994,-2.0321,-2.0357,-2.0357,-2.0314,-2.0167,-2.0355,-2.0366,-2.0049,-2.0101,-1.9996,-1.9608,-1.9139,-1.8543,-1.7764,-1.7462,-1.7004,-1.6278,-1.6244,-1.6187,-1.6021,-1.5984,-1.6173,-1.6632,-1.5863,-1.5851,0.0,0.0,0.0,0.0,0.0,0.0,0.0,0.0,0.0,0.0,0.0,0.0,0.0,0.0,0.0,0.0,0.0,0.0,0.0,0.0,0.0,0.0,0.0,0.0,0.0,0.0,-1.1614,-1.2551,-1.4097,-1.5193,-1.5422,-1.6466,-1.7183,-1.7312,-1.7944,-1.8495,-1.8878,-1.943,-1.965,-1.9522,-1.9512,-1.9678,-2.0079,-2.0118,-2.0382,-2.0952,-2.1221,-2.1375,-2.1423,-2.2505,-2.2652,-2.204,-2.2659,-2.2455,-2.173,-2.2042,-2.1181,-1.9677,-1.9849,-1.9581,-1.9157,-1.9483,-1.9487,-1.9403,-1.9922,-1.9829,-1.9403,-1.9012,-1.9257,-1.962,-1.9203,-1.9443,-1.9993,-2.057,-2.0946,-2.1167,-2.1167,-2.1086,-2.0836,-2.0203,-1.987,-1.9684,-1.9568,-1.972,-1.9909,-1.999,-2.0065,-2.0229,-2.0549,-2.061,-2.0678,-2.0765,-2.0767,-2.0655,-2.0335,-2.039,-2.0255,-1.9819,-1.9571,-1.9014,-1.7952,-1.7654,-1.7244,-1.6577,-1.653,-1.6596,-1.6725,-1.6924,-1.7146,-1.7371,-1.6148,-1.6128,-1.739,0.0,0.0,0.0,0.0,0.0,0.0,0.0,0.0,0.0,0.0,0.0,0.0,0.0,0.0,0.0,0.0,0.0,0.0,0.0,0.0,0.0,0.0,0.0,-1.0628,-1.1735,-1.2948,-1.4143,-1.5374,-1.6522,-1.7424,-1.8274,-1.8896,-1.9289,-1.9701,-2.0095,-2.0539,-2.0549,-2.0323,-1.9939,-1.9921,-1.9751,-1.9329,-1.932,-1.9311,-1.9301,-2.0079,-2.0459,-2.0498,-2.2155,-2.2916,-2.292,-2.3221,-2.3109,-2.265,-2.2673,-2.2109,-2.1247,-2.1732,-2.1415,-2.0721,-2.0637,-2.0736,-2.0824,-2.0257,-2.0118,-2.0054,-1.9404,-1.9494,-1.9788,-1.9186,-1.9292,-1.9633,-1.9633,-2.0279,-2.0923,-2.0923,-2.156,-2.2025,-2.1434,-2.1302,-2.1185,-2.0861,-2.0781,-2.0849,-2.1123,-2.044,-2.0026,-2.0696,-2.1072,-2.127,-2.1273,-2.1273,0.0,-2.0379,-2.0304,-2.0304,-2.0304,-1.9718,-1.9024,-1.8299,-1.7638,-1.702,-1.6493,-1.646,-1.6512,-1.6646,-1.7454,-1.7901,-1.7901,-1.6012,-1.5387,-1.6111,0.0,0.0,0.0,0.0,0.0,0.0,0.0,0.0,0.0,0.0,0.0,0.0,0.0,0.0,0.0,0.0,0.0,0.0,0.0,0.0,0.0,0.0,-1.1536,-1.1909,-1.2585,-1.3692,-1.5569,-1.666,-1.7477,-1.7958,-1.9217,-1.9891,-1.9599,-2.033,-2.097,-2.1339,-2.1108,-2.0897,-2.0787,-2.0512,-2.0122,-1.9719,-1.976,-1.9604,-1.9301,-1.9529,-1.9608,-1.9648,-2.0692,-2.1012,-2.0737,-2.1976,-2.2024,-2.134,-2.2309,-2.2109,-2.1247,-2.1732,-2.1558,-2.1057,-2.1046,-2.0815,-2.0445,-1.9875,-1.9688,-1.9587,-1.8918,-1.907,-1.951,-1.9468,-1.9777,-2.0274,-2.0769,-2.1209,-2.1545,-2.1545,-2.156,-2.1504,-2.1344,-2.097,-2.0604,-2.0521,-2.05,-2.0522,-2.0606,-2.0569,-2.0582,-2.0764,-2.0884,-2.0847,-2.0624,-2.0564,0.0,-2.0335,-2.0304,-2.0304,-2.0304,-2.015,-1.9749,-1.9055,-1.8824,-1.8423,-1.7745,-1.7849,-1.7939,-1.7983,-1.7828,-1.7809,-1.7901,-1.7971,-1.8116,0.0,0.0,0.0,0.0,0.0,0.0,0.0,0.0,0.0,0.0,0.0,0.0,0.0,0.0,0.0,0.0,0.0,0.0,0.0,0.0,0.0,0.0,-1.2009,-1.255,-1.3156,-1.349,-1.444,-1.6541,-1.7206,-1.7778,-1.8379,-1.924,-1.9648,-1.9334,-2.0244,-2.0882,-2.1123,-2.1272,-2.1291,-2.1117,-2.0879,-2.0576,-2.014,-1.9966,-1.9765,-1.9567,-1.9384,-1.9301,-1.9341,-2.0109,-2.0362,-2.0166,-2.1474,-2.1747,-2.1405,-2.2412,-2.2434,0.0,0.0,0.0,0.0,0.0,-2.0848,-2.0327,-1.9785,-1.9579,-1.9444,-1.8602,-1.8826,-1.9429,-1.9306,-1.9725,-2.0308,-2.0709,-2.1142,-2.1471,-2.1471,-2.1403,-2.1338,-2.1338,-2.1066,-2.083,-2.083,-2.0921,-2.0988,-2.0988,-2.1205,0.0,-2.121,-2.1089,-2.0932,-2.0763,-2.0865,-2.0864,-2.0538,-2.0632,-2.0595,-2.0335,-2.0304,-2.0027,-1.9364,-1.9302,0.0,0.0,0.0,-1.8579,-1.9029,-1.8878,0.0,0.0,0.0,-1.951,-1.92,-1.951,0.0,0.0,-2.0094,-2.0062,0.0,0.0,0.0,0.0,0.0,0.0,0.0,0.0,0.0,0.0,0.0,0.0,0.0,0.0,0.0,0.0,-1.2835,-1.3479,-1.431,-1.4442,-1.514,-1.7077,-1.7301,-1.7652,-1.8565,-1.8742,-1.8742,-1.865,-1.9567,-2.0158,-2.0294,0.0,0.0,0.0,0.0,-2.0989,-2.0585,-2.0195,-1.9962,-1.9916,-1.9496,-1.9286,-1.9326,-1.9981,-2.0313,-2.0352,-2.1221,-2.1711,-2.1944,-2.2496,-2.2634,-2.2445,-2.2066,-2.1617,-2.119,-2.119,-2.0914,-2.0423,-1.9941,0.0,0.0,-1.8604,-1.8832,-1.9436,-1.908,-1.9438,-1.9951,-2.0015,-2.0461,-2.0934,-2.0934,-2.1155,-2.1399,-2.1399,-2.1399,-2.1399,-2.1399,-2.1592,-2.1746,-2.1746,-2.1973,-2.2043,-2.1676,-2.1415,-2.123,-2.1197,-2.1491,-2.1457,-2.0756,-2.0968,-2.0919,-2.0277,0.0,0.0,-1.9357,-1.9311,-1.905,-1.8421,-1.8422,-1.8842,-1.9751,-2.0157,-2.0341,-2.0305,-2.037,-2.0046,-1.9329,-1.9981,-2.0256,-2.0175,-2.0256,-2.0305,0.0,0.0,0.0,0.0,0.0,0.0,0.0,0.0,0.0,0.0,0.0,0.0,0.0,0.0,0.0,-1.2912,-1.3511,-1.4094,-1.5146,-1.5264,-1.5767,-1.7138,-1.729,-1.7372,-1.7552,-1.8334,-1.8473,-1.7652,-1.8519,-1.943,-2.0249,-2.0484,-2.0863,-2.1568,-2.1568,-2.1376,-2.0998,-2.0753,-2.0476,-2.0117,0.0,0.0,-1.9208,-1.9106,-1.9051,-1.9082,-1.9913,-2.0168,-2.008,-2.0822,-2.1125,-2.114,-2.1686,-2.1617,-2.119,-2.119,-2.1132,-2.0971,-2.0446,-2.0274,-2.0171,-1.9585,-1.9517,-1.9709,-1.9956,-1.9809,0.0,-2.006,-2.0345,-2.0523,-2.0523,-2.097,-2.1399,-2.1399,-2.1399,-2.1399,-2.1399,-2.1447,-2.1496,-2.1496,-2.1688,-2.1694,-2.1152,-2.0962,-2.0799,-2.0534,-2.0557,-2.0374,-1.9753,-2.0146,-2.0262,-1.9637,-1.9578,-1.9533,-1.9399,-1.9385,-1.9415,-1.9496,-1.9735,-1.9851,-1.972,-2.0337,-2.0575,-2.0321,-2.0824,-2.0759,-2.0094,-2.024,-1.9981,-1.9429,-2.0013,-2.0305,0.0,0.0,0.0,0.0,0.0,0.0,0.0,0.0,0.0,0.0,0.0,-0.9771,0.0,0.0,-1.2624,-1.3695,-1.4316,-1.4843,-1.5261,-1.5522,-1.5954,-1.67,-1.6679,-1.6594,-1.6594,-1.6942,-1.7037,-1.6812,-1.7352,-1.8038,-1.8996,-1.9581,-2.0161,-2.0769,-2.1149,-2.1266,-2.1058,-2.0738,-2.0506,-2.0309,-1.9534,-1.9315,-1.9492,-1.8958,-1.8798,-1.8958,-1.9194,-1.9448,-1.9745,-2.0556,-2.0833,-2.0737,-2.1288,-2.1373,-2.119,-2.119,-2.119,-2.1121,-2.0584,-2.0572,-2.0695,-1.993,-1.9861,-2.0028,-2.0,-1.9952,-1.9968,-2.0193,-2.0431,-2.0641,-2.0641,-2.1066,-2.1485,-2.1485,-2.1719,-2.1912,-2.1912,-2.2028,-2.201,-2.1701,-2.1857,-2.1862,-2.1236,-2.0976,-2.0755,-2.0401,-2.0489,-2.0473,-2.0147,-2.0763,-2.0892,-1.9954,-1.9851,-1.9733,-1.9424,-1.9395,-1.9468,-1.9584,-1.9993,-2.0118,-1.9914,-2.0572,-2.0863,-2.0715,-2.11,-2.1131,-2.0792,-2.0792,-2.0613,-2.0256,-2.0645,-2.0629,0.0,0.0,0.0,0.0,0.0,0.0,0.0,0.0,-0.6947,-0.864,-0.9119,-0.9997,-1.2407,-1.3095,-1.3512,-1.4172,-1.4932,-1.533,-1.5071,-1.546,-1.5896,-1.6041,-1.5942,-1.5818,-1.5745,-1.5566,-1.5609,-1.6047,-1.6184,-1.6627,-1.7513,-1.8433,-1.9192,-1.981,-2.042,-2.0808,-2.0997,-2.0651,-2.0448,-2.0439,-1.962,-1.941,-1.9771,-1.8918,-1.8734,-1.9068,-1.8779,-1.8993,-1.9668,-2.0537,-2.0641,-2.0326,-2.0718,-2.078,-2.0732,-2.1063,-2.119,-2.1132,-2.0699,-2.0856,-2.1063,-2.024,-2.024,-2.0481,-2.0102,-2.0151,-2.0328,-2.0328,-2.0536,-2.0767,-2.0767,-2.1135,-2.1458,-2.1458,-2.1858,-2.2239,-2.2239,-2.2509,-2.2578,-2.21,-2.22,-2.2231,-2.1758,-2.1394,-2.0997,-2.0558,-2.0763,-2.0924,-2.0747,-2.1476,-2.1543,-2.0259,-2.0128,-1.9866,-1.9286,-1.9265,-1.9302,-1.9302,-1.9726,-1.9977,-2.0013,-2.0529,-2.086,-2.0958,-2.1103,-2.1198,-2.1246,-2.1294,-2.1293,-2.1293,-2.1293,-2.1002,-0.5059,-0.522,0.0,-0.6054,-0.6095,-0.6195,0.0,0.0,-0.7344,-0.8431,-0.8877,-0.9655,-1.1654,-1.2235,-1.2856,-1.41,-1.4775,-1.5059,-1.4799,-1.5191,-1.5466,-1.5281,-1.5413,-1.5433,-1.5207,-1.5175,-1.5175,-1.5223,-1.5239,-1.5662,-1.6597,-1.6763,-1.7677,-1.9496,-1.96,-2.0076,-2.0988,-2.0782,-2.0674,-2.0666,-1.9687,-1.9393,-1.9685,-1.8587,-1.8278,-1.8645,-1.8478,-1.8474,-1.8625,-1.9629,-1.9545,-1.8904,-1.9663,-1.9463,-1.9,-2.0592,-2.119,-2.119,-2.1132,-2.1144,-2.1178,-2.1063,-2.1063,-2.1098,-2.1052,-2.0738,-2.0381,-2.0381,-2.0375,-2.0377,-2.0377,-2.0681,-2.0994,-2.0994,-2.1359,-2.168,-2.168,-2.2089,-2.2401,-2.2363,-2.2551,-2.2724,-2.2658,-2.2318,-2.1771,-2.0978,-2.1069,-2.1064,-2.0521,-2.1001,-2.091,-1.9639,-1.9512,-1.9258,-1.8638,-1.8817,-1.8969,-1.8969,-1.9288,-1.9545,-1.9744,-1.9752,-2.0,-2.0478,-2.0614,-2.0812,-2.1119,-2.123,-2.1293,-2.1293,-2.1293,-2.1261,-0.514,0.0,0.0,0.0,-0.6576,-0.6932,-0.74,-0.7587,-0.7944,-0.9059,-0.9397,-0.9964,-1.155,-1.1884,-1.2281,0.0,-1.4055,-1.4458,-1.4676,-1.5034,-1.5113,-1.4684,-1.4594,-1.47,-1.5057,-1.4936,-1.4984,-1.5325,-1.4877,-1.5011,-1.5852,-1.6027,-1.6536,-1.7534,-1.8008,-1.8688,-1.9712,-1.9621,-1.9911,-2.0464,-1.9617,-1.9376,-1.9657,-1.8521,-1.8085,-1.8263,-1.8181,-1.8161,-1.8201,-1.8616,-1.8533,-1.8194,-1.8712,-1.8617,-1.838,-1.9845,-2.0376,-2.0473,-2.1019,-2.119,-2.119,-2.119,-2.119,-2.119,-2.119,-2.104,-2.0879,-2.0879,-2.0842,-2.0822,-2.0822,-2.1145,-2.1494,-2.1494,-2.1839,-2.218,-2.218,-2.2351,-2.2409,-2.2094,-2.2355,-2.2504,-2.2155,-2.2339,-2.2427,-2.2057,-2.176,-2.1365,-2.0754,-2.1358,-2.1364,-2.0098,-1.9635,-1.9171,-1.8554,-1.86,-1.8678,-1.8678,-1.8965,-1.9157,-1.9236,-1.9512,-1.9749,-1.9929,-2.0189,-2.0462,-2.0811,-2.0942,-2.1103,-2.1293,-2.1293,-2.1293,-0.54,0.0,0.0,-0.6576,-0.7108,-0.7597,-0.775,-0.798,-0.8383,-0.9212,-0.9376,-0.974,-1.0923,-1.1107,-1.1373,-1.2348,-1.3185,-1.3771,-1.4112,-1.4499,-1.463,-1.4238,-1.3894,-1.3963,-1.461,-1.454,-1.4637,-1.5019,-1.4611,-1.4564,-1.5152,-1.5316,-1.5619,-1.6077,-1.6625,-1.739,-1.8373,-1.8325,-1.8744,-1.9706,-1.902,-1.8998,-1.9512,-1.8572,-1.8094,-1.8,-1.8,-1.8,-1.8,-1.8,-1.7837,-1.7583,-1.7961,-1.7798,-1.756,-1.8895,-1.9488,-1.977,-2.042,-2.0764,-2.0892,-2.0892,-2.0892,-2.0924,-2.0999,-2.1133,-2.1245,-2.1204,-2.1293,-2.1374,-2.1224,-2.1463,-2.1702,-2.1702,-2.2063,-2.2421,-2.2421,-2.2512,-2.2493,-2.2095,-2.2305,-2.2385,-2.1958,-2.236,-2.2724,-2.2718,-2.223,-2.1733,-2.1442,-2.1722,-2.1561,-2.0512,-1.9803,-1.9171,-1.8554,-1.8498,-1.8498,-1.8498,-1.8678,-1.8798,-1.8798,-1.9157,-1.9384,-1.9409,-1.9696,-2.0032,-2.0379,-2.0529,-2.0811,-2.1167,-2.1167,-2.1214,0.0,0.0,-0.6793,-0.7272,-0.7682,-0.8008,-0.8214,-0.8364,-0.8484,-0.8347,-0.8323,-0.8581,-0.9328,-0.9596,-0.9947,-1.0905,-1.2201,-1.3061,-1.2775,-1.3423,-1.3936,-1.3918,-1.3465,-1.3254,0.0,-1.3785,-1.393,-1.393,-1.4159,-1.4304,-1.4322,-1.4352,-1.4819,-1.5764,-1.5846,-1.6311,-1.7343,-1.7081,-1.7387,-1.825,-1.7639,-1.8007,-1.9222,-1.8801,-1.8374,-1.8,-1.8,-1.8,-1.8,-1.8,-1.7564,-1.697,-1.7359,-1.6856,-1.6077,-1.7734,-1.8742,-1.9299,-1.9332,-1.9704,-2.0128,-2.0128,-2.0128,-2.0193,-2.0506,-2.0971,-2.1384,-2.1232,-2.1525,-2.1757,-2.1328,-2.1221,-2.1221,-2.1221,-2.1577,-2.1908,-2.1908,-2.2267,-2.2592,-2.2579,-2.2597,-2.2597,-2.2585,-2.2573,-2.2593,-2.2521,-2.2232,-2.2167,-2.2585,-2.1867,-2.1082,-2.047,-1.9803,-1.9171,-1.8554,-1.8498,-1.8498,-1.8498,-1.8517,-1.8517,-1.8517,-1.8537,-1.8659,-1.8917,-1.9128,-1.9427,-1.9823,-2.0015,-2.0359,-2.0811,-2.0811,-2.099,-0.5946,0.0,-0.7054,-0.7442,-0.7925,-0.8401,-0.8655,-0.8672,-0.8591,-0.8442,-0.8099,-0.7907,-0.8066,-0.7942,-0.82,-0.9413,-1.0341,-1.1107,-1.1619,-1.2607,-1.3117,-1.2627,-1.303,0.0,0.0,0.0,0.0,-1.3894,-1.3984,-1.4117,-1.4286,-1.4298,-1.4436,-1.4813,-1.4813,-1.5192,-1.6014,-1.5957,-1.6311,-1.7084,-1.7247,-1.7385,-1.7556,-1.7985,-1.8111,-1.8,-1.8,-1.8,-1.8,-1.8,-1.774,-1.7295,-1.7462,-1.6973,-1.6272,-1.6842,-1.7415,-1.8015,-1.8818,-1.9069,-1.9152,-1.9834,-2.0041,-2.0172,-2.097,-2.1274,-2.1308,-2.1283,-2.156,-2.1848,-2.1709,-2.1916,-2.2201,-2.2201,-2.2334,-2.2422,-2.2422,-2.2285,-2.2136,-2.2136,-2.2158,-2.2156,-2.2156,-2.239,-2.254,-2.233,-2.2238,-2.2035,-2.1584,-2.1387,-2.09,-1.9845,-1.9536,-1.9171,-1.8554,-1.8498,-1.8498,-1.8498,-1.8498,-1.8498,-1.8498,-1.8498,-1.8537,-1.8639,-1.8793,-1.9049,-1.9409,-1.9606,-1.9925,-2.034,-2.0378,-2.0462,-0.611,-0.6858,-0.7378,-0.7763,-0.8265,-0.8724,-0.8875,-0.8821,-0.8608,-0.8241,-0.7821,-0.7407,-0.7084,-0.6861,-0.7056,-0.7956,-0.8823,-0.9604,-1.0439,-1.1385,-1.2035,-1.2125,-1.2528,-1.289,0.0,0.0,0.0,-1.3888,-1.3996,-1.4117,-1.4286,-1.4298,-1.4298,-1.4298,-1.4298,-1.4498,-1.4863,-1.472,-1.4875,-1.5388,-1.6222,-1.638,-1.6034,-1.6911,-1.7375,-1.7448,-1.7668,-1.7878,-1.8,-1.8,-1.7817,-1.7523,-1.762,-1.7218,-1.6622,-1.6858,-1.7006,-1.7205,-1.7906,-1.8319,-1.8602,-1.8942,-1.9257,-1.9611,-2.0236,-2.0754,-2.1125,-2.1225,-2.1699,-2.2218,-2.217,-2.2432,-2.2719,-2.2719,-2.2719,-2.2719,-2.2719,-2.2283,-2.1894,-2.1894,-2.176,-2.1639,-2.1639,-2.2032,-2.2207,-2.1832,-2.1882,-2.1689,-2.0941,-2.0951,-2.0573,-1.9308,-1.9245,-1.9036,-1.8456,-1.8459,-1.8498,-1.8498,-1.8498,-1.8498,-1.8498,-1.8498,-1.8498,-1.8498,-1.8576,-1.8755,-1.903,-1.9143,-1.9439,-1.9889,-1.9927,-2.0035,-0.6394,-0.7228,-0.7721,-0.8173,-0.8704,-0.9039,-0.8913,-0.8723,-0.8442,-0.7723,-0.7424,-0.7119,0.0,0.0,-0.6495,-0.6671,-0.7632,-0.8596,-0.9215,-0.9824,-1.0726,0.0,0.0,0.0,0.0,0.0,0.0,-1.3865,0.0,-1.428,-1.425,-1.425,-1.425,-1.425,-1.425,-1.4124,-1.3859,-1.3405,-1.323,-1.3343,-1.4685,-1.5047,-1.4657,-1.5587,-1.6124,-1.6355,-1.7009,-1.7546,-1.787,-1.7951,-1.7786,-1.7535,-1.7854,-1.7547,-1.703,-1.7709,-1.7521,-1.6917,-1.6688,-1.7468,-1.8423,-1.7696,-1.7988,-1.8618,-1.8588,-1.9584,-2.0796,-2.0988,-2.1816,-2.2682,-2.2593,-2.2594,-2.2605,-2.2617,-2.2651,-2.2674,-2.2685,-2.2283,-2.1894,-2.1894,-2.1514,-2.119,-2.119,-2.1577,-2.1661,-2.1102,-2.1189,-2.1178,-2.0703,-2.0558,-2.0039,-1.8865,-1.8912,-1.8804,-1.8279,-1.843,-1.8529,-1.8554,-1.8554,-1.8526,-1.8498,-1.8498,-1.8498,-1.8498,-1.8498,-1.8556,-1.8692,-1.8692,-1.8965,-1.9457,-1.946,-1.9699,-0.6462,-0.7453,-0.7968,-0.8283,-0.83,-0.837,-0.8654,-0.8069,-0.7395,-0.7277,-0.6695,-0.6142,0.0,0.0,0.0,-0.6337,-0.684,0.0,-0.7859,-0.9021,0.0,-1.0054,0.0,-1.156,-1.2719,-1.2703,0.0,0.0,-1.3797,-1.3714,-1.3721,-1.3678,-1.3678,-1.3678,-1.3678,-1.3599,-1.3292,-1.2859,-1.2615,-1.2657,-1.3517,-1.3873,-1.374,-1.4664,-1.5074,-1.5157,-1.5827,-1.6206,-1.637,-1.7212,-1.7496,-1.7461,-1.7836,-1.7749,-1.7355,-1.7543,-1.7492,-1.7299,-1.694,-1.7229,-1.7826,-1.8076,-1.851,-1.899,-1.943,-1.9772,-2.0088,-2.0108,-2.0565,-2.0994,-2.099,-2.1235,-2.1549,-2.1696,-2.1919,-2.2152,-2.2284,-2.2082,-2.1894,-2.1894,-2.1514,-2.119,-2.119,-2.1316,-2.1333,-2.1174,-2.0825,-2.0406,-1.9937,-1.9384,-1.8764,-1.7981,-1.7948,-1.8122,-1.8478,-1.8865,-1.9124,-1.9159,-1.9186,-1.8975,-1.8512,-1.8498,-1.8498,-1.8498,-1.8498,-1.8517,-1.8556,-1.8653,-1.8769,-1.8908,-1.8969,-1.9035,-0.5744,-0.6677,-0.7148,-0.7919,-0.8013,-0.7867,-0.7713,-0.6991,-0.6317,-0.5918,-0.5422,0.0,0.0,0.0,0.0,0.0,0.0,0.0,-0.7006,-0.7952,-0.8729,0.0,-0.9712,0.0,-1.1531,-1.195,-1.2393,0.0,-1.3397,-1.3624,-1.3534,-1.3491,-1.3491,-1.3491,-1.3491,-1.3324,-1.2969,-1.257,-1.2276,-1.2098,-1.2573,-1.2699,-1.2528,-1.3408,-1.3866,-1.3986,-1.4657,-1.5247,-1.5737,-1.6378,-1.6892,-1.7342,-1.754,-1.7639,-1.7581,-1.7416,-1.7479,-1.7639,-1.7268,-1.7497,-1.7957,-1.7798,-1.8096,-1.8598,-1.8807,-1.9145,-1.9495,-1.9678,-2.008,-2.0488,-2.0667,-2.0913,-2.111,-2.1254,-2.1318,-2.1365,-2.1553,-2.1446,-2.1374,-2.1564,-2.1385,-2.119,-2.119,-2.119,-2.119,-2.119,-2.0695,-2.0176,-1.9698,-1.8954,-1.8191,-1.7378,-1.7571,-1.7836,-1.7969,-1.8519,-1.8799,-1.8652,-1.8836,-1.8735,-1.8222,-1.8386,-1.8498,-1.8498,-1.8498,-1.8498,-1.8498,-1.8576,-1.8634,-1.8692,-1.8736,-1.8779,-0.4598,-0.535,-0.5786,-0.7062,-0.7304,-0.7048,-0.6215,-0.5635,-0.5069,-0.4236,0.0,-0.4155,-0.4299,-0.4476,-0.4722,-0.5138,0.0,-0.5822,-0.6551,-0.6958,-0.7541,-0.8612,-0.8783,-0.912,-1.0134,-1.1028,-1.1463,-1.1365,-1.2646,-1.3389,-1.3394,-1.3394,-1.3394,-1.3394,-1.3394,-1.3197,-1.28,-1.2524,-1.2182,-1.1741,-1.1937,-1.1777,-1.1397,-1.2207,-1.2679,-1.2912,-1.3564,-1.4411,-1.5371,-1.5496,-1.6136,-1.7028,-1.7071,-1.7345,-1.7668,-1.736,-1.7514,-1.7778,-1.7549,-1.7838,-1.8184,-1.7342,-1.7504,-1.8,-1.7655,-1.8171,-1.8953,-1.9292,-1.9777,-2.0275,-2.0663,-2.076,-2.0779,-2.0807,-2.0594,-2.0403,-2.0484,-2.0449,-2.0565,-2.0982,-2.1094,-2.1126,-2.1126,-2.1158,-2.119,-2.119,-2.0733,-2.0262,-1.9849,-1.9076,-1.8152,-1.7083,-1.7603,-1.7832,-1.7403,-1.8016,-1.824,-1.783,-1.821,-1.8211,-1.7713,-1.8095,-1.8327,-1.8327,-1.838,-1.842,-1.842,-1.8478,-1.8556,-1.8673,-1.8673,-1.8697,-0.3698,-0.4151,-0.4308,-0.4874,-0.4657,-0.4381,-0.4543,-0.3862,0.0,0.0,0.0,-0.3609,-0.3848,-0.4279,0.0,-0.5211,0.0,0.0,0.0,0.0,-0.708,0.0,0.0,0.0,0.0,0.0,0.0,0.0,-1.0538,-1.1326,-1.2856,-1.291,-1.291,-1.291,-1.291,-1.2888,-1.2802,-1.2525,-1.2281,-1.2035,-1.2082,-1.1912,-1.1639,-1.1811,-1.2009,-1.2265,-1.2718,0.0,-1.3619,-1.4528,-1.5357,-1.6169,-1.6484,-1.7062,-1.7692,-1.7636,-1.7474,-1.7337,-1.7568,-1.7389,-1.7122,-1.7622,-1.8134,-1.8425,-1.8008,-1.8029,-1.8193,-1.8273,-1.8345,-1.8535,-1.8924,-1.9044,-1.9087,-1.9237,-1.9186,-1.907,-1.8939,-1.9223,-1.9669,-2.0183,-2.0495,-2.07,-2.07,-2.0967,-2.119,-2.119,-2.0733,-2.0377,-2.0297,-1.9425,-1.8449,-1.7426,-1.7775,-1.8118,-1.8191,-1.8731,-1.8846,-1.8403,-1.8533,-1.82,-1.7178,-1.7331,-1.7427,-1.7427,-1.774,-1.7922,-1.7922,-1.8307,-1.8517,-1.8537,-1.8537,-1.8537,-0.2528,-0.2872,-0.311,-0.3911,-0.3786,-0.3406,-0.304,0.0,0.0,0.0,-0.2072,-0.2432,-0.3234,0.0,0.0,0.0,0.0,0.0,0.0,0.0,0.0,0.0,0.0,0.0,0.0,0.0,0.0,0.0,-0.9456,-1.0444,-1.1868,-1.2516,-1.2813,-1.2813,-1.2813,-1.2813,-1.2813,-1.2533,-1.2355,-1.2237,-1.2154,-1.2035,-1.1927,-1.1927,-1.1986,-1.2135,-1.2281,-1.266,-1.3144,-1.367,-1.4424,-1.5234,-1.5422,-1.5843,-1.6334,-1.6171,-1.6097,-1.6154,-1.6031,-1.6268,-1.6638,-1.6956,-1.7474,-1.7944,-1.7767,-1.7838,-1.8,-1.8,-1.8,-1.8034,-1.8254,-1.8442,-1.8576,-1.8481,-1.8204,-1.7913,-1.7791,-1.8071,-1.8489,-1.9133,-1.9408,-1.9507,-1.9519,-1.9759,-2.0063,-2.0409,-2.0104,-1.9879,-2.0007,-1.9608,-1.8919,-1.7886,-1.7974,-1.8028,-1.7885,-1.8126,-1.8076,-1.763,-1.7643,-1.7325,-1.6561,-1.6833,-1.7156,-1.751,-1.7421,-1.7546,-1.7906,-1.7841,-1.7814,-1.7835,-1.8036,-1.8135,-0.1167,-0.1484,-0.1715,-0.2736,-0.285,-0.2462,-0.1608,-0.1236,0.0,0.0,-0.0882,-0.1361,-0.241,0.0,0.0,0.0,0.0,0.0,0.0,0.0,0.0,0.0,0.0,0.0,0.0,0.0,0.0,0.0,-0.8665,-0.9702,-1.0779,-1.1868,-1.2462,-1.2462,-1.2662,-1.2813,-1.2813,-1.2581,-1.2441,-1.2334,-1.2289,-1.2191,-1.2094,-1.2148,-1.2197,-1.2245,-1.2191,-1.2479,-1.3032,-1.3032,-1.3606,-1.444,-1.444,-1.4713,-1.5073,-1.4803,-1.4862,-1.5015,-1.4673,-1.5185,-1.5956,-1.5908,-1.6534,-1.7384,-1.7475,-1.7662,-1.7895,-1.8094,-1.8059,-1.8034,-1.8196,-1.8434,-1.8494,-1.8085,-1.7635,-1.7257,-1.7148,-1.7309,-1.7622,-1.8168,-1.8377,-1.8474,-1.8422,-1.859,-1.8924,-1.9508,-1.9287,-1.9161,-1.9392,-1.9257,-1.8876,-1.8158,-1.8189,-1.802,-1.7453,-1.7499,-1.7295,-1.6655,-1.6681,-1.6485,-1.5954,-1.6309,-1.6809,-1.7435,-1.7042,-1.7179,-1.7965,-1.7549,-1.7392,-1.7543,-1.7748,-1.7834,0.0274,0.0169,0.0114,-0.0272,-0.035,-0.0273,-0.0209,0.0,0.0,-0.0097,-0.0535,-0.0988,-0.1232,-0.1715,-0.2352,0.0,0.0,-0.3716,0.0,0.0,0.0,0.0,0.0,0.0,0.0,0.0,0.0,0.0,-0.7528,-0.8616,-0.9702,-1.0779,-1.137,-1.137,-1.2268,-1.2813,-1.2813,-1.2791,-1.2559,-1.2132,-1.2548,-1.2516,-1.21,-1.228,-1.2495,-1.2732,-1.2474,-1.2548,0.0,-1.2839,-1.3284,-1.3962,-1.3962,-1.4411,-1.5099,-1.5073,-1.4895,-1.4703,-1.4961,-1.4705,-1.4379,-1.4656,-1.5881,-1.7299,-1.7728,-1.7664,-1.7621,-1.836,-1.8297,-1.8153,-1.8888,-1.8828,-1.8494,-1.8085,-1.7715,-1.7402,-1.7225,-1.7433,-1.7643,-1.7515,-1.8049,-1.8393,-1.8095,-1.8297,-1.86,-1.8867,-1.8553,-1.834,-1.8511,-1.7829,-1.7501,-1.7959,-1.8504,-1.8426,-1.7488,-1.7806,-1.7447,-1.6061,-1.6495,-1.6347,-1.5403,-1.5536,-1.584,-1.635,-1.6254,-1.6754,-1.7915,-1.7808,-1.8063,-1.865,-1.8196,-1.797,0.0575,0.0598,0.0608,0.053,0.0433,0.0431,0.0364,0.0,0.0159,0.0123,-0.0121,-0.048,-0.0838,-0.1138,-0.1575,-0.2293,-0.2399,0.0,0.0,0.0,0.0,0.0,0.0,0.0,0.0,0.0,0.0,0.0,-0.6334,-0.6731,-0.7176,-0.9103,-1.0243,-1.0243,-1.0641,-1.1179,-1.1814,-1.1819,-1.2073,-1.2526,-1.2721,-1.264,-1.2274,-1.2517,-1.2597,-1.2554,-1.2603,-1.2678,0.0,-1.2813,-1.2953,-1.3238,-1.3238,-1.3431,-1.3698,-1.3547,-1.3476,-1.3488,-1.3327,-1.3602,-1.3977,-1.3805,-1.4611,-1.5665,-1.5763,-1.5762,-1.5824,-1.6152,-1.6637,-1.709,-1.7423,-1.7863,-1.822,-1.8034,-1.7749,-1.7398,-1.7107,-1.6952,-1.6832,-1.6732,-1.6794,-1.6837,-1.6709,-1.6881,-1.7217,-1.7687,-1.7498,-1.7399,-1.7631,-1.7083,-1.6674,-1.667,-1.7412,-1.7856,-1.7821,-1.7435,-1.6954,-1.6346,-1.597,-1.5752,-1.5672,-1.5707,-1.616,-1.7023,-1.6704,-1.6967,-1.7831,-1.7557,-1.7577,-1.7834,-1.7987,-1.8058,0.0777,0.0816,0.0887,0.0754,0.0683,0.0651,0.0,0.0,0.0337,0.0267,0.0177,0.0,-0.0377,-0.0484,-0.0711,-0.1367,-0.147,-0.1803,0.0,0.0,0.0,0.0,0.0,0.0,0.0,0.0,0.0,-0.5636,-0.5586,-0.5572,-0.5594,-0.7365,-0.8547,-0.8939,-0.9184,-0.9742,-1.0504,-1.0452,-1.0765,-1.1434,-1.1738,-1.174,-1.1556,-1.2018,-1.2129,-1.1994,-1.2223,-1.2249,0.0,-1.2463,-1.2528,-1.2517,-1.2732,-1.277,-1.2651,-1.2554,-1.2576,-1.2672,-1.2402,-1.2853,-1.3513,-1.3199,-1.3478,-1.3896,-1.3792,-1.4136,-1.4648,-1.4908,-1.5535,-1.6148,-1.6008,-1.678,-1.7619,-1.7619,-1.7626,-1.7535,-1.7167,-1.6915,-1.6701,-1.6396,-1.6225,-1.6062,-1.584,-1.5938,-1.6202,-1.6707,-1.6441,-1.6263,-1.657,-1.6059,-1.5653,-1.5555,-1.6036,-1.6582,-1.7036,-1.6711,-1.6334,-1.5954,-1.569,-1.5659,-1.5889,-1.6038,-1.657,-1.7537,-1.7025,-1.7159,-1.7967,-1.7539,-1.7449,-1.7679,-1.7946,-1.8177,0.0991,0.1004,0.104,0.0681,0.0589,0.0578,0.0,0.0,0.0489,0.0415,0.0383,0.0408,0.0395,0.0393,0.0224,-0.0337,-0.0589,0.0,0.0,0.0,0.0,0.0,0.0,0.0,0.0,0.0,0.0,-0.5586,-0.5586,0.0,-0.5494,-0.554,-0.6117,-0.7366,-0.8275,-0.8771,-0.8936,-0.8645,-0.8417,-0.8261,-0.9209,-0.9579,-0.955,-1.0495,-1.092,-1.0934,-1.1152,-1.101,0.0,-1.1654,-1.1892,-1.1799,-1.2517,-1.2619,-1.2447,-1.2678,-1.2614,-1.2452,-1.2678,-1.2807,-1.2807,-1.2807,-1.2651,-1.2371,-1.2164,-1.3207,-1.4573,-1.5348,-1.5603,-1.5504,-1.5118,-1.5869,-1.6698,-1.6698,-1.7367,-1.7889,-1.7583,-1.7757,-1.7649,-1.6604,-1.6653,-1.667,-1.5925,-1.5805,-1.5867,-1.6061,-1.5441,-1.4985,-1.5189,-1.4529,-1.424,-1.4855,-1.462,-1.4517,-1.4728,-1.5653,-1.5689,-1.4506,-1.5794,-1.6382,-1.5925,-1.6348,-1.6853,-1.7396,-1.6887,-1.7205,-1.8383,-1.7845,-1.8026,-1.8774,-1.8251,-1.8345,0.1945,0.2131,0.2285,0.1774,0.1906,0.2142,0.2079,0.1976,0.1742,0.1317,0.1108,0.0936,0.0646,0.0505,0.0395,0.0347,0.0232,0.0,0.0,0.0,0.0,0.0,0.0,0.0,0.0,0.0,0.0,-0.5035,-0.5035,-0.5047,-0.4956,-0.4952,-0.5308,-0.5997,-0.6325,-0.6824,-0.758,-0.7526,-0.778,-0.8417,-0.8703,-0.878,-0.8699,-0.9155,-0.931,-0.9169,-1.0008,-1.0224,-1.0019,-1.0906,-1.1138,-1.1052,-1.1261,-1.1387,-1.1395,-1.1744,-1.1957,-1.2154,-1.2411,-1.2527,-1.2527,-1.2527,-1.2474,-1.2371,-1.217,-1.2444,-1.303,-1.3863,-1.397,-1.3972,-1.4643,-1.5074,-1.5448,-1.591,-1.6239,-1.6634,-1.7275,-1.7303,-1.7181,-1.7145,-1.6836,-1.6493,-1.6253,-1.5968,-1.5746,-1.5506,-1.5257,-1.4955,-1.4501,-1.4224,-1.4026,-1.395,-1.3847,-1.4242,-1.5357,-1.5324,-1.519,-1.5013,-1.5252,-1.5472,-1.569,-1.6234,-1.6753,-1.7246,-1.7512,-1.7817,-1.8193,-1.8151,-1.8365,-1.8798,-1.8631,-1.8694,0.0,0.2904,0.3017,0.2546,0.2707,0.2893,0.2797,0.2662,0.247,0.2082,0.1733,0.1398,0.1148,0.0812,0.0621,0.0749,0.0665,0.0,0.0,0.0,0.0,0.0,0.0,0.0,0.0,0.0,-0.3225,-0.413,-0.418,-0.4335,-0.4663,-0.4657,-0.4743,-0.4983,-0.5015,-0.5388,-0.6129,-0.6034,-0.6305,-0.6936,-0.7217,-0.7293,-0.7303,-0.7724,-0.7858,-0.7738,-0.8516,-0.8678,0.0,-0.939,-0.981,-0.9916,-1.0203,-1.0478,-1.0724,-1.1236,-1.1486,-1.168,-1.2008,-1.2145,-1.2129,-1.2043,-1.1951,-1.1881,-1.1908,-1.2024,-1.2161,-1.2528,-1.2594,-1.277,-1.3398,-1.3909,-1.4329,-1.474,-1.5074,-1.5538,-1.6214,-1.6166,-1.6052,-1.619,-1.6057,-1.5837,-1.5597,-1.5531,-1.5405,-1.5026,-1.4858,-1.4621,-1.4179,-1.3973,-1.3785,-1.3536,-1.3391,-1.3744,-1.4836,-1.4653,-1.4547,-1.4711,-1.4881,-1.5178,-1.5594,-1.6363,-1.6907,-1.7191,-1.7584,-1.7881,-1.8084,-1.8313,-1.8476,-1.8637,-1.8744,-1.8851,0.0,0.3439,0.0,0.0,0.3113,0.3078,0.2906,0.2858,0.0,0.2809,0.2347,0.1931,0.1824,0.1346,0.0956,0.0906,0.0,0.0,0.0,0.0,0.0,0.0,0.0,0.0,0.0,0.0,-0.1914,-0.3016,-0.3167,-0.3561,-0.4429,-0.4563,-0.4481,-0.4304,-0.4375,-0.447,-0.4661,-0.4433,-0.43,-0.43,-0.5015,-0.5383,-0.5532,-0.6222,-0.6545,0.0,-0.682,-0.6679,-0.6415,-0.7406,-0.802,-0.8412,-0.9192,-0.9685,-1.0137,-1.0842,-1.0975,-1.0845,-1.1292,-1.1494,-1.1474,-1.1261,-1.1128,-1.1069,-1.1472,-1.1801,-1.1932,-1.1445,-1.1652,-1.1932,-1.1711,-1.2448,-1.3288,-1.3343,-1.3964,-1.4538,-1.4643,-1.4678,-1.4532,-1.4192,-1.4614,-1.4818,-1.4184,-1.4561,-1.4846,-1.4498,-1.4177,-1.3983,-1.3922,-1.3653,-1.3445,-1.342,-1.3181,-1.3151,-1.3476,-1.3707,-1.3839,-1.3787,-1.468,-1.5295,-1.5481,-1.6503,-1.7062,-1.7062,-1.7118,-1.7407,-1.7975,-1.8166,-1.8286,-1.834,-1.8572,-1.8744,0.4933,0.0,0.4394,0.3898,0.4121,0.444,0.0,0.4369,0.4243,0.3793,0.0,0.0,0.2198,0.188,0.0,0.0,0.0,0.0,0.0,0.0,0.0,0.0,0.0,0.0,0.0,0.0,-0.0851,-0.1975,-0.2711,-0.32,-0.3357,-0.4048,-0.4416,-0.4302,-0.4257,-0.4299,-0.4389,-0.4344,-0.43,-0.43,-0.4478,-0.4617,-0.4708,-0.4848,-0.494,-0.4991,-0.5748,-0.5899,-0.5694,-0.66,-0.695,-0.6926,-0.7082,-0.7319,-0.7636,-0.8215,-0.8432,-0.8479,-0.9017,-0.9323,-0.9553,-1.0022,-1.0521,-1.0962,-1.0783,-1.0979,-1.1332,-1.1542,-1.1526,-1.1462,-1.1408,-1.1602,-1.1986,-1.2685,-1.2881,-1.3217,-1.4236,-1.4323,-1.4225,-1.4518,-1.4432,-1.4231,-1.3935,-1.3741,-1.3474,-1.2912,-1.2892,-1.2779,-1.225,-1.2694,-1.2955,-1.2758,-1.3124,-1.3417,-1.3502,-1.3412,-1.3484,-1.3767,-1.413,-1.4332,-1.4361,-1.5197,-1.568,-1.568,-1.6216,-1.6585,-1.6708,-1.6765,-1.7073,-1.7639,-1.7694,-1.8061,0.5864,0.5508,0.4995,0.4615,0.4759,0.4964,0.4912,0.0,0.0,0.0,0.0,0.0,0.0,0.0,0.0,0.0,0.0,0.0,0.0,0.0,0.0,0.0,0.0,0.0,0.0,0.1027,0.0543,-0.0678,-0.1256,-0.1764,-0.2314,-0.2817,-0.3096,-0.3002,-0.2967,-0.3361,-0.424,-0.424,-0.424,-0.424,-0.4279,-0.4324,-0.4373,-0.4373,-0.4373,-0.4375,-0.4881,-0.5024,-0.4933,-0.5446,-0.5743,-0.5949,-0.5958,-0.6214,-0.6632,-0.7117,-0.7337,-0.7394,-0.7752,-0.7892,-0.7939,-0.8303,-0.8707,-0.9048,-0.8946,-0.9115,-0.9582,-1.1005,-1.1278,-1.1139,-1.1139,-1.1059,-1.1121,-1.1772,-1.1861,-1.196,-1.2806,-1.2844,-1.2826,-1.3069,-1.3239,-1.3209,-1.2802,-1.2824,-1.2665,-1.2116,-1.212,-1.2006,-1.1563,-1.1902,-1.2138,-1.1957,-1.2266,-1.2512,-1.2573,-1.2466,-1.2811,-1.3752,-1.386,-1.395,-1.401,-1.4765,-1.5235,-1.5294,-1.5968,-1.6169,-1.5882,-1.6169,-1.651,-1.6905,-1.6961,-1.7213,0.6615,0.6109,0.5441,0.5334,0.5234,0.514,0.499,0.0,0.0,0.0,0.0,0.0,0.0,0.0,0.0,0.0,0.0,0.0,0.0,0.0,0.0,0.0,0.0,0.0,0.2223,0.2266,0.1791,0.0664,0.0474,-0.0094,-0.1196,-0.1375,-0.144,-0.1388,-0.1378,-0.2145,-0.3655,-0.3884,-0.3984,-0.3998,-0.42,-0.4279,-0.4279,-0.4279,-0.4271,-0.4259,-0.4259,0.0,-0.4285,-0.4363,-0.4718,-0.5245,-0.5289,-0.5628,-0.6118,-0.6508,-0.6623,-0.6587,-0.6829,-0.6756,-0.6573,-0.6612,-0.6689,-0.683,-0.7017,-0.7111,-0.7657,-0.98,-1.059,-1.0721,-1.0809,-1.0701,-1.0662,-1.0977,-1.0982,-1.1009,-1.1246,-1.1278,-1.1252,-1.1252,-1.1755,-1.2037,-1.1526,-1.1856,-1.1995,-1.1552,-1.1477,-1.1394,-1.1182,-1.124,-1.1267,-1.1185,-1.1233,-1.1298,-1.1454,-1.1485,-1.2043,-1.3359,-1.3549,-1.37,-1.395,-1.4617,-1.5059,-1.5177,-1.5719,-1.5748,-1.5245,-1.5777,-1.6083,-1.6169,-1.6283,-1.641,0.7358,0.676,0.6155,0.6194,0.586,0.5477,0.5288,0.0,0.0,0.0,0.0,0.0,0.0,0.0,0.0,0.0,0.0,0.0,0.0,0.0,0.0,0.0,0.0,0.2213,0.2182,0.2204,0.2138,0.1909,0.116,0.0597,0.036,-0.0442,-0.0916,-0.091,-0.0919,-0.1023,-0.1309,-0.2463,-0.3024,-0.3125,-0.3879,-0.4235,-0.4235,-0.4235,-0.4151,-0.4033,0.0,-0.412,-0.4237,-0.4208,-0.4335,-0.448,-0.4493,-0.4533,-0.461,-0.4696,-0.4626,-0.4529,-0.4938,-0.5305,-0.5574,-0.5735,-0.623,-0.6734,-0.6458,-0.6595,-0.6989,-0.7605,-0.8613,-0.9582,-1.0029,-1.037,-1.0705,-1.1144,-1.0946,-1.0769,-1.1209,-1.1187,-1.1042,-1.1042,-1.1126,-1.1182,-1.1106,-1.0842,-1.0617,-1.0539,-1.0453,-1.0353,-1.0098,-1.0533,-1.0791,-1.0561,-1.0853,-1.1111,-1.1298,-1.1329,-1.1485,-1.1826,-1.2389,-1.3039,-1.3799,-1.395,-1.407,-1.421,-1.4458,-1.4556,-1.4476,-1.4675,-1.5049,-1.5555,-1.5555,-1.6026,0.8067,0.7491,0.6881,0.7437,0.6551,0.5552,0.5578,0.5517,0.0,0.0,0.0,0.0,0.0,0.0,0.0,0.0,0.0,0.0,0.0,0.0,0.0,0.0,0.0,0.2567,0.2564,0.2629,0.2559,0.2372,0.1935,0.1602,0.1454,0.0992,0.0678,0.0669,0.0656,0.0645,0.0677,-0.0402,-0.1227,-0.1756,-0.2201,-0.2428,-0.2428,-0.277,-0.2882,-0.2853,-0.3444,-0.3593,-0.3459,-0.3927,-0.3992,-0.3851,-0.407,-0.4157,-0.4151,-0.4102,-0.4032,-0.3983,-0.4165,-0.4345,-0.4496,-0.4616,-0.4885,-0.5154,-0.4963,-0.5045,-0.5328,-0.5717,-0.6835,-0.7994,-0.8372,-0.8626,-0.886,-0.9155,-0.9167,-0.9192,-0.954,-0.9615,-0.9583,-0.9583,-1.0022,-1.0329,-1.0083,-1.0288,-1.039,-1.0132,-1.0068,-0.9948,-0.9714,-0.9818,-0.9869,-0.9707,-0.9772,-0.9862,-1.0053,-1.0053,-1.0458,-1.1447,-1.1788,-1.2197,-1.2704,-1.3078,-1.3321,-1.345,-1.392,-1.4207,-1.4297,-1.4366,-1.4565,-1.4911,-1.5128,-1.5478,0.8674,0.8105,0.7518,0.8435,0.7118,0.5743,0.6219,0.6188,0.0,0.0,0.0,0.0,0.0,0.0,0.0,0.0,0.0,0.0,0.0,0.0,0.0,0.0,0.3475,0.3064,0.2917,0.2932,0.2838,0.2587,0.249,0.2416,0.2243,0.2196,0.2105,0.2056,0.2055,0.2033,0.2026,0.1368,0.0515,-0.0486,-0.0742,-0.0873,-0.0873,-0.1372,-0.1534,-0.1569,-0.2396,-0.2654,-0.2587,-0.3212,-0.3388,-0.3276,-0.3615,-0.3699,-0.369,-0.3646,-0.3655,-0.3764,-0.3677,-0.3724,-0.3802,-0.3802,-0.3802,-0.3802,-0.3802,-0.3851,-0.3972,-0.4371,-0.5273,-0.6215,-0.681,-0.7025,-0.7173,-0.7418,-0.7521,-0.7677,-0.7971,-0.8096,-0.8135,-0.8175,-0.8773,-0.9195,-0.8977,-0.943,-0.9742,-0.9438,-0.938,-0.9283,-0.9121,-0.8856,-0.8734,-0.8822,-0.866,-0.863,-0.8931,-0.8985,-0.955,-1.0829,-1.1142,-1.1399,-1.1703,-1.2358,-1.2795,-1.2887,-1.3601,-1.4019,-1.4178,-1.4267,-1.4357,-1.4465,-1.4888,-1.5148,0.9067,0.8557,0.8079,0.8644,0.7374,0.6301,0.7566,0.7627,0.0,0.7547,0.0,0.0,0.0,0.0,0.0,0.0,0.0,0.0,0.0,0.0,0.0,0.4366,0.4015,0.3601,0.2952,0.2775,0.2733,0.2786,0.2733,0.2657,0.2656,0.2599,0.2539,0.2441,0.2438,0.241,0.2351,0.2366,0.1706,0.0406,-0.0406,-0.0812,-0.0812,-0.0852,-0.0803,-0.0709,-0.0787,-0.1156,-0.1791,-0.1832,-0.2268,-0.286,-0.286,-0.2902,-0.2853,-0.2747,-0.2964,-0.3317,-0.3204,-0.3452,-0.3802,-0.3802,-0.3802,-0.3802,-0.3802,-0.3806,-0.381,-0.3843,-0.3919,-0.4345,-0.5867,-0.6549,-0.6921,-0.7234,-0.72,-0.7137,-0.7494,-0.7446,-0.7435,-0.755,-0.7503,-0.7613,-0.8004,-0.7767,-0.7629,-0.7922,-0.7806,-0.7647,-0.7638,-0.7401,-0.7479,-0.8035,-0.7833,-0.8004,-0.8754,-0.8926,-0.9049,-0.9172,-1.0066,-1.085,-1.1485,-1.2166,-1.2543,-1.2543,-1.339,-1.383,-1.383,-1.4148,-1.4297,-1.4345,-1.4857,-1.5294,0.8978,0.8592,0.8235,0.8937,0.8037,0.0,0.0,0.8125,0.8274,0.8222,0.8227,0.0,0.0,0.0,0.0,0.0,0.0,0.0,0.0,0.0,0.6408,0.6123,0.5367,0.4806,0.4549,0.436,0.4248,0.4284,0.3743,0.3389,0.3381,0.2794,0.2477,0.2454,0.2454,0.2461,0.2476,0.2499,0.2245,0.1748,0.1429,0.1269,0.123,0.0873,0.0711,0.0744,0.0078,-0.0236,-0.0318,-0.0795,-0.1038,-0.1127,-0.1811,-0.2296,-0.2617,-0.2553,-0.2664,-0.2779,-0.2755,-0.302,-0.3374,-0.3374,-0.3569,-0.3802,-0.3802,-0.3802,-0.3802,-0.3802,-0.3802,-0.3958,-0.454,-0.4927,-0.514,-0.5274,-0.5337,-0.5427,-0.5603,-0.5667,-0.5705,-0.5754,-0.6249,-0.6654,-0.6651,-0.7057,-0.7418,-0.743,-0.747,-0.7502,-0.7502,-0.7208,-0.722,-0.7938,-0.824,-0.8521,-0.8837,-0.8992,-0.9053,-0.9053,-0.9491,-0.9875,-1.0117,-1.0874,-1.1257,-1.1257,-1.1989,-1.242,-1.2551,-1.2673,-1.2878,-1.3128,-1.4215,-1.4894,0.8731,0.8451,0.8273,0.0,0.0,0.0,0.8605,0.9013,0.9318,0.926,0.892,0.0,0.0,0.0,0.0,0.0,0.0,0.0,0.0,0.7837,0.7433,0.7207,0.6394,0.5757,0.5593,0.5448,0.5319,0.5281,0.4651,0.4231,0.4166,0.3572,0.3194,0.3207,0.2935,0.2812,0.2839,0.2577,0.2481,0.2481,0.2501,0.2511,0.247,0.2078,0.1882,0.1843,0.1097,0.0823,0.0863,0.0313,0.0118,0.0118,-0.0627,-0.1176,-0.1529,-0.1529,-0.1608,-0.1724,-0.1724,-0.196,-0.2353,-0.255,-0.2862,-0.3136,-0.3331,-0.3372,-0.3411,-0.3528,-0.3569,-0.3608,-0.3765,-0.3921,-0.4016,-0.4077,-0.417,-0.4312,-0.4374,-0.4426,-0.4494,-0.4494,-0.5066,-0.5502,-0.5335,-0.5944,-0.6407,-0.6338,-0.6426,-0.6538,-0.6538,-0.6277,-0.6363,-0.707,-0.7801,-0.822,-0.818,-0.8277,-0.8407,-0.8615,-0.8723,-0.8914,-0.921,-1.0002,-1.0446,-1.0446,-1.1149,-1.1578,-1.1703,-1.1764,-1.1947,-1.2236,-1.3517,-1.4205,0.8327,0.8253,0.0,0.0,0.0,0.0,1.0262,1.0498,1.0749,1.0889,0.0,0.8747,0.8468,0.0,0.0,0.0,0.0,0.0,0.8387,0.8216,0.7883,0.7297,0.6786,0.6336,0.5844,0.5683,0.5568,0.5419,0.5336,0.5205,0.5033,0.4988,0.4968,0.4919,0.411,0.369,0.3602,0.2836,0.2418,0.2418,0.248,0.251,0.2511,0.2511,0.2511,0.2511,0.2511,0.2156,0.1607,0.1607,0.1216,0.0628,0.0628,0.0589,0.0589,0.0589,0.0353,0.0,0.0,-0.0274,-0.0705,-0.1371,-0.1568,-0.1685,-0.2314,-0.247,-0.255,-0.2982,-0.3062,-0.3178,-0.3645,-0.3763,-0.381,-0.3948,-0.3992,-0.4017,-0.4151,-0.4099,-0.3992,-0.3992,-0.3961,-0.398,-0.4144,-0.4185,-0.423,-0.4362,-0.4384,-0.4384,-0.4382,-0.4335,-0.4557,-0.5218,-0.6198,-0.673,-0.6619,-0.6603,-0.6877,-0.7564,-0.7664,-0.8064,-0.8952,-0.9831,-1.03,-1.03,-1.108,-1.1485,-1.1485,-1.1671,-1.1772,-1.1794,-1.2812,-1.331,0.8663,0.8537,0.0,0.0,0.0,0.0,0.0,1.0465,0.0,0.0,0.0,1.0184,0.961,0.0,0.0,0.803,0.8308,0.8442,0.8038,0.8052,0.802,0.7838,0.7593,0.7372,0.7236,0.7049,0.6916,0.6883,0.6288,0.59,0.578,0.5246,0.4917,0.4916,0.467,0.4572,0.4583,0.4362,0.4213,0.4213,0.3884,0.3257,0.2511,0.2511,0.2511,0.2511,0.2511,0.2392,0.2235,0.2235,0.1882,0.1294,0.1294,0.102,0.0589,0.0589,0.051,0.0432,0.0432,0.0157,-0.0196,-0.0392,-0.0666,-0.094,-0.1097,-0.1175,-0.1175,-0.1293,-0.1332,-0.1371,-0.1528,-0.1566,-0.1925,-0.351,-0.3844,-0.3869,-0.3961,-0.3959,-0.394,-0.394,-0.3918,-0.3919,-0.3934,-0.4042,-0.4152,-0.4199,-0.4309,-0.4358,-0.4289,-0.4699,-0.5058,-0.5143,-0.6147,-0.6756,-0.6624,-0.6714,-0.6872,-0.7027,-0.6868,-0.7414,-0.8797,-0.921,-0.9396,-0.9396,-0.9773,-0.9958,-0.9958,-1.0098,-1.0367,-1.0747,-1.1581,-1.2349,0.8627,0.0,0.0,0.0,0.0,0.0,0.0,0.0,0.0,0.0,0.0,0.0,1.0606,1.0007,0.0,0.8919,0.9103,0.9073,0.8413,0.8359,0.8299,0.8106,0.7904,0.782,0.7898,0.7801,0.7703,0.7626,0.7123,0.6792,0.6676,0.6191,0.5917,0.5917,0.5582,0.5385,0.5433,0.5102,0.4953,0.4956,0.4651,0.4164,0.3495,0.3044,0.2855,0.2855,0.2855,0.2926,0.3017,0.2948,0.2643,0.2194,0.2172,0.1817,0.1314,0.1301,0.126,0.126,0.126,0.1151,0.0927,0.0657,0.0467,0.0235,-0.0039,-0.0118,-0.0157,-0.0313,-0.0352,-0.0392,-0.0548,-0.0587,-0.0942,-0.2297,-0.2619,-0.263,-0.2668,-0.2718,-0.2753,-0.2727,-0.2801,-0.2869,-0.2827,-0.2899,-0.2978,-0.2978,-0.3093,-0.3105,-0.2994,-0.3461,-0.3885,-0.4044,-0.4814,-0.5411,-0.5742,-0.5808,-0.6001,-0.6427,-0.6203,-0.6638,-0.7937,-0.8063,-0.8105,-0.8131,-0.8273,-0.8533,-0.8958,-0.8971,-0.9346,-0.9985,-1.0618,-1.1269,0.8471,0.0,0.0,0.0,0.0,0.0,0.0,0.0,0.0,0.0,0.0,0.0,1.1421,1.064,0.9994,0.9928,1.0073,0.9961,0.9269,0.9021,0.873,0.8279,0.8064,0.7986,0.8085,0.81,0.7979,0.7745,0.7697,0.7645,0.7446,0.7437,0.7437,0.7437,0.6637,0.6179,0.6163,0.5467,0.513,0.5121,0.5131,0.5122,0.5101,0.4054,0.3559,0.3559,0.3559,0.3699,0.3936,0.3802,0.3516,0.32,0.3121,0.2827,0.2442,0.2354,0.2303,0.2307,0.2307,0.2339,0.2306,0.1741,0.1611,0.1559,0.0938,0.0783,0.0704,0.0313,0.0235,0.0157,-0.0234,-0.0312,-0.0353,-0.0479,-0.0644,-0.0766,-0.0805,-0.0928,-0.1005,-0.0904,-0.1058,-0.1253,-0.125,-0.1249,-0.1249,-0.1288,-0.1291,-0.1243,-0.114,-0.1391,-0.1772,-0.232,-0.2691,-0.3253,-0.4152,-0.4054,-0.441,-0.5448,-0.5367,-0.563,-0.6446,-0.6611,-0.6751,-0.6783,-0.6847,-0.7366,-0.8285,-0.8177,-0.8549,-0.9394,-0.9799,-1.0004,0.0,0.8867,0.0,0.0,0.0,0.0,0.0,0.0,0.0,0.0,0.0,0.0,0.0,1.1887,1.142,1.083,1.0789,1.0541,0.9752,0.9606,0.9497,0.9225,0.9152,0.8873,0.8228,0.8185,0.787,0.7069,0.7024,0.7,0.6958,0.6953,0.6953,0.6953,0.6952,0.6863,0.6647,0.6855,0.685,0.6706,0.6298,0.6191,0.6291,0.5182,0.4668,0.4668,0.4668,0.4792,0.4962,0.4761,0.4488,0.4166,0.3732,0.3225,0.2752,0.2412,0.2327,0.2363,0.2363,0.2373,0.2382,0.2231,0.2173,0.212,0.2047,0.202,0.199,0.1988,0.196,0.1913,0.1799,0.1752,0.1746,0.1647,0.0461,-0.0667,-0.0693,-0.0701,-0.0709,-0.0666,-0.0705,-0.0778,-0.0802,-0.0837,-0.0875,-0.1028,-0.12,-0.1291,-0.1245,-0.1327,-0.1405,-0.1545,-0.1783,-0.1928,-0.2042,-0.2168,-0.2311,-0.2525,-0.3124,-0.36,-0.3867,-0.5769,-0.6772,-0.6812,-0.6803,-0.6997,-0.7385,-0.7414,-0.775,-0.8394,-0.8293,-0.8613,0.0,0.0,0.0,0.0,0.0,0.0,0.0,0.0,0.0,0.0,0.0,0.0,0.0,1.1737,1.1458,1.1055,1.0995,1.0747,0.9992,0.984,0.9627,0.923,0.9107,0.8906,0.8438,0.8397,0.8075,0.73,0.7235,0.7116,0.6821,0.6791,0.6791,0.6791,0.6925,0.693,0.6791,0.7033,0.7116,0.7012,0.6736,0.6635,0.671,0.5847,0.5477,0.5534,0.5467,0.556,0.5712,0.56,0.5337,0.5015,0.4671,0.427,0.3845,0.3587,0.3354,0.3179,0.3179,0.3027,0.2809,0.2661,0.2696,0.2847,0.299,0.3078,0.3163,0.3464,0.3515,0.3469,0.3424,0.3411,0.3391,0.3305,0.2024,0.0792,0.0744,0.0675,0.0644,0.0644,0.0568,0.049,0.0446,0.0371,0.0298,0.0226,0.0038,-0.0077,-0.0078,-0.0039,-0.0196,-0.0627,-0.0737,-0.0963,-0.1461,-0.1487,-0.1572,-0.1735,-0.214,-0.2472,-0.2679,-0.3909,-0.4964,-0.5764,-0.5683,-0.5905,-0.6493,-0.6452,-0.6859,-0.7666,-0.7521,-0.7748,0.0,0.0,0.0,0.0,0.0,0.0,0.0,0.0,0.0,0.0,0.0,0.0,0.0,1.1208,1.1094,1.1094,1.1094,1.088,1.0293,1.0128,0.9833,0.9247,0.9072,0.8943,0.8806,0.88,0.8521,0.7841,0.7777,0.7549,0.7062,0.7003,0.7003,0.7003,0.7013,0.6983,0.6861,0.6933,0.6892,0.674,0.6777,0.6773,0.6724,0.6304,0.6184,0.627,0.6199,0.6294,0.6459,0.639,0.6141,0.5816,0.5658,0.536,0.4968,0.4855,0.4528,0.4146,0.4146,0.3905,0.3535,0.3252,0.3395,0.3692,0.3848,0.4003,0.4154,0.4635,0.4676,0.4568,0.4585,0.4582,0.455,0.4429,0.3532,0.2665,0.2677,0.2543,0.2442,0.2442,0.2287,0.2135,0.1991,0.1809,0.1641,0.1565,0.1426,0.1289,0.1355,0.1358,0.1086,0.031,0.0304,-0.0076,-0.105,-0.0957,-0.1018,-0.1347,-0.1459,-0.1646,-0.1895,-0.2037,-0.2768,-0.4185,-0.405,-0.4368,-0.5249,-0.5114,-0.5587,-0.6634,-0.6634,-0.6788,0.0,0.0,0.0,0.0,0.0,0.0,0.0,0.0,0.0,0.0,0.0,0.0,0.0,1.1467,1.1439,1.1439,1.1439,1.1362,1.1151,1.1094,1.1009,1.0745,1.0687,1.0364,0.9625,0.9542,0.9179,0.8276,0.8102,0.8021,0.7919,0.7811,0.7763,0.7763,0.7935,0.7695,0.7072,0.7412,0.7224,0.6548,0.6702,0.6693,0.6558,0.6885,0.7021,0.7058,0.7233,0.7394,0.7562,0.7384,0.7125,0.6773,0.6212,0.5708,0.5203,0.4921,0.4788,0.4783,0.4783,0.4729,0.4674,0.4636,0.4608,0.4619,0.4732,0.4766,0.4789,0.4926,0.4955,0.4935,0.4865,0.4839,0.4769,0.4535,0.4347,0.4188,0.4122,0.4148,0.4179,0.4179,0.4103,0.3827,0.3196,0.2914,0.2568,0.1946,0.1735,0.1651,0.1657,0.1658,0.1547,0.1251,0.1212,0.1111,0.0835,0.0867,0.0857,0.0773,0.0036,-0.0467,-0.0637,-0.1308,-0.1851,-0.2177,-0.2443,-0.2714,-0.3032,-0.2886,-0.3391,-0.4433,-0.4433,-0.4842,1.0347,0.0,0.0,0.0,0.0,0.0,0.0,0.0,0.0,0.0,0.0,0.0,0.0,1.1571,1.1394,1.1394,1.1129,1.0923,1.0851,1.0805,1.0697,1.0616,1.0501,1.0298,0.9894,0.986,0.9583,0.8863,0.8751,0.8554,0.8231,0.8151,0.8125,0.8125,0.8222,0.8093,0.7786,0.7956,0.7849,0.7521,0.7751,0.7739,0.7538,0.8008,0.7828,0.7199,0.7403,0.7546,0.7626,0.7531,0.7414,0.7256,0.7001,0.6732,0.6531,0.6367,0.615,0.5918,0.5918,0.5716,0.5417,0.5208,0.5269,0.5432,0.5527,0.5649,0.5801,0.6135,0.6154,0.6075,0.6041,0.6022,0.6004,0.5859,0.584,0.583,0.5806,0.5058,0.4375,0.4375,0.4369,0.423,0.3922,0.3685,0.3462,0.3172,0.3,0.286,0.2866,0.2871,0.2835,0.2761,0.2761,0.2555,0.2143,0.2046,0.1864,0.1414,0.0893,0.0562,0.0322,-0.0034,-0.0338,-0.0514,-0.1538,-0.2117,-0.2218,-0.2227,-0.2531,-0.3105,-0.3105,-0.3363,0.0,0.0,0.0,0.0,0.0,0.0,0.0,0.0,0.0,0.0,0.0,0.0,0.0,1.1911,1.156,1.1535,1.1183,1.0888,1.0718,1.0624,1.0496,1.0368,1.0213,1.0128,1.0128,1.0128,0.9973,0.955,0.9498,0.9283,0.8836,0.8758,0.8731,0.8731,0.8731,0.8652,0.8521,0.8383,0.8304,0.8304,0.8498,0.8492,0.8323,0.8733,0.8428,0.7583,0.7678,0.771,0.7715,0.7678,0.7604,0.756,0.7614,0.7666,0.7634,0.7542,0.7316,0.7003,0.6933,0.6642,0.6247,0.5972,0.6075,0.6313,0.6441,0.6572,0.6778,0.7167,0.7171,0.704,0.704,0.7005,0.7001,0.7094,0.7053,0.7012,0.6924,0.5881,0.4951,0.4918,0.4918,0.4851,0.4616,0.445,0.4311,0.4164,0.4037,0.3926,0.3937,0.3911,0.3911,0.3841,0.3841,0.3637,0.3088,0.3002,0.2738,0.2109,0.2,0.1826,0.1638,0.1547,0.1413,0.1278,0.0,-0.0871,-0.1276,-0.124,-0.1508,-0.1981,-0.2048,-0.2248,0.0,0.0,0.0,0.0,0.0,0.0,0.0,0.0,0.0,0.0,0.0,0.0,0.0,0.0,1.2291,1.2169,1.2144,1.1907,1.1343,1.1242,1.1074,1.0539,1.047,1.047,1.047,1.047,1.0462,1.0419,1.0316,1.0239,1.0213,1.0025,0.9921,0.9921,0.9921,0.9655,0.9159,0.858,0.8304,0.8304,0.8323,0.8316,0.831,0.8599,0.8689,0.8608,0.8364,0.8268,0.8255,0.8126,0.7905,0.77,0.7978,0.8068,0.8037,0.7705,0.7741,0.7884,0.7559,0.7423,0.7423,0.7391,0.7391,0.7423,0.7423,0.7423,0.7456,0.7493,0.7493,0.7456,0.7456,0.7314,0.7267,0.7596,0.7522,0.7299,0.696,0.6815,0.6712,0.6609,0.6572,0.6309,0.5477,0.5345,0.5084,0.4395,0.4295,0.4264,0.427,0.4272,0.4203,0.4,0.4,0.3939,0.3765,0.3732,0.3735,0.3674,0.3661,0.3648,0.3563,0.3422,0.3353,0.3353,0.288,0.1911,0.0371,0.0873,0.0436,-0.0873,-0.1075,-0.1511,0.0,0.0,0.0,0.0,0.0,0.0,0.0,0.0,0.0,0.0,0.0,0.0,0.0,0.0,1.2885,1.2837,1.256,1.2242,1.203,1.2015,1.194,1.1733,1.1501,1.1334,1.1334,1.0964,1.0769,1.0769,1.0539,1.0419,1.0419,1.0368,1.0308,1.0308,1.0308,1.0231,1.0051,0.9829,0.9718,0.9718,0.9718,0.9718,0.9718,0.9817,0.985,0.9823,0.9443,0.9069,0.8751,0.8699,0.8622,0.8551,0.864,0.8806,0.8985,0.8868,0.9002,0.9256,0.9154,0.909,0.909,0.909,0.909,0.909,0.909,0.9032,0.8967,0.8967,0.8871,0.8741,0.8522,0.8417,0.8382,0.8505,0.8649,0.8643,0.8321,0.7903,0.7712,0.8091,0.7451,0.6872,0.7051,0.6666,0.628,0.6017,0.5877,0.5844,0.5844,0.5716,0.5617,0.555,0.555,0.5336,0.4879,0.4815,0.458,0.404,0.3944,0.3951,0.3946,0.3653,0.3547,0.3678,0.3751,0.3215,0.2047,0.2144,0.1941,0.1441,0.1467,0.0963,0.0,0.0,0.0,0.0,0.0,0.0,0.0,0.0,0.0,0.0,0.0,0.0,0.0,0.0,0.0,1.3501,1.3101,1.2742,1.2672,1.2541,1.2431,1.2395,1.2153,1.199,1.199,1.1651,1.136,1.1217,1.104,1.0888,1.0769,1.0667,1.059,1.0496,1.0496,1.0496,1.0496,1.0496,1.0496,1.0496,1.0496,1.0496,1.0496,1.0496,1.0496,1.0488,1.0164,0.9742,0.9268,0.9225,0.9155,0.9078,0.9175,0.933,0.9528,0.941,0.9624,0.9975,0.9875,0.9907,0.9983,0.9983,0.9983,0.9983,0.9983,0.9926,0.9869,0.9869,0.9773,0.9635,0.9388,0.9327,0.9323,0.9252,0.9498,0.9708,0.9485,0.8849,0.8456,0.8837,0.818,0.7698,0.8237,0.7934,0.7619,0.7619,0.7517,0.7479,0.7479,0.7354,0.7288,0.7288,0.7223,0.699,0.6556,0.6457,0.6209,0.5609,0.5519,0.552,0.5585,0.5268,0.5143,0.5271,0.5452,0.5104,0.4171,0.3476,0.3011,0.278,0.2859,0.2525,0.0,0.0,0.0,0.0,0.0,0.0,0.0,0.0,0.0,0.0,0.0,0.0,0.0,0.0,0.0,1.4028,1.3789,1.3401,1.3212,1.2806,1.251,1.2445,1.2429,1.2438,1.2438,1.2414,1.2252,1.185,1.1825,1.1685,1.1343,1.1099,1.082,1.0565,1.0539,1.0539,1.0539,1.0539,1.0547,1.0547,1.0547,1.0547,1.0547,1.0522,1.0522,1.0522,1.0522,1.0249,0.9818,0.9688,0.9477,0.9265,0.9533,0.9625,0.9611,0.928,0.9542,1.0009,0.9693,0.978,1.0078,1.0078,1.0078,1.0078,1.0078,1.0078,1.0085,1.0085,1.0085,1.0047,1.0028,1.0013,0.998,0.9777,1.0029,1.0332,1.0325,0.9644,0.9004,0.8868,0.8813,0.8864,0.9006,0.9009,0.9014,0.902,0.9009,0.8977,0.902,0.8982,0.8982,0.8988,0.8833,0.8705,0.8705,0.8581,0.8517,0.8517,0.8522,0.8522,0.8528,0.8318,0.8221,0.8209,0.8064,0.7567,0.6719,0.4938,0.3713,0.2982,0.2928,0.2938,1.3204,0.0,0.0,0.0,0.0,0.0,0.0,0.0,0.0,0.0,0.0,0.0,0.0,0.0,0.0,0.0,1.3162,1.3054,1.3,1.3213,1.3361,1.3342,1.339,1.3409,1.3409,1.2957,1.2643,0.0,1.235,1.2203,1.2104,1.203,1.1956,1.1882,1.1783,1.1733,1.1733,1.1626,1.1585,1.1585,1.1585,1.1585,1.156,1.1242,1.1074,1.1074,1.0675,1.0437,1.0308,1.028,1.0213,1.0162,1.0228,1.0394,1.0609,1.05,1.0889,1.142,1.1353,1.1548,1.1895,1.1895,1.1895,1.1895,1.1895,1.1794,1.167,1.167,1.1577,1.1412,1.0908,1.0805,1.0705,1.0349,1.0551,1.0748,1.0506,1.0258,1.0102,1.0089,0.9468,0.9113,0.9685,0.9352,0.907,0.9322,0.8877,0.868,0.9166,0.8891,0.872,0.8971,0.8956,0.8924,0.8924,0.8892,0.8865,0.8865,0.8737,0.8722,0.887,0.8451,0.8272,0.8405,0.8146,0.7897,0.7632,0.6519,0.5536,0.4691,0.403,0.375,0.0,0.0,0.0,0.0,0.0,0.0,1.217,1.1815,1.1263,0.0,0.0,0.0,0.0,0.0,0.0,0.0,1.2111,1.2674,1.2981,1.3208,1.3461,1.3784,1.3869,1.3925,1.4035,1.3695,1.3399,1.3242,1.3064,1.2861,1.2584,1.257,1.2511,1.2389,1.2316,1.2183,1.1981,1.2119,1.2079,1.1888,1.2079,1.2163,1.2163,1.1875,1.1751,1.1751,1.1426,1.1301,1.1301,1.1301,1.0981,1.0496,1.0496,1.0753,1.114,1.114,1.1557,1.2135,1.2135,1.2338,1.259,1.259,1.259,1.259,1.259,1.2674,1.2789,1.2789,1.2942,1.2984,1.2373,1.2127,1.192,1.1482,1.1352,1.1282,1.107,1.1003,1.0878,1.0609,1.005,0.9924,1.0877,1.0426,1.0086,1.0468,0.9933,0.9601,0.9985,0.9656,0.957,1.0034,0.9876,0.9794,0.9945,0.992,0.9862,0.9862,0.9767,0.9745,0.9872,0.9564,0.9461,0.9572,0.9294,0.8967,0.8549,0.7785,0.7149,0.6631,0.5892,0.5568,0.0,0.0,0.0,0.0,0.0,0.0,1.1296,1.1029,1.0556,0.802,0.0,0.0,0.0,0.0,0.0,0.0,0.0,1.2424,1.3004,1.291,1.308,1.3777,1.3979,1.4138,1.4368,1.4433,1.4326,1.3928,1.3892,1.361,1.3006,1.2982,1.2885,1.2633,1.2609,1.2402,1.1972,1.2378,1.2368,1.1958,1.2378,1.2584,1.2584,1.2511,1.2487,1.2487,1.2438,1.2389,1.2389,1.2389,1.1733,1.0718,1.0718,1.0989,1.1418,1.1418,1.1809,1.2367,1.241,1.2563,1.274,1.274,1.2773,1.2789,1.2678,1.3064,1.3532,1.3562,1.401,1.4363,1.3901,1.3553,1.3194,1.2655,1.2161,1.1832,1.1893,1.1776,1.1463,1.0854,1.0709,1.1021,1.2171,1.1868,1.1611,1.207,1.1625,1.1241,1.1241,1.0957,1.0966,1.1599,1.1247,1.1068,1.1383,1.1234,1.1141,1.1141,1.1083,1.1104,1.1166,1.1195,1.124,1.1303,1.1052,1.0523,0.9663,0.8766,0.8361,0.8349,0.7942,0.775,0.0,0.0,0.0,0.0,0.0,0.0,1.3641,1.3583,1.3287,0.0,0.0,0.0,0.0,0.0,0.0,0.0,0.0,1.2822,1.2378,1.2583,1.2857,1.3012,1.3752,1.4266,1.4313,1.471,1.4834,1.4535,1.4373,1.4233,1.4082,1.4082,1.4059,1.4001,1.3907,1.3807,1.3712,1.3711,1.364,1.3557,1.365,1.3692,1.3668,1.3242,1.304,1.3016,1.2594,1.2389,1.2389,1.2389,1.2242,1.2021,1.2021,1.2095,1.2178,1.2178,1.2393,1.2757,1.3067,1.3338,1.358,1.358,1.3823,1.3996,1.3238,1.335,1.3744,1.3868,1.4079,1.4148,1.3663,1.3505,1.3236,1.2317,1.2029,1.2056,1.2434,1.2209,1.1984,1.2217,1.2,1.1989,1.261,1.2605,1.2625,1.2992,1.2481,1.2088,1.2145,1.186,1.1747,1.2056,1.1975,1.1958,1.2032,1.1584,1.1341,1.1341,1.1041,1.1105,1.1646,1.176,1.2081,1.2612,1.205,1.1805,1.1872,0.932,0.808,0.8093,0.7982,0.7924,0.0,0.0,0.0,1.5965,0.0,0.0,0.0,1.3439,1.2913,1.187,1.1626,0.0,0.0,0.0,0.0,0.0,0.0,0.0,1.2443,1.2704,1.3007,1.3132,1.3481,1.3737,1.3897,1.4399,1.4755,1.4892,1.4811,1.4697,1.4558,1.4535,1.4489,1.4396,1.4326,1.4194,1.3955,1.4125,1.4079,1.384,1.4089,1.4197,1.4197,1.3918,1.38,1.3766,1.3518,1.3389,1.3389,1.3389,1.3389,1.3317,1.2657,1.256,1.2788,1.2788,1.2987,1.3292,1.3477,1.3591,1.3645,1.3645,1.3811,1.3969,1.371,1.4223,1.4897,1.502,1.5089,1.4984,1.429,1.4095,1.3899,1.317,1.317,1.3343,1.3343,1.3496,1.3594,1.3594,1.3381,1.3233,1.3374,1.3132,1.3049,1.3479,1.2969,1.2476,1.2288,1.1974,1.1931,1.2341,1.2265,1.2204,1.2283,1.205,1.1883,1.1799,1.1602,1.1647,1.2,1.2282,1.2647,1.3092,1.2787,1.2661,1.2743,1.1223,1.0161,0.9509,0.949,0.9488,0.0,0.0,0.0,0.0,0.0,1.5534,0.0,0.0,0.0,1.1703,0.0,0.0,0.0,0.0,0.0,0.0,0.0,0.0,0.0,1.3028,0.0,1.3643,1.3366,1.3331,1.3778,1.4283,1.4796,1.532,1.5311,1.521,1.4983,1.496,1.4892,1.4731,1.4731,1.4541,1.4171,1.4541,1.4541,1.4171,1.4541,1.4731,1.472,1.4617,1.4581,1.4581,1.4581,1.4581,1.4581,1.4686,1.4731,1.4605,1.3283,1.3054,1.3433,1.3433,1.3585,1.3811,1.3902,1.383,1.3729,1.3729,1.3681,1.3681,1.4148,1.4871,1.5615,1.5796,1.5892,1.5722,1.4939,1.4747,1.4605,1.4113,1.4297,1.4488,1.4188,1.4658,1.502,1.4729,1.4602,1.4435,1.4222,1.3679,1.3416,1.3826,1.3443,1.2912,1.2398,1.2113,1.2133,1.2654,1.2464,1.2375,1.2538,1.2457,1.2349,1.2241,1.2201,1.2216,1.2326,1.2863,1.3212,1.3351,1.3348,1.3262,1.3142,1.3097,1.2476,1.1384,1.1453,1.1442,0.0,0.0,0.0,0.0,1.704,0.0,0.0,0.0,1.6104,1.5859,0.0,0.0,0.0,0.0,0.0,0.0,0.0,0.0,1.3663,1.3494,1.3595,1.422,1.375,1.3798,1.4904,1.5282,1.5695,1.6305,1.6114,1.5962,1.594,1.594,1.594,1.5918,1.5918,1.5881,1.5833,1.5881,1.5881,1.5833,1.5881,1.5918,1.5896,1.5411,1.5198,1.5198,1.5198,1.5198,1.5243,1.5698,1.5918,1.5786,1.4617,1.421,1.4257,1.4257,1.4208,1.4198,1.4615,1.4694,1.4547,1.4547,1.4265,1.4038,1.4509,1.4532,1.4478,1.4903,1.5109,1.5162,1.493,1.4873,1.4731,1.4127,1.4039,1.4177,1.4538,1.4684,1.4872,1.5237,1.5277,1.5184,1.4945,1.4466,1.4175,1.4225,1.4175,1.3926,1.3324,1.3224,1.3176,1.313,1.309,1.308,1.3115,1.2679,1.2398,1.2382,1.2206,1.2333,1.2805,1.355,1.3976,1.3997,1.3829,1.3728,1.3699,1.3361,1.3025,1.2768,1.3128,1.3119,0.0,0.0,0.0,0.0,0.0,0.0,1.7981,0.0,1.755,0.0,0.0,0.0,0.0,0.0,0.0,0.0,1.4892,0.0,0.0,0.0,1.3566,0.0,0.0,0.0,1.4613,1.5108,1.5596,1.6181,1.6427,1.6497,1.6346,1.6321,1.6265,1.6114,1.6114,1.6114,1.6114,1.6114,1.6114,1.6114,1.6114,1.6114,1.6092,1.5874,1.5764,1.5764,1.5764,1.5764,1.5776,1.6005,1.6114,1.6049,1.5565,1.5366,1.53,1.5017,1.5017,1.5131,1.5037,1.5162,1.5337,1.5337,1.5399,1.545,1.5372,1.5858,1.6314,1.5615,1.5904,1.6286,1.5591,1.5418,1.5361,1.5108,1.5257,1.5428,1.5348,1.5717,1.6007,1.5926,1.5858,1.5765,1.567,1.5252,1.4813,1.4464,1.4652,1.4628,1.4052,1.4222,1.4351,1.4305,1.4305,1.4165,1.3813,1.3566,1.327,1.2885,1.3076,1.3303,1.3471,1.4063,1.4336,1.4211,1.4117,1.4191,1.4383,1.4201,1.4231,1.4392,1.4013,1.3731,1.9269,0.0,0.0,0.0,0.0,0.0,0.0,0.0,0.0,0.0,0.0,0.0,0.0,0.0,0.0,0.0,0.0,1.522,0.0,0.0,0.0,0.0,0.0,0.0,0.0,1.5031,1.5558,1.6264,1.6701,1.6918,1.6892,1.6879,1.679,1.66,1.66,1.66,1.66,1.66,1.66,1.66,1.66,1.66,1.66,1.6416,1.6352,1.6352,1.6352,1.6352,1.6352,1.6536,1.66,1.66,1.66,1.6548,1.6402,1.5744,1.5666,1.582,1.5478,1.5579,1.5866,1.5876,1.61,1.6299,1.5951,1.6757,1.7531,1.6231,1.6681,1.729,1.6165,1.5985,1.607,1.5891,1.6089,1.6212,1.5872,1.6367,1.6775,1.6426,1.6376,1.6365,1.6228,1.5765,1.5247,1.4814,1.5054,1.5111,1.473,1.496,1.5142,1.5142,1.5142,1.4983,1.4547,1.4513,1.4317,1.3802,1.4061,1.4232,1.4181,1.4453,1.4553,1.4404,1.4512,1.47,1.4945,1.5077,1.5333,1.5711,1.5098,1.4671,0.0,0.0,0.0,1.9988,0.0,0.0,0.0,0.0,1.9901,0.0,0.0,0.0,0.0,0.0,0.0,0.0,0.0,0.0,0.0,0.0,0.0,0.0,0.0,0.0,0.0,1.5502,1.5892,1.7073,1.7058,1.7265,1.7835,1.7862,1.7862,1.7828,1.7828,1.7828,1.7828,1.7828,1.7828,1.7828,1.7828,1.7828,1.7808,1.7235,1.6972,1.6972,1.6972,1.6972,1.7013,1.7591,1.7828,1.7828,1.7828,1.776,1.7522,1.6471,1.6092,1.6092,1.6058,1.603,1.601,1.6083,1.6054,1.6015,1.6003,1.6479,1.6899,1.6181,1.6904,1.7621,1.6397,1.6475,1.6724,1.6132,1.5901,1.5812,1.5788,1.6175,1.6516,1.6504,1.6867,1.7036,1.6568,1.5891,1.539,1.5367,1.539,1.539,1.5366,1.5321,1.5288,1.5288,1.5288,1.5288,1.5266,1.5321,1.5321,1.5243,1.5017,1.4869,1.4857,1.4754,1.4686,1.4685,1.506,1.528,1.5302,1.5728,1.6173,1.6573,1.6791,1.6354,1.9937,2.0131,2.0256,2.0256,0.0,0.0,0.0,0.0,0.0,0.0,0.0,0.0,0.0,0.0,0.0,0.0,0.0,0.0,0.0,0.0,0.0,0.0,0.0,0.0,0.0,0.0,1.5879,1.626,1.6881,1.7279,1.7305,1.7804,1.8043,1.7902,1.7902,1.7902,1.7902,1.7902,1.7902,1.7902,1.7902,1.7902,1.7882,1.7693,1.7591,1.7591,1.7591,1.7591,1.7611,1.7821,1.7902,1.7943,1.8337,1.8392,1.8101,1.7063,1.7098,1.7614,1.7614,1.7359,1.7005,1.7013,1.7038,1.7071,1.7103,1.7503,1.7819,1.7276,1.7661,1.8033,1.7242,1.7169,1.7251,1.7036,1.6964,1.693,1.693,1.7047,1.7144,1.7107,1.7512,1.7686,1.7075,1.7084,1.6813,1.5691,1.5798,1.5952,1.5874,1.6139,1.6358,1.6358,1.6358,1.6216,1.5864,1.5577,1.5389,1.5366,1.5577,1.5533,1.5175,1.5423,1.5321,1.4835,1.497,1.5112,1.5295,1.5461,1.5781,1.6218,1.6707,1.6797,2.027,2.0409,2.0545,2.0545,2.0663,0.0,2.0579,0.0,2.0761,0.0,0.0,0.0,0.0,0.0,0.0,0.0,0.0,0.0,0.0,1.649,0.0,0.0,0.0,0.0,0.0,0.0,1.5904,1.607,1.6898,1.7418,1.7455,1.8095,1.8436,1.8403,1.8293,1.8274,1.8358,1.8333,1.8327,1.8327,1.8327,1.8327,1.8327,1.8327,1.8327,1.8327,1.8327,1.8327,1.8361,1.857,1.8687,1.8743,1.9377,1.9548,1.9322,1.8514,1.8696,1.9376,1.9376,1.9058,1.8687,1.8569,1.8532,1.846,1.8109,1.8539,1.8982,1.8235,1.8715,1.9226,1.8229,1.808,1.8112,1.7677,1.7516,1.7496,1.7496,1.7605,1.7707,1.7659,1.8254,1.8541,1.7862,1.8267,1.8118,1.6417,1.642,1.6603,1.6493,1.6744,1.6939,1.6939,1.6939,1.6808,1.6514,1.6182,1.5964,1.5964,1.6225,1.6278,1.6083,1.625,1.6467,1.6744,1.6134,1.6213,1.7008,1.6493,1.6475,1.6943,1.7276,1.7495]}]]